[[{"header":{"parameterUnit":"m.s-1","parameterCategory":1,"la1":30.6,"la2":29.2853,"lo1":-89.7004,"lo2":-87.6739,"dy":0.0162,"dx":0.0183,"nx":112,"ny":82,"refTime":"2023-07-29T06:00:00:Z","depth":0,"parameterNumber":2,"parameterNumberName":"U-component_of_WINDS"},"data":[0.0,0.0,0.0,0.0,0.0,0.0,0.0,0.0,0.0,0.0,0.0,0.0,0.0,0.0,0.0,0.0,0.0,0.0,0.0,0.0,0.0,0.0,0.0,0.0,0.0,0.0,0.0,0.0,0.0,0.0,0.0,0.0,0.0,0.0,0.0,0.0,0.0,0.0,0.0,0.0,0.0,0.0,0.0,0.0,0.0,0.0,0.0,0.0,0.0,0.0,0.0,0.0,0.0,0.0,0.0,0.0,0.0,0.0,0.0,0.0,0.0,0.0,0.0,0.0,0.0,0.0,0.0,0.0,0.0,0.0,0.0,0.0,0.0,0.0,0.0,0.0,0.0,0.0,0.0,0.0,0.0,0.0,0.0,0.0,0.0,0.0,0.0,0.0,0.0,0.0,2.4632,2.4575,2.4197,2.3909,2.3909,2.3909,2.3864,2.3759,0.0,0.0,0.0,0.0,0.0,0.0,0.0,0.0,0.0,0.0,0.0,0.0,0.0,0.0,0.0,0.0,0.0,0.0,0.0,0.0,0.0,0.0,0.0,0.0,0.0,0.0,0.0,0.0,0.0,0.0,0.0,0.0,0.0,0.0,0.0,0.0,0.0,0.0,0.0,0.0,0.0,0.0,0.0,0.0,0.0,0.0,0.0,0.0,0.0,0.0,0.0,0.0,0.0,0.0,0.0,0.0,0.0,0.0,0.0,0.0,0.0,0.0,0.0,0.0,0.0,0.0,0.0,0.0,0.0,0.0,0.0,0.0,0.0,0.0,0.0,0.0,0.0,0.0,0.0,0.0,0.0,0.0,0.0,0.0,0.0,0.0,0.0,0.0,0.0,0.0,0.0,0.0,0.0,0.0,0.0,0.0,0.0,0.0,0.0,0.0,0.0,0.0,0.0,0.0,2.5801,2.5455,2.5347,2.53,2.53,2.53,2.5061,2.4462,0.0,0.0,0.0,0.0,0.0,0.0,0.0,0.0,0.0,0.0,0.0,0.0,0.0,0.0,0.0,0.0,0.0,0.0,0.0,0.0,0.0,0.0,0.0,0.0,0.0,0.0,0.0,0.0,0.0,0.0,0.0,0.0,0.0,0.0,0.0,0.0,0.0,0.0,0.0,0.0,0.0,0.0,0.0,0.0,0.0,0.0,0.0,0.0,0.0,0.0,0.0,0.0,0.0,0.0,0.0,0.0,0.0,0.0,0.0,0.0,0.0,0.0,0.0,0.0,0.0,0.0,0.0,0.0,0.0,0.0,0.0,0.0,0.0,0.0,0.0,0.0,0.0,0.0,0.0,0.0,0.0,0.0,0.0,0.0,0.0,0.0,0.0,0.0,0.0,0.0,0.0,0.0,0.0,0.0,0.0,0.0,0.0,0.0,0.0,0.0,0.0,0.0,0.0,2.561,2.5786,2.5616,2.5615,2.5615,2.5615,2.5615,2.548,2.5181,2.4866,0.0,0.0,0.0,0.0,0.0,0.0,0.0,0.0,0.0,0.0,0.0,0.0,0.0,0.0,0.0,0.0,0.0,0.0,0.0,0.0,0.0,0.0,0.0,0.0,0.0,0.0,0.0,0.0,0.0,0.0,0.0,0.0,0.0,0.0,0.0,0.0,0.0,0.0,0.0,0.0,0.0,0.0,0.0,0.0,0.0,0.0,0.0,0.0,0.0,0.0,0.0,0.0,0.0,0.0,0.0,0.0,0.0,0.0,0.0,0.0,0.0,0.0,0.0,0.0,0.0,0.0,0.0,0.0,0.0,0.0,0.0,0.0,0.0,0.0,0.0,0.0,0.0,0.0,0.0,0.0,0.0,0.0,0.0,0.0,0.0,0.0,0.0,0.0,0.0,0.0,0.0,0.0,0.0,0.0,0.0,0.0,0.0,0.0,0.0,0.0,0.0,0.0,2.5618,2.5899,2.6048,2.6078,2.6078,2.6078,2.6078,2.6004,2.5854,2.5839,0.0,0.0,0.0,0.0,0.0,0.0,0.0,0.0,0.0,0.0,0.0,0.0,0.0,0.0,0.0,0.0,0.0,0.0,0.0,0.0,0.0,0.0,0.0,0.0,0.0,0.0,0.0,0.0,0.0,0.0,0.0,0.0,0.0,0.0,0.0,0.0,0.0,0.0,0.0,0.0,0.0,0.0,0.0,0.0,0.0,0.0,0.0,0.0,0.0,0.0,0.0,0.0,0.0,0.0,0.0,0.0,0.0,0.0,0.0,0.0,0.0,0.0,0.0,0.0,0.0,0.0,0.0,0.0,0.0,0.0,0.0,0.0,0.0,0.0,0.0,0.0,0.0,0.0,0.0,0.0,0.0,0.0,0.0,0.0,0.0,0.0,0.0,0.0,0.0,0.0,0.0,0.0,0.0,0.0,0.0,0.0,0.0,0.0,0.0,0.0,0.0,0.0,2.6803,2.6752,2.7415,2.749,2.749,2.749,2.749,2.7171,2.6557,2.6512,0.0,0.0,0.0,0.0,0.0,0.0,0.0,0.0,0.0,0.0,0.0,0.0,0.0,0.0,0.0,0.0,0.0,0.0,0.0,0.0,0.0,0.0,0.0,0.0,0.0,0.0,0.0,0.0,0.0,0.0,0.0,0.0,0.0,0.0,0.0,0.0,0.0,0.0,0.0,0.0,0.0,0.0,0.0,0.0,0.0,0.0,0.0,0.0,0.0,0.0,0.0,0.0,0.0,0.0,0.0,0.0,0.0,0.0,0.0,0.0,0.0,0.0,0.0,0.0,0.0,0.0,0.0,0.0,0.0,0.0,0.0,0.0,0.0,0.0,0.0,0.0,0.0,0.0,0.0,0.0,0.0,0.0,0.0,0.0,0.0,0.0,0.0,0.0,0.0,0.0,0.0,0.0,0.0,0.0,0.0,0.0,0.0,0.0,0.0,0.0,0.0,0.0,2.7079,2.7305,2.7595,2.7625,2.7625,2.7625,2.7625,2.7505,2.7215,0.0,0.0,0.0,0.0,0.0,0.0,0.0,0.0,0.0,0.0,0.0,0.0,0.0,0.0,0.0,0.0,0.0,0.0,0.0,0.0,0.0,0.0,0.0,0.0,0.0,0.0,0.0,0.0,0.0,0.0,0.0,0.0,0.0,0.0,0.0,0.0,0.0,0.0,0.0,0.0,0.0,0.0,0.0,0.0,0.0,0.0,0.0,0.0,0.0,0.0,0.0,0.0,0.0,0.0,0.0,0.0,0.0,0.0,0.0,0.0,0.0,0.0,0.0,0.0,0.0,0.0,0.0,0.0,0.0,0.0,0.0,0.0,0.0,0.0,0.0,0.0,0.0,0.0,0.0,0.0,0.0,0.0,0.0,0.0,0.0,0.0,0.0,0.0,0.0,0.0,0.0,0.0,0.0,0.0,0.0,0.0,0.0,0.0,0.0,0.0,0.0,0.0,2.695,2.734,2.7625,2.7625,2.7625,2.7524,2.7255,2.7255,2.7255,2.7255,0.0,0.0,0.0,0.0,0.0,0.0,0.0,0.0,0.0,0.0,0.0,0.0,0.0,0.0,0.0,0.0,0.0,0.0,0.0,0.0,0.0,0.0,0.0,0.0,0.0,0.0,0.0,0.0,0.0,0.0,0.0,0.0,0.0,0.0,0.0,0.0,0.0,0.0,0.0,0.0,0.0,0.0,0.0,0.0,0.0,0.0,0.0,0.0,0.0,0.0,0.0,0.0,0.0,0.0,0.0,0.0,0.0,0.0,0.0,0.0,0.0,0.0,0.0,0.0,0.0,0.0,0.0,0.0,0.0,0.0,0.0,0.0,0.0,0.0,0.0,0.0,0.0,0.0,0.0,0.0,0.0,0.0,0.0,0.0,0.0,0.0,0.0,0.0,0.0,0.0,0.0,0.0,0.0,0.0,0.0,0.0,0.0,0.0,0.0,0.0,0.0,0.0,2.7625,2.7625,2.7625,2.7625,2.7625,2.7306,2.6563,2.651,2.651,0.0,0.0,0.0,0.0,0.0,0.0,0.0,0.0,0.0,0.0,0.0,0.0,0.0,0.0,0.0,0.0,0.0,0.0,0.0,0.0,0.0,0.0,0.0,0.0,0.0,0.0,0.0,0.0,0.0,0.0,0.0,0.0,0.0,0.0,0.0,0.0,0.0,0.0,0.0,0.0,0.0,0.0,0.0,0.0,0.0,0.0,0.0,0.0,0.0,0.0,0.0,0.0,0.0,0.0,0.0,0.0,0.0,0.0,0.0,0.0,0.0,0.0,0.0,0.0,0.0,0.0,0.0,0.0,0.0,0.0,0.0,0.0,0.0,0.0,0.0,0.0,0.0,0.0,0.0,0.0,0.0,0.0,0.0,0.0,0.0,0.0,0.0,0.0,0.0,0.0,0.0,0.0,0.0,0.0,0.0,0.0,0.0,0.0,0.0,0.0,0.0,0.0,0.0,2.7625,2.7625,2.7625,2.7625,2.7625,2.7524,2.7306,2.6826,2.6721,2.7255,0.0,0.0,0.0,0.0,0.0,0.0,0.0,0.0,0.0,0.0,0.0,0.0,0.0,0.0,0.0,0.0,0.0,0.0,0.0,0.0,0.0,0.0,0.0,0.0,0.0,0.0,0.0,0.0,0.0,0.0,0.0,0.0,0.0,0.0,0.0,0.0,0.0,0.0,0.0,0.0,0.0,0.0,0.0,0.0,0.0,0.0,0.0,0.0,0.0,0.0,0.0,0.0,0.0,0.0,0.0,0.0,0.0,0.0,0.0,0.0,0.0,0.0,0.0,0.0,0.0,0.0,0.0,0.0,0.0,0.0,0.0,0.0,0.0,0.0,0.0,0.0,0.0,0.0,0.0,0.0,0.0,0.0,0.0,0.0,0.0,0.0,0.0,0.0,0.0,0.0,0.0,0.0,0.0,0.0,0.0,0.0,0.0,0.0,0.0,0.0,0.0,0.0,2.7625,2.7625,2.7625,2.7625,2.7357,2.7034,2.6759,2.6054,2.5837,2.6254,0.0,0.0,0.0,0.0,0.0,0.0,0.0,0.0,0.0,0.0,0.0,0.0,0.0,0.0,0.0,0.0,0.0,0.0,0.0,0.0,0.0,0.0,0.0,0.0,0.0,0.0,0.0,0.0,0.0,0.0,0.0,0.0,0.0,0.0,0.0,0.0,0.0,0.0,0.0,0.0,0.0,0.0,0.0,0.0,0.0,0.0,0.0,0.0,0.0,0.0,0.0,0.0,0.0,0.0,0.0,0.0,0.0,0.0,0.0,0.0,0.0,0.0,0.0,0.0,0.0,0.0,0.0,0.0,0.0,0.0,0.0,0.0,0.0,0.0,0.0,0.0,0.0,0.0,0.0,0.0,0.0,0.0,0.0,0.0,0.0,0.0,0.0,0.0,0.0,0.0,0.0,0.0,0.0,0.0,0.0,0.0,0.0,0.0,0.0,0.0,0.0,0.0,2.7509,2.7458,2.7408,2.7408,2.6826,2.6122,2.5453,2.4738,2.435,2.4408,0.0,0.0,0.0,0.0,0.0,0.0,0.0,0.0,0.0,0.0,0.0,0.0,0.0,0.0,0.0,0.0,0.0,0.0,0.0,0.0,0.0,0.0,0.0,0.0,0.0,0.0,0.0,0.0,0.0,0.0,0.0,0.0,0.0,0.0,0.0,0.0,0.0,0.0,0.0,0.0,0.0,0.0,0.0,0.0,0.0,0.0,0.0,0.0,0.0,0.0,0.0,0.0,0.0,0.0,0.0,0.0,0.0,0.0,0.0,0.0,2.6882,2.7313,0.0,0.0,0.0,0.0,0.0,0.0,0.0,0.0,0.0,0.0,0.0,0.0,0.0,0.0,0.0,0.0,0.0,0.0,0.0,0.0,0.0,0.0,0.0,0.0,0.0,0.0,0.0,0.0,0.0,0.0,0.0,0.0,0.0,0.0,0.0,0.0,0.0,0.0,0.0,0.0,2.6721,2.6215,2.5892,2.5892,2.5728,2.5563,2.5398,2.4738,2.4567,2.5119,2.4624,0.0,0.0,0.0,0.0,0.0,0.0,0.0,0.0,0.0,0.0,0.0,0.0,0.0,0.0,0.0,0.0,0.0,0.0,0.0,0.0,0.0,0.0,0.0,0.0,0.0,0.0,0.0,0.0,0.0,0.0,0.0,0.0,0.0,0.0,0.0,0.0,0.0,0.0,0.0,0.0,0.0,0.0,0.0,0.0,0.0,0.0,0.0,0.0,0.0,0.0,0.0,0.0,0.0,0.0,0.0,0.0,0.0,0.0,0.0,2.6909,2.6919,0.0,0.0,0.0,0.0,0.0,0.0,0.0,0.0,0.0,0.0,0.0,0.0,0.0,0.0,0.0,0.0,0.0,0.0,0.0,0.0,0.0,0.0,0.0,0.0,0.0,0.0,0.0,0.0,0.0,0.0,0.0,0.0,0.0,0.0,0.0,0.0,0.0,0.0,0.0,0.0,2.651,2.5837,2.5398,2.5398,2.5063,2.4851,2.4851,2.4163,2.3884,2.4266,2.3943,0.0,0.0,0.0,0.0,0.0,0.0,0.0,0.0,0.0,0.0,0.0,0.0,0.0,0.0,0.0,0.0,0.0,0.0,0.0,0.0,0.0,0.0,0.0,0.0,0.0,0.0,0.0,0.0,0.0,0.0,0.0,0.0,0.0,0.0,0.0,0.0,0.0,0.0,0.0,0.0,0.0,0.0,0.0,0.0,0.0,0.0,0.0,0.0,0.0,0.0,0.0,0.0,0.0,2.7399,2.7261,2.8271,2.6453,2.5837,2.6336,2.6724,2.6257,2.5289,2.5879,0.0,0.0,0.0,0.0,0.0,0.0,0.0,0.0,0.0,0.0,0.0,0.0,0.0,0.0,0.0,0.0,0.0,0.0,0.0,0.0,0.0,0.0,2.4221,2.4838,2.4496,2.4279,2.4894,0.0,0.0,0.0,0.0,0.0,0.0,0.0,0.0,0.0,0.0,0.0,2.6122,2.5453,2.5007,2.5007,2.4452,2.4118,2.4118,2.3484,2.3078,2.3078,2.3078,2.3078,0.0,0.0,0.0,0.0,0.0,0.0,0.0,0.0,0.0,0.0,0.0,0.0,0.0,0.0,0.0,0.0,0.0,0.0,0.0,0.0,0.0,0.0,0.0,0.0,0.0,0.0,0.0,0.0,0.0,0.0,0.0,0.0,2.954,2.954,0.0,0.0,0.0,0.0,0.0,0.0,0.0,0.0,0.0,0.0,0.0,0.0,0.0,2.8312,2.768,2.7695,2.7444,2.6901,2.7291,2.756,2.766,2.6759,2.6068,2.5508,2.4937,0.0,2.537,2.5479,0.0,0.0,0.0,0.0,0.0,0.0,0.0,0.0,0.0,0.0,0.0,0.0,0.0,0.0,0.0,0.0,0.0,0.0,0.0,0.0,0.0,0.0,2.3305,2.3352,2.3305,2.3305,2.3352,2.4439,2.5453,2.5508,2.5563,2.5563,0.0,0.0,0.0,0.0,0.0,0.0,2.4681,2.3872,2.3412,2.3412,2.3305,2.3245,2.3245,2.3125,2.3078,2.3078,2.3078,2.3078,2.3078,2.3078,0.0,0.0,0.0,0.0,0.0,0.0,0.0,0.0,0.0,0.0,0.0,0.0,0.0,0.0,0.0,0.0,0.0,0.0,0.0,0.0,0.0,0.0,0.0,0.0,0.0,0.0,0.0,0.0,0.0,3.0081,2.9761,2.9451,2.9629,2.9805,0.0,0.0,0.0,0.0,0.0,0.0,0.0,0.0,0.0,2.8379,2.7758,2.7195,2.6886,2.6553,2.6215,2.5892,2.5769,2.5986,2.6322,2.5148,2.4654,2.4738,2.3943,2.3813,2.415,2.4624,2.4951,2.5287,0.0,0.0,0.0,0.0,2.5892,2.5783,2.5063,2.4794,2.4794,2.4794,0.0,0.0,0.0,0.0,0.0,0.0,0.0,2.4292,2.4292,2.3708,2.3078,2.3078,2.3078,2.3078,2.3078,2.3649,2.4266,2.4681,2.4794,2.4894,2.5342,2.5673,0.0,0.0,0.0,2.4681,2.435,2.359,2.3078,2.3078,2.3078,2.3078,2.3078,2.3078,2.3078,2.3078,2.3078,2.3078,2.3078,2.3078,2.3078,0.0,0.0,0.0,0.0,0.0,0.0,0.0,0.0,0.0,0.0,0.0,0.0,0.0,0.0,0.0,0.0,0.0,0.0,0.0,0.0,0.0,0.0,0.0,0.0,0.0,0.0,0.0,0.0,2.9935,2.9629,2.8996,2.9088,2.918,0.0,0.0,0.0,0.0,0.0,0.0,2.8295,2.8077,2.7779,2.7345,2.663,2.6104,2.595,2.559,2.53,2.5119,2.4738,2.4851,2.5342,2.4047,2.3708,2.4234,2.3424,2.3078,2.3138,2.3767,2.4118,2.435,2.4908,2.5231,2.5398,2.5175,2.5119,2.5007,2.4221,2.4002,2.4002,2.4002,2.4002,2.406,2.4412,0.0,0.0,0.0,0.0,2.4002,2.4002,2.3543,2.3078,2.3078,2.3078,2.3078,2.3078,2.3078,2.3245,2.3884,2.4002,2.4176,2.4724,2.5007,0.0,2.4824,2.4509,2.4234,2.4002,2.3484,2.3078,2.3078,2.3078,2.3078,2.3078,2.3078,2.3078,2.3078,2.3078,2.3078,2.3078,2.3078,2.3078,2.3078,0.0,0.0,0.0,0.0,0.0,0.0,0.0,0.0,0.0,0.0,0.0,0.0,0.0,0.0,0.0,0.0,0.0,0.0,0.0,0.0,0.0,0.0,0.0,0.0,0.0,0.0,0.0,0.0,0.0,2.776,2.8189,0.0,0.0,0.0,0.0,2.8559,2.7993,2.771,2.763,2.6991,2.6583,2.6562,2.5843,2.5129,2.4403,2.507,2.5067,2.435,2.5007,2.5342,2.5342,2.4567,2.4234,2.4234,2.3424,2.3078,2.3078,2.3125,2.359,2.4292,2.435,2.4794,2.5342,2.4624,2.435,2.4234,2.3424,2.3125,2.3125,2.3125,2.3125,2.3005,2.231,2.2616,0.0,0.0,2.2628,2.3125,2.3125,2.3138,2.3078,2.3078,2.3078,2.3078,2.3078,2.3078,2.3138,2.3125,2.3125,2.3185,2.3185,0.0,2.4118,2.3305,2.3826,2.4002,2.3245,2.3138,2.3078,2.3078,2.3078,2.3078,2.3078,2.3078,2.3078,2.3078,2.3078,2.3078,2.3078,2.3078,2.3078,2.3078,2.2384,0.0,0.0,0.0,0.0,0.0,0.0,0.0,0.0,0.0,0.0,0.0,0.0,0.0,0.0,0.0,0.0,0.0,0.0,0.0,0.0,0.0,0.0,0.0,0.0,0.0,0.0,0.0,0.0,2.8174,2.8042,0.0,2.7894,2.7894,2.7894,2.7894,2.7291,2.71,2.7575,2.6905,2.6509,2.6497,2.5782,2.5043,2.4309,2.4072,2.3785,2.3531,2.3813,2.393,2.393,2.3649,2.3543,2.3543,2.3185,2.3078,2.3078,2.3078,2.3245,2.3543,2.3543,2.3708,2.3872,2.3649,2.3543,2.3484,2.3198,2.3078,2.3078,2.3078,2.3078,2.3078,2.2763,2.2884,2.3065,2.2763,2.2884,2.3078,2.3078,2.3078,2.3078,2.3078,2.3078,2.3078,2.3078,2.3078,2.3078,2.3078,2.3078,2.3078,2.3078,2.3365,2.3424,2.3125,2.3365,2.3424,2.3138,2.3078,2.3078,2.3078,2.3078,2.3078,2.3078,2.3078,2.3078,2.3078,2.3078,2.3078,2.3078,2.3078,2.2884,2.2322,2.2063,2.1877,0.0,0.0,0.0,0.0,0.0,0.0,0.0,0.0,0.0,0.0,0.0,0.0,0.0,0.0,0.0,0.0,0.0,0.0,0.0,0.0,0.0,0.0,0.0,0.0,0.0,2.8732,2.8415,2.8238,2.786,2.7625,2.7625,2.7625,2.7625,2.7625,2.693,2.6721,2.7188,2.6294,2.5781,2.5782,2.5017,2.4408,2.3888,2.3371,2.3078,2.3078,2.3078,2.3078,2.3078,2.3078,2.3078,2.3078,2.3078,2.3078,2.3078,2.3078,2.3078,2.3078,2.3078,2.3078,2.3078,2.3078,2.3078,2.3078,2.3078,2.3078,2.3078,2.2763,2.2884,2.2944,2.2051,2.2433,2.3005,2.2433,2.2445,2.2702,2.2702,2.2494,2.2249,2.2249,2.2494,2.2702,2.2702,2.2884,2.3078,2.3078,2.3078,2.3078,2.3078,2.3078,2.3078,2.3078,2.3078,2.3078,2.3078,2.3078,2.3078,2.3078,2.3078,2.3078,2.3078,2.3078,2.3078,2.3078,2.3078,2.3005,2.2702,2.2944,2.2689,2.1939,2.1616,2.1302,2.1037,0.0,0.0,0.0,0.0,0.0,0.0,0.0,0.0,0.0,0.0,0.0,0.0,0.0,0.0,0.0,0.0,0.0,0.0,0.0,0.0,0.0,0.0,0.0,2.8367,2.8463,2.8222,2.761,2.7575,2.7575,2.7625,2.7575,2.7575,2.7575,2.6878,2.6457,2.6457,2.5101,2.4318,2.4281,2.3555,2.315,2.3078,2.3078,2.3078,2.3078,2.3078,2.3078,2.3078,2.3078,2.3078,2.3078,2.3078,2.3078,2.3078,2.3078,2.3078,2.3078,2.3078,2.3078,2.3078,2.3078,2.3078,2.3078,2.3078,2.3078,2.2944,2.2187,2.2445,2.2628,2.0193,2.1152,2.275,2.1164,2.1302,2.1939,2.1939,2.1302,2.0655,2.0655,2.1302,2.1939,2.1939,2.2567,2.3078,2.3078,2.3078,2.3078,2.3078,2.3078,2.3078,2.3078,2.3078,0.0,2.3078,2.3078,2.3078,2.3078,2.3078,2.3078,2.3078,2.3078,2.3078,2.3078,2.3078,2.2763,2.1939,2.2702,2.2689,2.1877,2.0974,2.0139,1.9243,0.0,0.0,0.0,0.0,0.0,0.0,0.0,0.0,0.0,0.0,0.0,0.0,0.0,0.0,0.0,0.0,0.0,0.0,0.0,0.0,0.0,2.7625,2.7458,2.7122,2.7056,2.7019,2.6826,2.6826,2.6982,2.7575,2.71,2.6826,2.6826,2.5618,2.5119,2.5673,2.4818,2.4315,2.4312,2.4112,2.3679,2.3138,2.3078,2.3078,2.3078,2.3078,2.3078,2.3078,2.3078,2.3078,2.3078,2.3078,2.3078,2.3078,2.3078,2.3078,2.3078,2.3078,2.3078,2.3078,2.3078,2.3078,2.3078,2.3078,2.3078,2.3078,2.2823,2.2944,2.2944,2.2237,2.2555,2.3005,2.2555,2.2567,2.2763,2.2763,2.2567,2.2433,2.2433,2.2628,2.2763,2.2763,2.2944,2.3078,2.3078,2.3078,2.3078,2.3078,2.3078,2.3078,2.3078,2.3078,2.3078,2.3078,2.3078,2.3078,2.3078,2.3078,2.3078,2.3078,2.3078,2.3078,2.3078,2.3078,2.3005,2.2763,2.3005,2.2433,2.0974,2.0074,1.9243,0.0,0.0,0.0,0.0,0.0,0.0,0.0,0.0,0.0,0.0,0.0,0.0,0.0,0.0,0.0,0.0,0.0,0.0,0.0,0.0,0.0,0.0,2.6692,2.6428,2.5673,2.6122,2.651,2.651,2.6229,2.6229,2.6654,2.6549,2.6336,2.6068,2.5231,2.4794,2.4951,2.4432,2.4166,2.4149,2.4416,2.4256,2.3841,2.3779,2.3791,2.3826,2.3791,2.3779,2.3779,2.3779,2.3779,2.3779,2.3779,2.3779,2.3779,2.3779,2.3779,2.3729,0.0,0.0,0.0,0.0,2.3078,2.3078,2.2689,2.258,2.2506,2.1729,2.1729,2.1928,2.1215,2.1479,2.199,2.1604,2.1542,2.1526,2.1736,2.1463,2.1251,2.1467,2.1786,2.2174,2.2571,2.2902,2.3304,2.3704,2.3779,0.0,2.3779,2.3452,2.3078,2.3078,2.3078,2.3078,2.3078,2.3078,2.3078,2.3078,2.3078,2.3078,2.3078,2.3078,0.0,0.0,0.0,2.3078,2.3078,2.2763,0.0,0.0,0.0,1.9233,1.8008,1.8529,0.0,0.0,1.8269,1.8008,0.0,0.0,0.0,0.0,0.0,0.0,0.0,0.0,0.0,0.0,0.0,0.0,0.0,0.0,0.0,0.0,2.5398,2.5175,2.4509,2.5453,2.6229,2.6229,2.5673,2.5314,2.5494,2.6004,2.6087,2.5479,2.5381,2.504,2.4373,2.4172,0.0,0.0,0.0,2.4805,2.4782,2.4808,2.4796,2.4811,2.4822,2.4781,2.482,2.482,2.482,2.482,2.482,2.482,2.482,2.482,2.482,2.472,2.3715,2.3265,2.3265,2.3265,2.3265,2.3192,2.2442,0.0,0.0,2.0434,2.0434,2.0758,1.9132,1.9645,2.0747,1.9843,1.9589,1.9684,2.0007,1.9581,1.9082,1.9469,2.0186,2.0945,2.184,2.2593,2.3423,2.4471,2.4613,2.4678,2.4755,2.3991,2.3265,2.3265,2.3215,2.3226,2.3226,2.3115,2.3078,2.3078,2.3078,0.0,2.3078,2.3078,2.3078,2.3078,2.3078,2.3078,2.2944,2.2187,2.1388,2.054,2.041,1.9658,1.8154,1.8154,1.8154,1.8144,1.8057,1.8008,0.0,0.0,0.0,0.0,0.0,0.0,0.0,0.0,0.0,0.0,0.0,0.0,0.0,0.0,0.0,2.5398,2.5398,2.5342,2.5231,2.4894,2.4738,2.4738,2.4624,2.4926,2.596,2.5612,2.5507,2.5781,2.5247,2.4861,2.4735,2.4671,2.4669,2.463,2.4743,2.4822,2.4798,2.4796,2.4818,2.48,2.4772,0.0,2.482,2.482,2.482,2.482,2.482,2.482,2.482,2.482,2.482,2.4795,2.4582,2.4494,2.4494,2.4494,2.4494,2.443,2.4302,2.4238,2.4161,2.3827,2.3827,2.375,2.264,2.2506,0.0,2.1631,2.1426,2.1448,2.1468,2.1363,2.1315,2.1413,2.1505,2.1713,2.1909,2.2047,2.2457,2.3423,2.3568,2.3833,2.4678,2.4644,2.4494,2.4494,2.4117,2.3841,2.3841,2.3427,2.3078,2.3078,2.3078,2.3078,2.3078,2.3078,2.3078,2.3078,2.3078,2.2823,2.2137,2.1302,2.0575,2.0037,1.9308,1.9023,1.9043,1.9043,1.9043,1.9023,1.833,1.8008,0.0,0.0,0.0,0.0,0.0,0.0,0.0,0.0,0.0,0.0,0.0,2.5383,2.5287,0.0,2.5217,2.511,2.509,2.509,2.509,2.4814,2.4589,2.4695,2.4385,2.4499,2.5411,2.5511,2.5445,2.5382,2.5332,2.5167,2.482,2.5071,2.5209,2.5209,2.5519,2.5619,2.5671,2.5652,2.5619,2.5652,2.5652,2.567,2.5636,2.5636,2.5636,2.5636,2.5636,2.5636,2.5636,2.5636,2.5636,2.5636,2.5636,2.5021,2.4054,2.4054,2.3779,2.3368,2.3356,2.3089,2.2604,2.2195,2.2058,2.1978,2.1424,2.1285,2.1215,2.0744,2.0603,2.0655,2.0885,2.0865,2.0928,2.1157,2.1647,2.2071,2.2573,2.3081,2.3723,2.4699,2.4915,2.5062,2.5569,2.5636,2.5448,2.4908,2.4582,2.4406,2.4406,2.4155,2.3879,2.3602,2.3565,2.3565,2.3565,2.3828,2.3979,2.3979,2.3979,2.3791,2.3401,2.2931,2.217,2.0986,2.0525,1.995,1.9287,1.9287,1.9287,1.9277,1.8848,1.8652,0.0,0.0,0.0,0.0,0.0,0.0,0.0,2.6337,2.6188,2.5418,2.5303,2.5222,2.5061,2.5031,2.5003,2.4809,2.482,2.482,2.482,2.482,2.4874,2.5166,2.4568,2.4368,2.4921,2.5486,2.5652,2.5187,2.5653,2.5781,2.5134,2.5536,2.5762,2.5762,2.6214,2.6533,2.6533,2.6533,2.6533,2.6533,2.6533,2.6533,2.6533,2.6533,2.6533,2.6533,2.6533,2.6533,2.6533,2.6533,2.6533,2.6452,2.6314,2.5257,2.3783,2.3903,2.345,2.2823,2.2891,2.2396,2.1637,2.0936,2.0731,2.0659,2.0244,2.0099,2.0099,1.9889,1.9816,1.9969,2.0446,2.0622,2.0702,2.1074,2.1745,2.2478,2.3294,2.412,2.4933,2.5791,2.6082,2.6233,2.6233,2.6383,2.6163,2.5272,2.5046,2.4971,2.4971,2.4883,2.4644,2.4205,2.4155,2.4155,2.4155,2.4569,2.4691,2.4536,2.4536,2.4341,2.3989,2.3989,2.3203,2.1625,2.1625,2.0913,1.9541,1.9541,1.9541,1.9541,1.9541,1.9443,2.7625,2.7034,2.651,2.651,2.6369,2.6084,0.0,2.5608,2.5783,2.5052,2.4874,2.4836,2.4835,2.4848,2.4809,2.4808,2.482,2.482,2.482,2.482,2.4971,2.5492,2.5073,2.4933,2.546,2.5564,2.5845,2.6307,2.64,2.64,2.6345,2.6395,2.6433,2.6433,2.6496,2.6533,2.6533,2.6533,2.6533,2.6533,2.6533,2.6533,2.6533,2.6533,2.6533,2.6533,2.6533,2.6533,2.6533,2.6533,2.6533,2.6383,2.5511,2.535,2.5577,2.6,2.6058,2.5977,2.5977,2.5908,2.5827,2.5758,2.5677,2.5399,2.3575,2.3066,2.2834,2.1955,2.173,2.1891,2.2826,2.3069,2.308,2.3136,2.322,2.3368,2.3452,2.3588,2.3661,2.3806,2.4552,2.5158,2.5158,2.5873,2.6483,2.6302,2.5837,2.5511,2.5511,2.5109,2.4795,2.4745,2.4732,2.4732,2.4732,2.4795,2.4406,2.349,2.349,2.274,2.1156,2.1086,2.0791,2.0123,2.0123,2.0256,2.042,2.042,2.042,2.042,2.042,2.001,2.8086,2.785,2.7631,2.7631,2.7201,2.6703,2.6421,2.6102,2.567,2.4924,2.482,2.4921,2.5222,2.5272,2.5385,2.5724,2.5774,2.5774,2.5774,2.5774,2.585,2.6076,2.5912,2.5862,2.6076,2.6101,2.6201,2.6508,2.6533,2.6533,2.6533,2.6533,2.6533,2.6533,2.6766,2.6967,2.6959,2.7296,2.7443,2.7408,2.7442,2.7419,2.7406,2.7422,2.7435,2.7419,2.7419,2.7419,2.7419,2.7419,2.7419,2.7419,2.6964,2.6943,2.7066,2.6369,2.5925,2.5834,2.6336,2.6202,2.5601,2.4981,2.5217,2.5378,2.3246,2.3012,2.3302,2.2247,2.1939,2.2019,2.2484,2.2563,2.2563,2.2563,2.3002,2.3601,2.4225,2.4842,2.5452,2.6043,2.6505,2.6808,2.6808,2.712,2.7419,2.7419,2.6666,2.6101,2.6101,2.5912,2.5649,2.531,2.5272,2.5272,2.5272,2.5586,2.5627,2.5197,2.5185,2.4832,2.4049,2.3477,2.2795,2.2041,2.1455,2.0964,2.0566,2.0566,2.0566,2.0566,2.0566,2.0371,2.8463,2.8225,2.7997,2.7738,2.723,2.6775,2.6775,2.6413,2.591,2.5391,2.5272,2.5385,2.5774,2.5837,2.5963,2.6458,2.6533,2.6533,2.6533,2.6533,2.6533,2.6533,2.6533,2.6533,2.6533,2.6533,2.6533,2.6533,2.6533,2.6533,2.6533,2.6603,2.6691,2.6691,2.7218,2.7544,2.7548,2.7918,2.8117,2.8112,2.81,2.8124,2.8077,2.8094,2.8091,2.8109,2.8109,2.8109,2.8109,2.8109,2.8109,2.8109,2.7791,2.773,2.773,2.6237,2.5873,2.6095,2.6764,2.6538,2.5866,2.506,2.516,2.5249,2.3674,2.3514,2.3812,2.3353,2.297,2.2829,2.3062,2.29,2.2656,2.2656,2.3192,2.396,2.4759,2.5547,2.6171,2.6701,2.7001,2.7174,2.7249,2.7484,2.773,2.8036,2.7419,2.6854,2.6703,2.6622,2.6302,2.5875,2.5837,2.5837,2.5837,2.6214,2.6383,2.6094,2.6094,2.5943,2.5652,2.4992,2.4108,2.3147,2.2627,2.1821,2.0566,2.0857,2.0857,2.0566,2.0566,2.0566,2.8552,2.7794,2.7015,2.6214,2.5781,2.564,2.564,2.6068,2.6471,2.6483,2.6483,2.6483,2.6496,2.6496,2.6508,2.6533,2.6533,2.6533,2.6533,2.6533,2.6533,2.6533,2.6533,2.6533,2.6533,2.6533,2.6533,2.6533,2.6533,2.6533,2.6533,2.6967,2.7256,2.7256,2.7795,2.8084,2.8084,2.8089,2.8089,2.8072,2.8097,2.8064,2.8135,2.8102,2.8097,2.8109,2.8109,2.8109,2.8109,2.8109,2.8109,2.8036,2.6962,2.6871,2.7198,2.5995,2.6647,2.8024,2.8024,2.8036,2.8036,2.795,2.7261,2.6498,2.6451,2.5754,2.5149,2.6136,2.5689,2.516,2.6107,2.5547,2.4748,2.4748,2.4748,2.4737,2.4826,2.4826,2.458,2.3642,2.4266,2.4904,2.5071,2.5866,2.6887,2.795,2.8084,2.7858,2.7318,2.6791,2.6521,2.6496,2.6496,2.6496,2.6496,2.6521,2.6094,2.5087,2.5087,2.4636,2.3661,2.3588,2.3073,2.2027,2.2999,2.2489,2.0566,2.1517,2.1517,2.0566,2.0566,2.0566,2.9696,2.9442,2.9203,2.8872,2.8345,2.7988,2.8622,2.8407,2.7986,2.7417,2.7736,2.7986,2.7417,2.7284,2.7284,2.7284,2.685,2.6533,2.6533,2.6533,2.6533,2.6533,2.6533,2.6533,2.6533,2.6533,2.6533,2.6533,2.6804,2.7005,2.7005,2.7532,2.7821,2.7821,2.836,2.8649,2.8649,2.9038,2.9226,2.9227,2.9227,2.9263,2.9245,2.9251,2.9227,2.9227,2.9227,2.9227,2.9227,2.9227,2.9227,2.9227,2.8833,2.8778,2.8926,2.8512,2.8725,2.9062,2.7518,2.7032,2.6941,2.6199,2.621,2.6221,2.474,2.4575,2.4823,2.4409,2.4002,2.3854,2.4179,2.3928,2.3676,2.3676,2.3676,2.3844,2.4658,2.5387,2.6049,2.6428,2.7337,2.8167,2.8167,2.85,2.8696,2.8637,2.8335,2.8034,2.7846,2.7344,2.7005,2.7005,2.6678,2.6533,2.6533,2.6533,2.6383,2.6025,2.6025,2.5873,2.5499,2.485,2.4337,2.3963,2.3672,2.3147,2.2489,2.2178,2.1811,2.1517,2.0857,2.0566,3.0334,3.0072,2.9827,2.9827,2.9192,2.8684,2.9254,2.8748,2.792,2.7417,2.792,2.8363,2.7802,2.767,2.7802,2.8117,2.7484,2.6905,2.6905,2.6905,2.685,2.6521,2.6533,2.6533,2.6533,2.6533,2.6533,2.6533,2.6967,2.7281,2.7281,2.7996,2.8398,2.8398,2.895,2.9239,2.9239,2.9603,2.9792,2.9792,2.9792,2.9792,2.9792,2.9792,2.9792,2.9792,2.9792,2.9792,2.9792,2.9792,2.9792,2.9792,2.9365,2.9197,2.9118,2.8791,2.8633,2.8542,2.7891,2.7718,2.7557,2.6789,2.6554,2.6389,2.5714,2.521,2.4787,2.4872,2.4296,2.38,2.4221,2.4049,2.38,2.4221,2.4307,2.4563,2.521,2.5964,2.6554,2.686,2.7522,2.8028,2.8028,2.8371,2.8591,2.8627,2.8346,2.7989,2.7545,2.7566,2.7426,2.7052,2.703,2.7042,2.7042,2.6866,2.6753,2.6753,2.6634,2.6314,2.5955,2.537,2.4636,2.3963,2.3672,2.3158,2.2489,2.2188,2.2027,2.1962,2.1011,2.0789,3.0329,2.969,2.9066,2.9066,2.8427,2.7868,2.7855,2.7297,2.6714,2.6714,2.7284,2.7868,2.7868,2.7802,2.8051,2.8876,2.8247,2.767,2.767,2.767,2.7351,2.6589,2.6533,2.6533,2.6571,2.6571,2.6584,2.6609,2.703,2.7344,2.7369,2.8386,2.8976,2.8976,2.9503,2.9792,2.9792,2.9792,2.9792,2.9792,2.9792,2.9792,2.9792,2.9792,2.9792,2.9792,2.9792,2.9792,2.9792,2.9792,2.9792,2.9624,2.8597,2.8176,2.8004,2.7046,2.6648,2.6976,2.904,2.9702,2.9624,2.9546,2.8131,2.6801,2.8882,2.7279,2.5284,2.7429,2.6438,2.5041,2.6141,2.5557,2.4957,2.6058,2.6318,2.6318,2.6318,2.64,2.6058,2.5041,2.4872,2.4957,2.4957,2.588,2.6883,2.7844,2.8004,2.766,2.6712,2.7471,2.7619,2.6534,2.7347,2.795,2.795,2.7548,2.7247,2.7247,2.6829,2.6181,2.5159,2.5135,2.4227,2.2285,2.3158,2.2638,2.0867,2.1593,2.2027,2.1962,2.1011,2.1078,3.045,3.0133,2.995,2.995,2.9827,2.9766,3.0389,2.9889,2.9317,2.9317,2.9504,2.9628,2.9628,2.9129,2.8748,2.8939,2.7802,2.6782,2.6782,2.6782,2.6714,2.6521,2.6533,2.6697,2.703,2.708,2.7243,2.7657,2.7821,2.8072,2.8486,2.9189,2.9578,2.9578,2.9716,2.9792,2.9792,2.9792,2.9792,2.9792,2.9792,2.9792,2.9792,2.9792,2.9792,2.9792,2.9792,2.9792,2.9792,2.9792,2.9275,2.8597,2.9118,2.8858,2.8176,2.8779,2.8961,2.8961,2.8609,2.8028,2.7221,2.6367,2.5703,2.5378,2.587,2.5452,2.5115,2.6543,2.587,2.4872,2.5126,2.4382,2.3637,2.3887,2.3973,2.3973,2.3973,2.4628,2.5126,2.4872,2.6108,2.7267,2.7267,2.7522,2.7522,2.6964,2.6883,2.7117,2.766,2.7603,2.7032,2.5938,2.5753,2.5601,2.5601,2.6281,2.6683,2.6683,2.731,2.761,2.7309,2.6912,2.6476,2.5937,2.5051,2.4337,2.3902,2.2627,2.2027,2.1962,2.1011,2.0712,3.0837,3.0584,3.0389,3.0718,3.0584,3.0389,3.0896,3.0329,2.9752,2.9752,3.0011,3.0401,3.0675,2.9749,2.9212,2.9841,2.8329,2.704,2.704,2.7233,2.7263,2.6886,2.703,2.7306,2.7607,2.7645,2.7871,2.8423,2.8461,2.8599,2.8913,2.9478,2.9792,2.9792,2.9792,2.9792,2.9792,2.9792,2.9792,2.9792,2.9792,2.9792,2.9792,2.9792,2.9571,2.9113,2.9559,2.9534,2.9106,2.9611,2.9106,2.8176,2.9365,2.8791,2.7522,2.8609,2.8791,2.8291,2.7614,2.6964,2.6472,2.6284,2.5619,2.5031,2.6532,2.5953,2.5126,2.6789,2.6378,2.5546,2.5546,2.5052,2.4553,2.4553,2.4553,2.4723,2.521,2.5462,2.5378,2.4872,2.5368,2.5953,2.5953,2.5953,2.587,2.5797,2.5714,2.613,2.729,2.7117,2.6531,2.5382,2.5396,2.5711,2.6176,2.615,2.6345,2.683,2.6757,2.6451,2.5984,2.5704,2.5338,2.4971,2.4536,2.4326,2.4326,2.3176,2.2868,2.3242,2.1625,2.1076,3.1278,3.097,3.0644,3.1351,3.097,3.045,3.045,2.9766,2.9219,2.9415,2.9941,3.0632,3.1377,3.0347,2.9757,3.0888,2.9251,2.7762,2.755,2.8009,2.8101,2.741,2.777,2.8134,2.821,2.821,2.8448,2.9001,2.9038,2.9038,2.9038,2.9515,2.9792,2.9792,2.9792,2.9792,2.9792,2.9792,2.9792,2.9792,2.9792,2.9792,2.9792,2.9792,2.9258,2.8354,2.9411,2.9258,2.8426,2.9197,2.8949,2.8016,2.8961,2.8131,2.6389,2.7522,2.7279,2.6472,2.6307,2.6307,2.6472,2.7348,2.6356,2.5368,2.8279,2.7116,2.5199,2.7348,2.7116,2.6307,2.6307,2.6141,2.6069,2.6069,2.6069,2.6295,2.7279,2.6707,2.5808,2.4957,2.3963,2.3299,2.3299,2.3299,2.3637,2.4457,2.4702,2.5126,2.6141,2.6389,2.6141,2.5126,2.588,2.6883,2.7844,2.6703,2.6371,2.734,2.6205,2.5094,2.4223,2.3919,2.3426,2.2593,2.3143,2.3492,2.3492,2.3343,2.3743,2.4524,2.2341,2.177,3.1467,3.1409,3.1351,3.1467,3.1409,3.1278,3.1278,3.0644,0.0,3.1646,3.1416,3.1467,3.285,3.229,3.1347,3.0345,2.9279,2.8088,2.6914,2.7196,2.748,2.7352,2.777,2.8285,2.8737,2.8787,2.9026,2.9603,2.9641,2.9641,2.9641,2.9741,2.9792,2.9792,2.9792,2.9792,2.9792,2.9792,2.9792,2.9792,2.9792,2.9792,2.9792,2.9792,2.9714,2.9518,2.9677,2.9695,2.9456,2.8688,2.7775,2.6801,2.6976,2.6295,2.521,2.6378,2.6637,2.64,2.5378,2.5126,2.5126,2.5284,2.5115,2.4872,2.5452,2.5284,2.5041,2.6378,2.5964,2.5126,2.5126,2.4382,2.3724,2.3724,2.3724,2.3724,2.3963,2.38,2.3887,2.4617,2.4617,2.4542,2.4542,2.4542,2.4211,2.3551,2.4211,2.4872,2.5041,2.5891,2.6389,2.6224,2.6389,2.6554,2.6801,2.7359,2.7714,2.7953,2.8548,2.8836,2.8668,2.734,2.6535,2.6389,2.4382,2.3322,2.3322,2.2574,2.2277,2.2431,2.1961,2.185,3.1482,3.1482,3.1482,3.1482,3.1482,3.1482,3.1482,0.0,0.0,3.2258,3.2183,3.2343,3.3752,3.304,0.0,3.1701,2.9982,2.8539,2.811,2.7875,2.7821,2.8109,2.8637,2.9089,2.9352,2.9377,2.949,2.9779,2.9792,2.9792,2.9792,2.9792,2.9792,2.9792,2.9792,2.9792,2.9792,2.9792,2.9792,2.9792,2.9792,2.9792,2.9792,2.9792,2.9512,2.8938,2.9819,2.9899,2.9377,2.9646,2.9174,2.8254,2.8834,2.798,2.6626,2.7824,2.7676,2.6853,2.6264,2.592,2.5714,2.5714,2.4882,2.4125,2.5294,2.5294,2.5041,2.6141,2.6141,2.5546,2.4957,2.4372,2.38,2.3222,2.3551,2.38,2.3222,2.3551,2.3963,2.3877,2.3877,2.3877,2.3877,2.3877,2.3963,2.3963,2.3963,2.4382,2.5546,2.563,2.563,2.563,2.5052,2.4978,2.5546,2.5535,2.6036,2.7197,2.7197,2.7452,2.8051,2.73,2.6921,2.6921,2.5625,2.4946,2.4946,2.3909,2.3429,2.3418,2.2557,2.2207,3.1482,3.1482,3.1482,3.1482,3.1482,3.1482,3.1482,3.1586,3.1928,3.2587,3.2841,3.329,3.4472,3.3726,3.2948,0.0,3.1043,2.9413,2.9482,2.8813,2.8448,2.8875,2.944,2.9792,2.9792,2.9792,2.9792,2.9792,2.9792,2.9792,2.9792,2.9792,2.9792,2.9792,2.9792,2.9792,2.9792,2.9792,2.9792,2.9792,2.9792,2.9894,2.9945,2.9945,2.9397,2.8521,3.0089,3.0126,2.9176,3.0507,3.0538,2.9857,3.0443,2.9665,2.82,2.9071,2.8561,2.7453,2.7453,2.7206,2.688,2.688,2.5476,2.4135,2.5975,2.588,2.54,2.6357,2.6629,2.6485,2.5743,2.5264,2.4667,2.3406,2.3963,2.4457,2.3387,2.3963,2.4542,2.3637,2.3464,2.3551,2.381,2.3637,2.38,2.4713,2.4211,2.4392,2.5975,2.5378,2.4787,2.4787,2.4211,2.4221,2.5126,2.4296,2.4553,2.64,2.563,2.563,2.6801,2.6637,2.6637,2.6801,2.6389,2.6141,2.6141,2.4967,2.4457,2.4372,2.3202,2.2646,3.1482,3.1482,3.1482,3.1482,3.1482,3.1482,3.1482,0.0,3.2617,3.3275,3.3873,3.4517,3.5265,3.529,3.4777,3.3456,3.2227,3.102,2.9658,2.9087,2.8875,2.8925,2.944,2.9792,2.9792,2.9792,2.9792,2.9792,2.9792,2.9792,2.9792,2.9792,2.9792,2.9792,2.9792,2.9792,2.9792,2.9792,2.9792,2.9792,2.9792,3.006,3.056,3.056,3.0163,2.9561,3.0766,3.0614,2.9594,2.9834,2.9857,2.9689,2.8815,2.8287,2.8113,2.8211,2.8177,2.8057,2.8057,2.8023,2.7989,2.7989,2.7115,2.6224,2.6472,2.64,2.649,2.7021,2.7229,2.733,2.7693,2.6682,2.5138,2.3475,2.3963,2.4457,2.3387,2.3963,2.4787,2.4617,2.4617,2.4957,2.5975,2.5305,2.4713,2.4787,2.5546,2.5891,2.5041,2.4872,2.4787,2.4787,2.5641,2.6224,2.6307,2.6224,2.6307,2.6483,2.6389,2.6789,2.7924,2.7046,2.6964,2.7924,2.5953,2.4957,2.4957,2.38,2.3222,2.3212,2.3096,2.3076,3.1482,3.1482,3.1482,3.1482,3.1482,3.1482,3.1482,0.0,3.2706,3.3365,3.4023,3.4681,3.5385,3.5504,3.527,3.4712,3.3483,0.0,3.1525,3.0474,2.9712,2.9479,2.9654,2.9792,2.9792,2.9792,2.9792,2.9792,2.9792,2.9792,2.9792,2.9792,2.9792,2.9792,2.9792,2.9792,2.9792,3.0118,3.0281,3.0294,3.064,3.0877,3.1061,3.1041,3.0931,3.0716,3.154,3.1602,3.1178,3.1588,3.1785,3.1699,3.1246,3.1074,3.1074,3.1074,3.0857,3.0579,3.0579,3.0362,3.0097,3.0097,2.9808,2.9212,2.7866,2.6929,2.6617,2.7506,2.6693,2.5774,2.6743,2.6558,2.5774,2.481,2.4947,2.4875,2.3446,2.3474,2.38,2.38,2.38,2.3887,2.4392,2.4059,2.4049,2.4702,2.4628,2.4553,2.4787,2.4211,2.38,2.38,2.4221,2.4478,2.4478,2.4478,2.4723,2.5462,2.5462,2.5964,2.7116,2.6719,2.6719,2.7128,2.5619,2.4787,2.4787,2.3637,2.3135,2.3135,2.3135,2.3135,3.1482,3.1482,3.1482,3.1482,3.1482,3.1482,0.0,0.0,3.2706,3.3365,3.4023,3.4681,3.5385,3.5504,3.5504,3.5504,0.0,3.3239,3.268,3.1478,3.0403,2.9896,2.9792,2.9792,2.9792,2.9792,2.9792,2.9792,2.9792,2.9792,2.9792,2.9792,2.9792,2.9792,2.9792,2.988,3.003,3.0419,3.0696,3.0846,3.1233,3.15,3.1611,3.1626,3.1553,3.1393,3.2103,3.225,3.1925,3.2732,3.3081,3.3081,3.3081,3.3081,3.3081,3.3081,3.2817,3.2466,3.2466,3.2215,3.1888,3.1888,3.1888,3.1626,3.0055,2.8774,2.7863,2.8195,2.7108,2.5931,2.6323,2.6743,2.6704,2.5529,2.5409,2.5134,2.3653,2.3475,2.3637,2.3637,2.3637,2.3724,2.4059,2.38,2.3877,2.4713,2.4125,2.38,2.4211,2.3637,2.3135,2.3135,2.3135,2.3135,2.3135,2.3135,2.3474,2.4211,2.4296,2.4798,2.5975,2.5975,2.6141,2.6472,2.5378,2.4787,2.4787,2.3637,2.3135,2.3135,2.3135,2.3135,3.1482,3.1482,3.1482,3.1482,3.1482,3.1482,0.0,0.0,3.2706,3.3365,3.4023,3.4681,3.5385,3.5504,3.5504,3.5504,3.4677,0.0,3.2749,3.1815,3.0833,2.9934,2.9792,2.9792,2.9792,2.9792,2.9792,2.9792,2.9792,2.9792,2.9792,2.9792,2.9792,2.9792,2.9792,3.0055,3.0608,3.062,3.0871,3.1386,3.1386,3.1707,3.2218,3.223,3.1816,3.1222,3.2512,3.2364,3.132,3.261,3.3081,3.3081,3.3081,3.3081,3.3081,3.3081,3.3081,3.3068,3.3068,3.3068,3.3056,3.3056,3.3056,3.3056,3.3056,3.2277,3.098,2.9141,2.8924,2.9009,2.736,2.7688,2.7918,2.5045,2.4966,2.5073,2.4048,2.4277,2.4787,2.4787,2.4787,2.5126,2.6307,2.5546,2.4787,2.4787,2.4787,2.4382,2.3222,2.3135,2.3135,2.3135,2.3135,2.3135,2.3135,2.3135,2.3144,2.3135,2.3135,2.3637,2.4787,2.4787,2.5378,2.6472,2.5378,2.4787,2.4787,2.3637,2.3135,2.3135,2.3135,2.3135,3.1482,3.1482,3.1482,3.1482,3.1482,3.1482,3.1482,0.0,3.2706,3.3365,3.4023,3.4681,3.5385,3.5504,3.5504,3.5504,3.4691,3.3671,3.2749,3.1815,3.0833,2.9934,2.9792,2.9792,2.9792,2.9792,2.9792,2.9792,2.9792,2.9792,2.9792,2.9792,2.9792,2.9792,3.0156,3.0444,3.062,3.1336,3.1788,3.1951,3.2353,3.2616,3.284,3.284,3.2694,3.25,3.292,3.2895,3.25,3.292,3.3081,3.3081,3.3081,3.3081,3.3081,3.3081,3.3081,3.3081,3.3081,3.3081,3.3081,3.3081,3.3081,3.2982,3.2052,3.1535,3.0759,2.8591,2.8653,2.9098,2.7774,2.7639,2.7604,2.6423,2.6287,2.5916,2.4177,2.394,2.3997,2.3697,2.3637,2.3714,2.4135,2.3887,2.3637,2.3637,2.3637,2.3551,2.3135,2.3135,2.3135,2.3135,2.3135,2.3135,2.3135,2.3135,2.3135,2.3135,2.3135,2.3222,2.3637,2.3637,2.38,2.4145,2.38,2.3637,2.3637,2.3309,2.3135,2.3135,2.3135,2.3135,0.0,3.1482,3.1482,3.1482,3.1482,0.0,3.1482,3.1795,3.2332,3.2991,3.3649,3.4307,3.4996,3.5325,3.5504,3.5504,3.4691,3.3671,3.2749,3.1815,3.0833,2.9934,2.9792,2.9792,2.9792,2.9792,2.9792,2.9792,2.9792,2.9792,2.9792,2.9792,2.9892,3.0093,3.0432,3.0708,3.0909,3.1775,3.2328,3.2541,3.2905,3.3081,3.3081,3.3081,3.3081,3.3081,3.3081,3.3081,0.0,3.3081,3.3081,3.3081,3.3081,3.3081,3.3081,3.3081,3.3081,3.3081,3.3081,3.3081,3.3081,3.3081,3.3081,3.2982,3.214,3.1223,3.0316,2.9223,2.9131,2.9223,2.8495,2.7955,2.7516,2.7222,2.6651,2.5827,2.4569,2.4014,2.3711,2.3437,2.3252,2.3135,2.3135,2.3135,2.3135,2.3135,2.3135,2.3135,2.3135,2.3135,2.3135,2.3135,2.3135,2.3135,2.3135,2.3135,2.3135,2.3135,2.3135,2.3135,2.3135,2.3135,2.3135,2.3135,2.3135,2.3135,2.3135,2.3135,2.3135,2.3135,2.3135,2.3135,0.0,3.1482,3.1482,3.1482,3.1482,3.1482,0.0,0.0,0.0,3.2377,3.3006,3.3634,3.4274,3.4931,3.5314,3.5279,3.4476,3.3518,3.2593,3.1669,3.0758,2.9934,2.9792,2.9792,2.9792,2.9792,2.9792,2.9792,2.9792,2.9792,2.9792,2.9792,3.003,3.0545,3.0633,3.0922,3.1449,3.2001,3.2541,3.3081,3.3081,3.3081,3.3081,3.3081,3.3081,3.3081,3.3081,3.3081,3.3081,3.3081,3.3081,3.3081,3.3081,3.3081,3.3081,3.3081,3.3081,3.3081,3.3081,3.3081,3.3081,3.3081,3.3081,3.3081,3.3081,3.1512,2.9863,3.0765,3.0226,2.9315,2.9223,2.8319,2.7494,2.7494,2.6239,2.5107,2.5078,2.4414,2.3828,2.3799,2.3437,2.3135,2.3135,2.3135,2.3135,2.3135,2.3135,2.3135,2.3135,2.3135,2.3135,2.3135,2.3135,2.3135,2.3135,2.3135,2.3135,2.3135,2.3135,2.3135,2.3135,2.3135,2.3135,2.3135,2.3135,2.3135,2.3135,2.3135,2.3135,2.3135,2.3135,2.3135,3.1482,0.0,3.1482,3.1482,3.1482,3.1482,0.0,0.0,0.0,0.0,0.0,0.0,3.3325,3.3529,3.3576,3.3323,3.2464,3.1742,3.1536,3.0696,3.0075,2.9869,2.9792,2.9792,2.9792,2.9792,2.9792,2.9792,2.9792,2.9792,2.9792,2.9792,2.9854,2.998,3.0783,3.1474,3.2014,3.2591,3.2943,3.3081,3.3081,3.3081,3.3081,3.3081,3.3081,3.3081,3.3081,3.3081,3.3081,3.3081,3.3081,3.3081,3.3081,3.3081,3.3081,3.3081,3.3081,3.3081,3.3081,3.3081,3.3081,3.3081,3.3081,3.3081,3.3081,3.2711,3.1877,3.0316,2.959,2.8947,2.702,2.638,2.61,2.61,2.5848,2.5488,2.5137,2.4648,2.417,2.3857,2.3437,2.3135,2.3135,2.3135,2.3135,2.3135,2.3135,2.3135,2.3135,2.3135,2.3135,2.3135,2.3135,2.3135,2.3135,2.3135,2.3135,2.3135,2.3135,2.3135,2.3135,2.3135,2.3135,2.3135,2.3135,2.3135,2.3135,2.3135,2.3135,2.3135,2.3135,2.3135,3.1482,3.1482,3.1482,3.1482,3.1482,3.1482,0.0,0.0,0.0,0.0,0.0,0.0,0.0,0.0,0.0,3.2236,3.1424,3.0755,3.0581,3.0139,2.9792,2.9792,2.9792,2.9792,2.9792,2.9792,2.9792,2.9792,2.9792,2.9792,2.9792,2.9792,2.9905,3.0168,3.0972,3.1537,3.1838,3.2667,3.3081,3.3081,3.3081,3.3081,3.3081,3.3081,3.3081,3.3081,3.3081,3.3081,3.3081,3.3081,3.3081,3.3081,3.3081,3.3081,3.3081,3.3081,3.3081,3.3081,3.3081,3.3081,3.3081,3.3081,3.3081,3.2982,3.2426,3.2239,3.1965,3.0586,2.9863,2.9131,2.7757,2.703,2.6572,2.6572,2.611,2.5674,2.543,2.5029,2.459,2.416,2.373,2.3379,2.3174,2.3135,2.3135,2.3135,2.3135,2.3135,2.3135,2.3135,2.3135,2.3135,2.3135,2.3135,2.3135,2.3135,2.3135,2.3135,2.3135,2.3135,2.3135,2.3135,2.3135,2.3135,2.3135,2.3135,2.3135,2.3135,2.3135,2.3135,2.3135,2.3135,3.1482,3.1409,3.1351,3.1467,3.1482,3.1482,0.0,0.0,0.0,0.0,0.0,0.0,0.0,3.076,0.0,3.1308,3.0762,3.0177,2.9871,2.9792,2.9792,2.9792,2.9792,2.9792,2.9792,2.9792,2.9792,2.9792,2.9792,2.9792,2.9792,2.9792,3.0005,3.047,3.0997,3.1311,3.1386,3.2516,3.3081,3.3081,3.3081,3.3081,3.3081,3.3081,3.3056,3.2932,3.2932,3.2932,3.2932,3.2932,3.3043,3.3081,3.3081,3.3081,3.3081,3.3081,3.3081,3.3081,3.3081,3.3081,3.3081,3.3081,3.3081,3.2896,3.1777,3.1311,3.1134,3.0944,3.0045,2.9039,2.8855,2.8038,2.7315,2.7315,2.6476,2.5742,2.5742,2.5381,2.4941,2.4502,2.4072,2.3652,2.3213,2.3135,2.3135,2.3135,2.3135,2.3135,2.3135,2.3135,2.3135,2.3135,2.3135,2.3135,2.3135,2.3135,2.3135,2.3135,2.3135,2.3135,2.3135,2.3135,2.3135,2.3135,2.3135,2.3135,2.3135,2.3135,2.3135,2.3135,2.3135,2.3135,3.1482,3.1029,3.0644,3.1351,3.1482,3.1482,0.0,0.0,0.0,0.0,0.0,0.0,0.0,2.9428,2.8973,2.9305,2.9618,2.9833,2.9779,2.9792,2.9792,2.9792,2.9792,2.9792,2.9792,2.9792,2.9792,2.9792,2.9792,2.9792,2.9792,2.9792,2.9829,2.9917,3.0444,3.0947,3.1386,3.2516,3.3081,3.3081,3.3081,3.3081,3.3081,3.3081,3.2784,3.2339,3.2339,3.2339,3.2339,3.2339,3.2635,3.3081,3.3081,3.3081,3.3081,3.3081,3.3081,3.3081,3.3081,3.3081,3.3081,3.3081,3.3081,3.3068,3.2884,3.2052,3.0944,2.9943,2.8773,2.7589,2.6572,2.61,2.6014,2.6014,2.583,2.5742,2.5742,2.5381,2.4941,2.4502,2.4072,2.3652,2.3213,2.3135,2.3135,2.3135,2.3135,2.3135,2.3135,2.3135,2.3135,2.3135,2.3135,2.3135,2.3135,2.3135,2.3135,2.3135,2.3135,2.3135,2.3135,2.3135,2.3135,2.3135,2.3135,2.3135,2.3135,2.3135,2.3135,2.3135,2.3135,2.3135,3.1482,3.1219,3.0896,3.0896,3.0524,3.0133,3.0133,0.0,0.0,0.0,0.0,0.0,0.0,0.0,2.7646,2.8371,2.9227,2.9792,2.9792,2.9792,2.9792,2.9792,2.9792,2.9792,2.9792,2.9792,2.9792,2.9792,2.9792,2.9792,2.9792,2.9792,2.9792,2.9792,3.0595,3.1148,3.1386,3.2516,3.3081,3.3081,3.3081,3.3081,3.3068,3.2754,3.2471,3.2167,3.1866,3.1782,3.1773,3.2056,3.2339,3.2635,3.2932,3.3081,3.3081,3.3081,3.3081,3.3081,3.3081,3.3081,3.3081,3.3081,3.3081,3.2982,3.2239,3.1223,2.9954,2.8773,2.8049,2.7315,2.6014,2.5742,2.5742,2.5742,2.5742,2.5742,2.5742,2.5576,2.5303,2.4853,2.4424,2.3994,2.3564,2.3291,2.3135,2.3135,2.3135,2.3135,2.3135,2.3135,2.3135,2.3135,2.3135,2.3135,2.3135,2.3135,2.3135,2.3135,2.3135,2.3135,2.3135,2.3135,2.3135,2.3135,2.3135,2.3135,2.3135,2.3135,2.3135,2.3135,2.3135,2.3135,3.1467,3.1351,3.1087,3.045,0.0,2.9504,2.9066,0.0,0.0,0.0,0.0,0.0,0.0,2.7246,2.7118,2.7971,2.9063,2.9792,2.9792,2.9792,2.9792,2.9792,2.9792,2.9792,2.9792,2.9905,2.998,2.998,3.0093,3.0168,3.0168,3.0168,3.0168,3.0168,3.0959,3.1449,3.1587,3.2441,3.2943,3.3081,3.3081,3.3081,3.3056,3.2616,3.2234,3.2027,3.1601,3.1413,3.1455,3.1797,3.2128,3.2475,3.292,3.3081,3.3081,3.3081,3.3081,3.3081,3.3081,3.3081,3.3081,3.3081,3.2896,3.2426,3.15,3.0406,2.9131,2.7955,2.7589,2.7315,2.6014,2.5742,2.5742,2.5742,2.5742,2.5742,2.5742,2.5742,2.5605,2.5156,2.4795,2.4404,2.3887,2.3516,2.3262,2.3154,2.3135,2.3135,2.3135,2.3135,2.3135,2.3135,2.3135,2.3135,2.3135,2.3135,2.3135,2.3135,2.3135,2.3135,2.3135,2.3135,2.3135,2.3135,2.3135,2.3135,2.3135,2.3135,2.3135,2.3135,2.3135,2.3135,3.1278,3.097,3.0389,3.0329,0.0,0.0,2.938,2.9628,0.0,2.9192,0.0,0.0,0.0,2.7888,2.8009,2.8097,2.9063,2.9792,2.9792,2.9792,2.9792,2.9792,2.9792,2.9792,2.9792,3.0256,3.0557,3.0557,3.0997,3.1273,3.1273,3.1273,3.1273,3.1273,3.1348,3.1637,3.2152,3.2227,3.2541,3.3081,3.3081,3.3081,3.3081,3.3031,3.2453,3.143,3.1404,3.1406,3.1406,3.1406,3.2102,3.3056,3.3068,3.3081,3.3081,3.3081,3.3081,3.3081,3.3081,3.3081,3.3081,3.3081,3.2326,3.1311,3.1223,3.0406,2.9131,2.7955,2.7589,2.7315,2.6014,2.5742,2.5742,2.5742,2.5742,2.5742,2.5742,2.5742,2.5605,2.5156,2.5039,2.4756,2.3935,2.3769,2.3603,2.3203,2.3135,2.3135,2.3135,2.3135,2.3135,2.3135,2.3135,2.3135,2.3135,2.3135,2.3135,2.3135,2.3135,2.3135,2.3135,2.3135,2.3135,2.3135,2.3135,2.3135,2.3135,2.3135,2.3135,2.3135,2.3135,2.3135,3.0644,3.0524,3.0147,2.9628,0.0,0.0,0.0,0.0,0.0,2.7604,2.7162,0.0,0.0,2.7797,2.8222,2.8561,2.9277,2.9792,2.9792,2.9792,2.9792,2.9792,2.9792,2.9792,2.9792,3.0294,3.062,3.062,3.1097,3.1386,3.1386,3.1386,3.1248,3.0922,3.1223,3.1486,3.17,3.2039,3.2503,3.3081,3.3081,3.3081,3.3068,3.2726,3.2281,3.1913,3.1556,3.139,3.1443,3.1746,3.2114,3.261,3.2932,3.3081,3.3081,3.3081,3.3081,3.3081,3.3081,3.3081,3.3081,3.3081,3.2239,3.1223,3.1223,2.9863,2.8226,2.7778,2.703,2.6294,2.583,2.5742,2.5742,2.5742,2.5742,2.5742,2.5742,2.5742,2.5684,2.5518,2.5254,2.4961,2.4639,2.4365,2.4121,2.3955,2.3935,2.3935,2.3935,2.3935,2.3828,2.3574,2.3301,2.3135,2.3135,2.3135,2.3135,2.3135,2.3135,2.3135,2.3135,2.3135,2.3135,2.3135,2.3135,2.3135,2.3135,2.3135,2.3135,2.3135,2.3135,2.3135,3.0208,3.0072,2.9766,0.0,0.0,0.0,0.0,0.0,0.0,2.6658,2.6533,2.6697,2.718,2.7733,2.8285,2.8837,2.9415,2.9792,2.9792,2.9792,2.9792,2.9792,2.9792,2.9792,2.9792,3.0444,3.0859,3.0859,3.1524,3.1926,3.1926,3.1926,3.1675,3.1135,3.1461,3.1562,3.1386,3.1938,3.2416,3.2805,3.2993,3.3081,3.3068,3.2676,3.2419,3.2142,3.1776,3.1662,3.1651,3.2044,3.2327,3.25,3.292,3.3081,3.3081,3.3081,3.3081,3.3081,3.3081,3.3081,3.3081,3.3081,3.2239,3.1134,3.0765,2.9223,2.7494,2.7125,2.639,2.5742,2.5742,2.5742,2.5742,2.5742,2.5742,2.5742,2.5742,2.5742,2.5742,2.5742,2.5488,2.5234,2.5088,2.4814,2.458,2.4443,2.4414,2.4414,2.4414,2.4414,2.4307,2.4014,2.3721,2.3486,2.3359,2.335,2.3291,2.3144,2.3135,2.3135,2.3135,2.3135,2.3135,2.3135,2.3135,2.3135,2.3135,2.3135,2.3135,2.3135,2.3135,2.3135,3.0011,2.9628,0.0,0.0,0.0,0.0,0.0,0.0,2.7484,2.6658,2.6533,2.6697,2.718,2.7733,2.8285,2.8837,2.9415,2.9792,2.9792,2.9792,2.9792,2.9792,2.9792,2.9792,2.9792,3.0758,3.1386,3.1386,3.2428,3.3056,3.3056,3.3056,3.2792,3.2215,3.219,3.1938,3.1386,3.1926,3.2202,3.2227,3.2805,3.3081,3.3081,3.3081,3.2771,3.2204,3.2204,3.2204,3.2204,3.2204,3.2598,3.3081,3.3081,3.3081,3.3081,3.3081,3.3081,3.3081,3.3081,3.3081,3.3081,3.3081,3.2239,3.0944,2.9772,2.8588,2.7315,2.6014,2.5742,2.5742,2.5742,2.5742,2.5742,2.5742,2.5742,2.5742,2.5742,2.5742,2.5742,2.5742,2.5742,2.5596,2.5146,2.5078,2.4922,2.4492,2.4424,2.4424,2.4424,2.4424,2.4424,2.4424,2.4414,2.4248,2.3828,2.3799,2.3613,2.3184,2.3154,2.3144,2.3135,2.3144,2.3144,2.3144,2.3154,2.3154,2.3154,2.3154,2.3154,2.3144,2.3144,2.3144,2.8427,0.0,0.0,0.0,0.0,0.0,0.0,0.0,0.0,0.0,2.6533,2.6697,2.718,2.7733,2.8285,2.8837,2.9415,2.9792,2.9792,2.9792,2.9792,2.9792,2.9792,2.9792,2.9792,3.0432,3.0846,3.0846,3.1499,3.1888,3.1888,3.1888,3.165,3.111,3.1085,3.1009,3.0846,3.1373,3.1825,3.2227,3.2805,3.3081,3.3081,3.3081,3.3031,3.2796,3.2796,3.2796,3.2796,3.2796,3.292,3.3081,3.3081,3.3081,3.3081,3.3081,3.3081,3.3081,3.3081,3.3081,3.3081,3.3081,3.1689,2.9863,2.9498,2.7945,2.6197,2.583,2.5742,2.5742,2.5742,2.5742,2.5742,2.5742,2.5742,2.5742,2.5742,2.5742,2.5742,2.5742,2.5742,2.5693,2.5566,2.5537,2.5498,2.5361,2.5342,2.5342,2.5342,2.5068,2.4873,2.4873,2.46,2.4365,2.4238,2.4228,2.417,2.4043,2.4033,2.3769,2.3164,2.3437,2.3594,2.3594,2.3887,2.4033,2.4033,2.4033,2.3887,2.3594,2.3594,2.3437,2.7802,0.0,0.0,0.0,0.0,2.6658,2.7095,0.0,0.0,0.0,2.6533,2.6697,2.718,2.7733,2.8285,2.8837,2.9415,2.9792,2.9792,2.9792,2.9792,2.9792,2.9792,2.9792,2.9792,3.0294,3.062,3.062,3.1097,3.1386,3.1386,3.1386,3.1148,3.0633,3.062,3.0507,3.0294,3.1022,3.1549,3.1888,3.2692,3.3081,3.3081,3.3081,3.3081,3.3081,3.3081,3.3081,3.3081,3.3081,3.3081,3.3081,3.3081,3.3081,3.3081,3.3081,3.3081,3.3081,3.3081,3.3081,3.3081,3.3081,3.1789,3.0045,2.959,2.8038,2.639,2.583,2.5742,2.5742,2.5742,2.5742,2.5742,2.5742,2.5742,2.5742,2.5742,2.5742,2.5742,2.5742,2.5742,2.5742,2.5742,2.5742,2.5742,2.5742,2.5742,2.5742,2.5742,2.5508,2.5332,2.5332,2.5098,2.4863,2.4687,2.4678,2.46,2.4424,2.4414,2.418,2.3672,2.3896,2.4043,2.4043,2.4287,2.4414,2.4414,2.4414,2.4287,2.4043,2.4043,2.3896,2.7868,0.0,0.0,0.0,0.0,0.0,2.6533,2.6533,2.6533,2.6533,2.6533,2.6615,2.7118,2.7708,2.8273,2.8775,2.9377,2.9792,2.9792,2.9792,2.9792,2.9792,2.9792,2.9792,2.9792,3.0244,3.0545,3.0545,3.0984,3.1248,3.1248,3.1248,3.1035,3.0557,3.0545,3.0306,2.9792,3.0809,3.1348,3.1399,3.2478,3.3031,3.3081,3.3081,3.3081,3.3081,3.3081,3.3081,3.3081,3.3081,3.3081,3.3081,3.3081,3.3081,3.3081,3.3081,3.3081,3.3081,3.3081,3.3081,3.3081,3.3081,3.2239,3.0944,2.9772,2.8588,2.7305,2.611,2.5742,2.5742,2.5742,2.5742,2.5742,2.5742,2.5742,2.5742,2.5742,2.5742,2.5742,2.5742,2.5742,2.5742,2.5742,2.5742,2.5742,2.5742,2.5742,2.5742,2.5742,2.5742,2.5742,2.5742,2.5742,2.5566,2.5166,2.5127,2.4961,2.456,2.4541,2.4541,2.4541,2.4492,2.4473,2.4473,2.4512,2.4541,2.4541,2.4541,2.4512,2.4473,2.4473,2.4453,0.0,2.6658,0.0,0.0,2.6533,2.6533,2.6533,2.6533,2.6533,2.6533,2.6533,2.6559,2.6615,2.7444,2.8147,2.826,2.9126,2.9792,2.9792,2.9792,2.9792,2.9792,2.9792,2.9792,2.9792,2.9892,2.9967,2.9967,3.008,3.0131,3.0131,3.0131,3.008,2.998,2.9967,2.9917,2.9792,3.0444,3.0984,3.1399,3.2077,3.2641,3.3081,3.3081,3.3081,3.3081,3.3081,3.3081,3.3081,3.3081,3.3081,3.3081,3.3081,3.3081,3.3081,3.3081,3.3081,3.3081,3.3081,3.3081,3.3081,3.3081,3.2239,3.0944,2.9772,2.8588,2.7305,2.611,2.5742,2.5742,2.5742,2.5742,2.5742,2.5742,2.5742,2.5742,2.5742,2.5742,2.5742,2.5742,2.5742,2.5742,2.5742,2.5742,2.5742,2.5742,2.5742,2.5742,2.5742,2.5742,2.5742,2.5742,2.5742,2.5693,2.5605,2.5596,2.5557,2.5459,2.5459,2.5459,2.5459,2.5117,2.4922,2.4922,2.5273,2.5459,2.5459,2.5459,2.5273,2.4922,2.4922,2.4746,0.0,0.0,0.0,0.0,0.0,2.6533,2.6533,2.6533,2.6533,2.6533,2.6533,2.6533,2.6533,2.7143,2.7795,2.8059,2.8825,2.9478,2.9754,2.9792,2.9792,2.9792,2.9792,2.9792,2.9792,2.9792,2.9792,2.9792,2.9792,2.9792,2.9792,2.9792,2.9792,2.9792,2.9792,2.9792,2.9792,3.0331,3.0758,3.1022,3.1562,3.2114,3.2667,3.2955,3.3081,3.3081,3.3081,3.3081,3.3081,3.3081,3.3081,3.3081,3.3081,3.3081,3.3081,3.3081,3.3081,3.3081,3.3081,3.3081,3.3081,3.3081,3.2239,3.1033,3.0496,2.9407,2.8226,2.6935,2.6572,2.6476,2.583,2.5742,2.5742,2.5742,2.5742,2.5742,2.5742,2.5742,2.5742,2.5742,2.5742,2.5742,2.5742,2.5742,2.5742,2.5742,2.5742,2.5742,2.5742,2.5742,2.5742,2.5742,2.5742,2.5742,2.5742,2.5742,2.5742,2.5742,2.5742,2.5742,2.5742,2.5518,2.5391,2.5391,2.5615,2.5742,2.5742,2.5742,2.5615,2.5391,2.5391,2.5264,0.0,0.0,0.0,0.0,2.6533,0.0,2.6533,2.6533,2.6533,2.6533,2.6533,2.6533,2.6533,2.6917,2.7431,2.7896,2.8511,2.9089,2.9578,2.9729,2.9792,2.9792,2.9792,2.9792,2.9792,2.9792,2.9792,2.9792,2.9792,2.9792,2.9792,2.9792,2.9792,2.9792,2.9792,2.9792,2.9792,3.0244,3.052,3.062,3.1135,3.1625,3.2089,3.2667,3.298,3.3081,3.3081,3.3081,3.3081,3.3081,3.3081,3.3081,3.3081,3.3081,3.3081,3.3081,3.3081,3.3081,3.3081,3.3081,3.3081,3.3081,3.2426,3.15,3.1311,3.0496,2.9407,2.8049,2.7589,2.7315,2.6014,2.5742,2.5742,2.5742,2.5742,2.5742,2.5742,2.5742,2.5742,2.5742,2.5742,2.5742,2.5742,2.5742,2.5742,2.5742,2.5742,2.5742,2.5742,2.5742,2.5742,2.5742,2.5742,2.5742,2.5742,2.5742,2.5742,2.5742,2.5742,2.5742,2.5742,2.5742,2.5742,2.5742,2.5742,2.5742,2.5742,2.5742,2.5742,2.5742,2.5742,2.5742,0.0,0.0,0.0,0.0,2.6533,2.6533,0.0,0.0,2.6533,2.6533,2.6533,2.6533,2.6533,2.6917,2.7306,2.7381,2.826,2.895,2.9038,2.9478,2.9792,2.9792,2.9792,2.9792,2.9792,2.9792,2.9792,2.9792,2.9792,2.9792,2.9792,2.9792,2.9792,2.9792,2.9792,2.9792,2.9792,2.9867,3.0143,3.062,3.1135,3.1436,3.1524,3.2077,3.2604,3.3081,3.3081,3.3081,3.3081,3.3081,3.3081,3.3081,3.3081,3.3081,3.3081,3.3081,3.3081,3.3081,3.3081,3.3081,3.3081,3.3081,3.2982,3.2612,3.15,3.1134,3.0496,2.8226,2.7589,2.7315,2.6014,2.5742,2.5742,2.5742,2.5742,2.5742,2.5742,2.5742,2.5742,2.5742,2.5742,2.5742,2.5742,2.5742,2.5742,2.5742,2.5742,2.5742,2.5742,2.5742,2.5742,2.5742,2.5742,2.5742,2.5742,2.5742,2.5742,2.5742,2.5742,2.5742,2.5742,2.5742,2.5742,2.5742,2.5742,2.5742,2.5742,2.5742,2.5742,2.5742,2.5742,2.5742,2.6501,0.0,0.0,0.0,2.6533,2.6533,2.6533,2.6533,2.6533,2.6533,2.6533,2.6533,2.6533,2.6653,2.6917,2.7231,2.7695,2.8109,2.8423,2.895,2.9315,2.9315,2.9591,2.9792,2.9792,2.9792,2.9792,2.9792,2.9792,2.9792,2.9792,2.9792,2.9792,2.9792,2.9792,2.9792,2.9792,2.9792,2.9917,3.0168,3.0696,3.0959,3.0972,3.1512,3.2081,3.2623,3.2932,3.2746,3.2068,3.2784,3.2648,3.2007,3.2047,3.2043,3.2062,3.2077,3.2052,3.2152,3.2884,3.3081,3.3081,3.3081,3.3081,3.2982,3.2426,3.1777,3.0855,2.9131,2.8132,2.7315,2.6014,2.5742,2.5742,2.5742,2.5742,2.5742,2.5742,2.5742,2.5742,2.5742,2.5742,2.5742,2.5742,2.5742,2.5742,2.5742,2.5742,2.5742,2.5742,2.5742,2.5742,2.5742,2.5742,2.5742,2.5742,2.5742,2.5742,2.5742,2.5742,2.5742,2.5742,2.5742,2.5742,2.5742,2.5742,2.5742,2.5742,2.5742,2.5742,2.5742,2.5742,2.5742,0.0,0.0,0.0,2.6533,2.6533,2.6533,0.0,2.6533,2.6533,2.6533,2.6533,2.6533,2.6533,2.6533,2.6659,2.7005,2.7193,2.7419,2.7846,2.8373,2.8725,2.8725,2.9227,2.9578,2.9578,2.9704,2.9792,2.9792,2.9792,2.9792,2.9792,2.9792,2.9792,2.9792,2.9792,2.9792,2.9792,2.9792,2.9792,2.9792,3.0218,3.0407,3.0419,3.0947,3.1385,3.1866,3.2584,3.2327,3.1516,3.2611,3.2364,3.1184,3.1591,3.1498,3.1272,3.1544,3.1709,3.1777,3.2797,3.3081,3.3081,3.3081,3.3081,3.3081,3.3081,3.2239,3.0944,2.9761,2.8495,2.7315,2.6014,2.5742,2.5742,2.5742,2.5742,2.5742,2.5742,2.5742,2.5742,2.5742,2.5742,2.5742,2.5742,2.5742,2.5742,2.5742,2.5742,2.5742,2.5742,2.5742,2.5742,2.5742,2.5742,2.5742,2.5742,2.5742,2.5742,2.5742,2.5742,2.5742,2.5742,2.5742,2.5742,2.5742,2.5742,2.5742,2.5742,2.5742,2.5742,2.5742,2.5742,2.5742,0.0,2.6533,0.0,2.6533,2.6533,0.0,2.6533,2.6533,2.6533,2.6533,2.6533,2.6533,2.6533,2.6533,2.6533,2.6571,2.6942,2.7293,2.7318,2.7795,2.8147,2.8147,2.8637,2.8976,2.8976,2.9465,2.9792,2.9792,2.9792,2.9792,2.9792,2.9792,2.9792,2.9792,2.9792,2.9792,2.9792,2.9792,2.9792,2.9792,2.9829,2.9829,2.9854,3.0407,3.0683,3.0716,3.1804,3.2204,3.2167,3.2881,3.2374,3.1332,3.2549,3.2292,3.1343,3.258,3.3007,3.2982,3.3081,3.3081,3.3081,3.3081,3.3081,3.3081,3.3081,3.2239,3.0944,2.9761,2.8495,2.7315,2.6014,2.5742,2.5742,2.5742,2.5742,2.5742,2.5742,2.5742,2.5742,2.5742,2.5742,2.5742,2.5742,2.5742,2.5742,2.5742,2.5742,2.5742,2.5742,2.5742,2.5742,2.5742,2.5742,2.5742,2.5742,2.5742,2.5742,2.5742,2.5742,2.5742,2.5742,2.5742,2.5742,2.5742,2.5742,2.5742,2.5742,2.5742,2.5742,2.5742,2.5742,2.5742,0.0,0.0,0.0,2.6533,2.6533,2.6533,2.6533,2.6533,2.6533,2.6533,2.6533,2.6533,2.6533,2.6533,2.6533,2.6533,2.6697,2.6753,2.6753,2.7231,2.7582,2.7582,2.8059,2.8398,2.8398,2.89,2.9239,2.9239,2.9578,2.9792,2.9792,2.9792,2.9792,2.9792,2.9792,2.9792,2.9792,2.9792,2.9792,2.9792,2.9792,2.9792,2.9804,2.9993,3.0093,3.0131,3.0835,3.1119,3.1112,3.214,3.2042,3.1271,3.1733,3.1579,3.1262,3.1739,3.1878,3.1986,3.2822,3.3081,3.3081,3.3081,3.2525,3.1865,3.1865,3.0496,2.8773,2.8412,2.7305,2.6294,2.583,2.5742,2.5742,2.5742,2.5742,2.5742,2.5742,2.5742,2.5742,2.5742,2.5742,2.5742,2.5742,2.5742,2.5742,2.5742,2.5742,2.5742,2.5742,2.5742,2.5742,2.5742,2.5742,2.5742,2.5742,2.5742,2.5742,2.5742,2.5742,2.5742,2.5742,2.5742,2.5742,2.5742,2.5742,2.5742,2.5742,2.5742,2.5742,2.5742,2.5742,2.5742,2.6063,0.0,0.0,0.0,2.6533,2.6533,2.6533,2.6533,2.6533,2.6533,2.6533,2.6533,2.6533,2.6533,2.6533,2.6533,2.6533,2.6533,2.6533,2.6848,2.7005,2.7005,2.7494,2.7821,2.7821,2.8335,2.8737,2.8913,2.9289,2.9591,2.9779,2.9792,2.9792,2.9792,2.9792,2.9792,2.9792,2.9792,2.9792,2.9792,2.9792,2.9792,2.9792,2.9792,2.9792,2.9817,3.0181,3.0381,3.0579,3.1759,3.1724,3.1002,3.162,3.1577,3.1283,3.1668,3.1812,3.1986,3.2822,3.2822,3.2487,3.2438,3.1601,3.0586,3.0586,2.9223,2.7589,2.7589,2.6668,2.5742,2.5742,2.5742,2.5742,2.5742,2.5742,2.5742,2.5742,2.5742,2.5742,2.5742,2.5742,2.5742,2.5742,2.5742,2.5742,2.5742,2.5742,2.5742,2.5742,2.5742,2.5742,2.5742,2.5742,2.5742,2.5742,2.5742,2.5742,2.5742,2.5742,2.5742,2.5742,2.5742,2.5742,2.5742,2.5742,2.5742,2.5742,2.5742,2.5742,2.5742,2.5742,2.5742,0.0,0.0,0.0,0.0,2.6533,2.6533,2.6533,2.6533,2.6533,2.6533,2.6533,2.6533,2.6533,2.6533,2.6533,2.6533,2.6533,2.6533,2.6533,2.6533,2.6533,2.6533,2.6929,2.7256,2.7256,2.7758,2.8298,2.8837,2.89,2.9151,2.9729,2.9779,2.9792,2.9792,2.9792,2.9792,2.9792,2.9792,2.9792,2.9792,2.9792,2.9792,2.9792,2.9792,2.9792,2.9792,2.9792,3.0093,3.067,3.1738,3.1514,3.0637,3.2352,3.2327,3.1369,3.2635,3.3081,3.3081,3.3093,3.225,3.121,3.1169,3.0406,2.9407,2.9407,2.8495,2.7494,2.7494,2.6668,2.5742,2.5742,2.5742,2.5742,2.5742,2.5742,2.5742,2.5742,2.5742,2.5742,2.5742,2.5742,2.5742,2.5742,2.5742,2.5742,2.5742,2.5742,2.5742,2.5742,2.5742,2.5742,2.5742,2.5742,2.5742,2.5742,2.5742,2.5742,2.5742,2.5742,2.5742,2.5742,2.5742,2.5742,2.5742,2.5742,2.5742,2.5742,2.5742,2.5742,2.5742,2.5742,2.5742,2.5385,0.0,0.0,0.0,0.0,0.0,2.6533,2.6533,2.6533,2.6533,2.6533,2.6533,2.6533,2.6533,2.6533,2.6533,2.6533,2.6533,2.6533,2.6533,2.6533,2.6533,2.6659,2.6691,2.6691,2.718,2.757,2.772,2.8109,2.8574,2.9139,2.9566,2.9792,2.9792,2.9792,2.9792,2.9792,2.9792,2.9792,2.9792,2.9792,2.9792,2.9792,2.9792,2.9792,2.9792,2.9792,2.988,3.0068,3.0771,3.1294,3.1761,3.2216,3.2487,3.2623,3.2932,3.3081,3.2934,3.2051,3.2067,3.2388,3.1512,3.0406,2.9407,2.9407,2.7945,2.6197,2.6197,2.6014,2.5742,2.5742,2.5742,2.5742,2.5742,2.5742,2.5742,2.5742,2.5742,2.5742,2.5742,2.5742,2.5742,2.5742,2.5742,2.5742,2.5742,2.5742,2.5742,2.5742,2.5742,2.5742,2.5742,2.5742,2.5742,2.5742,2.5742,2.5742,2.5742,2.5742,2.5742,2.5742,2.5742,2.5742,2.5742,2.5742,2.5742,2.5742,2.5742,2.5742,2.5742,2.5742,2.5742,2.4757,2.5259,2.5674,2.6013,0.0,0.0,2.6533,2.6533,2.6533,2.6533,2.6533,2.6533,2.6533,2.6533,2.6533,2.6533,2.6533,2.6533,2.6533,2.6533,2.6533,2.6533,2.6533,2.6533,2.6533,2.6753,2.703,2.7268,2.7582,2.8009,2.8561,2.9126,2.9428,2.9428,2.9666,2.9792,2.9792,2.9792,2.9792,2.9792,2.9792,2.9792,2.9792,2.9792,2.9792,2.9792,2.9792,2.9792,2.9817,3.0143,3.0735,3.1555,3.2054,3.245,3.2771,3.3043,3.3081,3.302,3.2256,3.1776,3.1415,3.0652,2.9306,2.7851,2.7851,2.6839,2.5742,2.5742,2.5742,2.5742,2.5742,2.5742,2.5742,2.5742,2.5742,2.5742,2.5742,2.5742,2.5742,2.5742,2.5742,2.5742,2.5742,2.5742,2.5742,2.5742,2.5742,2.5742,2.5742,2.5742,2.5742,2.5742,2.5742,2.5742,2.5742,2.5742,2.5742,2.5742,2.5742,2.5742,2.5742,2.5742,2.5742,2.5742,2.5742,2.5742,2.5742,2.5742,2.5742,2.5742,2.5742,2.5742,0.0,0.0,0.0,2.5498,2.5937,0.0,2.6433,2.6483,2.6533,2.6533,2.6533,2.6533,2.6533,2.6533,2.6533,2.6533,2.6533,2.6533,2.6533,2.6533,2.6533,2.6533,2.6533,2.6533,2.6533,2.6533,2.6666,2.7155,2.7256,2.7494,2.7996,2.8536,2.8837,2.8837,2.9402,2.9691,2.9691,2.9767,2.9792,2.9792,2.9792,2.9792,2.9792,2.9792,2.9792,2.9792,2.9792,2.9792,2.9792,2.9792,3.0118,3.0666,3.1717,3.2105,3.2314,3.2895,3.3081,3.3081,3.2797,3.1337,2.9521,2.9293,2.7681,2.5897,2.5917,2.583,2.5742,2.5742,2.5742,2.5742,2.5742,2.5742,2.5742,2.5742,2.5742,2.5742,2.5742,2.5742,2.5742,2.5742,2.5742,2.5742,2.5742,2.5742,2.5742,2.5742,2.5742,2.5742,2.5742,2.5742,2.5742,2.5742,2.5742,2.5742,2.5742,2.5742,2.5742,2.5742,2.5742,2.5742,2.5742,2.5742,2.5742,2.5742,2.5742,2.5742,2.5742,2.5742,2.5742,2.5742,2.5742,2.5742,2.3866,2.4155,2.4418,2.4858,2.5372,0.0,2.5774,2.6126,2.6533,2.6533,2.6533,2.6533,2.6533,2.6533,2.6533,2.6533,2.6533,2.6533,2.6533,2.6533,2.6533,2.6533,2.6533,2.6533,2.6533,2.6533,2.6571,2.6615,2.703,2.7331,2.7444,2.7959,2.8273,2.8273,2.8812,2.9101,2.9101,2.9566,2.9792,2.9792,2.9792,2.9792,2.9792,2.9792,2.9792,2.9792,2.9792,2.9792,2.9792,2.9792,3.0118,3.0683,3.1292,3.1826,3.2314,3.2895,3.3081,3.2797,3.0777,3.047,3.0489,2.8567,2.762,2.7254,2.7274,2.6476,2.5742,2.5742,2.5742,2.5742,2.5742,2.5742,2.5742,2.5742,2.5742,2.5742,2.5742,2.5742,2.5742,2.5742,2.5742,2.5742,2.5742,2.5742,2.5742,2.5742,2.5742,2.5742,2.5742,2.5742,2.5742,2.5742,2.5742,2.5742,2.5742,2.5742,2.5742,2.5742,2.5742,2.5742,2.5742,2.5742,2.5742,2.5742,2.5742,2.5742,2.5742,2.5742,2.5742,2.5742,2.5742,2.5742,2.3489,2.3778,2.4067,2.4343,2.4808,0.0,0.0,2.5636,2.6025,2.6025,2.6264,2.6533,2.6533,2.6533,2.6533,2.6533,2.6533,2.6533,2.6533,2.6533,2.6533,2.6533,2.6533,2.6533,2.6533,2.6533,2.6533,2.6533,2.6716,2.6866,2.6866,2.7394,2.7695,2.7695,2.8235,2.8649,2.8925,2.9214,2.9503,2.9792,2.9792,2.9792,2.9792,2.9792,2.9792,2.9792,2.9792,2.9792,2.9792,2.9792,2.9955,3.0256,3.0796,3.1354,3.1863,3.2424,3.2796,3.2884,3.1701,3.0814,3.0143,2.8934,2.7624,2.6662,2.6638,2.6197,2.5742,2.5742,2.5742,2.5742,2.5742,2.5742,2.5742,2.5742,2.5742,2.5742,2.5742,2.5742,2.5742,2.5742,2.5742,2.5742,2.5742,2.5742,2.5742,2.5742,2.5742,2.5742,2.5742,2.5742,2.5742,2.5742,2.5742,2.5742,2.5742,2.5742,2.5742,2.5742,2.5742,2.5742,2.5742,2.5742,2.5742,2.5742,2.5742,2.5742,2.5742,2.5742,2.5742,2.5742,2.5742,2.5742,2.3078,2.3477,2.3841,2.3841,2.4255,2.4669,0.0,0.0,0.0,2.5448,2.59,2.6302,2.6302,2.6445,2.6496,2.6382,2.6389,2.6483,2.6314,2.6458,2.6533,2.6533,2.6533,2.6533,2.6533,2.6533,2.6533,2.6533,2.6533,2.6533,2.6533,2.6879,2.713,2.713,2.7657,2.816,2.8612,2.8825,2.9164,2.9628,2.9741,2.9792,2.9792,2.9792,2.9792,2.9792,2.9792,2.9792,2.9792,2.9792,2.9792,2.9842,3.0407,3.0871,3.1348,3.194,3.2523,3.2907,3.2771,3.138,2.967,2.9219,2.7558,2.5742,2.5742,2.5742,2.5742,2.5742,2.5742,2.5742,2.5742,2.5742,2.5742,2.5742,2.5742,2.5742,2.5742,2.5742,2.5742,2.5742,2.5742,2.5742,2.5742,2.5742,2.5742,2.5742,2.5742,2.5742,2.5742,2.5742,2.5742,2.5742,2.5742,2.5742,2.5742,2.5742,2.5742,2.5742,2.5742,2.5742,2.5742,2.5742,2.5742,2.5742,2.5742,2.5742,2.5742,2.5742,2.5742,2.5742,2.5742,2.5742,2.3078,2.3128,2.3226,2.3226,2.3665,2.4092,2.4092,0.0,2.4908,2.4908,0.0,2.5686,2.5686,0.0,0.0,2.5774,2.6126,2.6276,2.5774,2.6138,2.6533,2.6533,2.6533,2.6533,2.6533,2.6533,2.6533,2.6533,2.6533,2.6533,2.6533,2.6584,2.6622,2.6622,2.708,2.7406,2.7469,2.8436,2.8963,2.9038,2.9553,2.9792,2.9792,2.9792,2.9792,2.9792,2.9792,2.9792,2.9792,2.9792,2.9792,2.9842,3.0407,3.0658,3.0834,3.1805,3.2212,3.2204,3.1626,3.1184,3.0664,2.8528,2.6825,2.5742,2.5742,2.5742,2.5742,2.5742,2.5742,2.5742,2.5742,2.5742,2.5742,2.5742,2.5742,2.5742,2.5742,2.5742,2.5742,2.5742,2.5742,2.5742,2.5742,2.5742,2.5742,2.5742,2.5742,2.5742,2.5742,2.5742,2.5742,2.5742,2.5742,2.5742,2.5742,2.5742,2.5742,2.5742,2.5742,2.5742,2.5742,2.5742,2.5742,2.5742,2.5742,2.5742,2.5742,2.5742,2.5742,2.5742,2.5742,2.5742,2.3078,2.2763,2.2506,2.3005,2.2936,2.2923,2.3367,2.3941,2.4343,2.4343,0.0,0.0,0.0,0.0,0.0,0.0,2.5799,2.5988,2.6088,2.637,2.6533,2.6533,2.6533,2.6533,2.6533,2.6533,2.6533,2.6533,2.6533,2.6533,2.6533,2.6533,2.6533,2.6533,2.6747,2.6967,2.7281,2.7745,2.8298,2.8925,2.9176,2.9465,2.9792,2.9792,2.9792,2.9792,2.9792,2.9792,2.9792,2.9792,2.9792,2.9817,3.0043,3.0331,3.067,3.1122,3.148,3.1701,3.1378,3.087,2.9855,2.7492,2.594,2.4927,2.4967,2.4985,2.4956,2.4915,2.4971,2.4971,2.4971,2.4971,2.5029,2.5293,2.5352,2.542,2.5684,2.5742,2.5742,2.5742,2.5742,2.5742,2.5742,2.5742,2.5742,2.5742,2.5742,2.5742,2.5742,2.5742,2.5742,2.5742,2.5742,2.5742,2.5742,2.5742,2.5742,2.5742,2.5742,2.5742,2.5742,2.5742,2.5742,2.5742,2.5742,2.5742,2.5742,2.5742,2.5742,2.5742,2.5742,2.5742,2.3078,2.2689,2.2384,2.2944,2.2628,2.2384,2.2944,2.3268,2.343,2.343,2.3673,0.0,0.0,0.0,2.4271,2.4703,0.0,2.5339,2.5611,2.6115,2.6533,2.6533,2.6533,2.6533,2.6533,2.6533,2.6533,2.6533,2.6533,2.6533,2.6533,2.6533,2.6533,2.6533,2.6533,2.6722,2.7055,2.7205,2.7682,2.8486,2.8787,2.9151,2.9566,2.9716,2.9792,2.9792,2.9792,2.9792,2.9792,2.9792,2.9792,2.9792,2.9792,3.0043,3.0407,3.0557,3.0859,3.1223,3.1372,3.0394,2.882,2.6791,2.5339,2.4412,2.4417,2.4404,2.4375,2.4351,2.4414,2.4414,2.4414,2.4414,2.4492,2.4814,2.4893,2.501,2.5459,2.5557,2.5596,2.5713,2.5742,2.5742,2.5742,2.5742,2.5742,2.5742,2.5742,2.5742,2.5742,2.5742,2.5742,2.5742,2.5742,2.5742,2.5742,2.5742,2.5742,2.5742,2.5742,2.5742,2.5742,2.5742,2.5742,2.5742,2.5742,2.5742,2.5742,2.5742,2.5742,2.5742,2.5742,2.5742,2.3078,2.3065,2.3078,2.3065,2.3065,2.3078,2.3065,2.2519,2.1963,2.1963,2.173,2.175,2.2609,2.2483,2.2388,2.2716,2.3664,0.0,0.0,2.5277,2.6533,2.6533,2.6533,2.6533,2.6533,2.6533,2.6533,2.6533,2.6533,2.6533,2.6533,2.6533,2.6533,2.6533,2.6533,2.6533,2.6559,2.7017,2.7306,2.7344,2.8411,2.8938,2.8976,2.9528,2.9792,2.9792,2.9792,2.9792,2.9792,2.9792,2.9792,2.9792,2.9792,2.9804,2.988,3.0419,3.062,3.0708,3.1223,2.9913,2.7759,2.6626,2.542,2.4404,2.4382,2.4404,2.4352,2.4365,2.4414,2.4414,2.4414,2.4414,2.4424,2.4434,2.4443,2.456,2.5,2.5088,2.5215,2.5654,2.5742,2.5742,2.5742,2.5742,2.5742,2.5742,2.5742,2.5742,2.5742,2.5742,2.5742,2.5742,2.5742,2.5742,2.5742,2.5742,2.5742,2.5742,2.5742,2.5742,2.5742,2.5742,2.5742,2.5742,2.5742,2.5742,2.5742,2.5742,2.5742,2.5742,2.5742,2.5742,2.1479,2.1026,2.0707,2.129,2.1026,2.0707,2.129,2.1227,2.1049,2.1049,2.0918,2.0967,2.1236,2.1243,2.1271,2.1758,2.2134,2.2524,0.0,2.4495,2.5734,2.6383,2.6533,2.6533,2.6533,2.6533,2.6533,2.6533,2.6533,2.6533,2.6533,2.6533,2.6533,2.6533,2.6533,2.6533,2.6533,2.671,2.6917,2.7293,2.7657,2.8222,2.8938,2.9126,2.9428,2.9792,2.9792,2.9792,2.9792,2.9792,2.9792,2.9792,2.9792,2.9792,2.9817,2.9993,3.0068,3.0093,3.0269,2.8898,2.6925,2.6552,2.5073,2.3555,2.3585,2.3555,2.3575,2.3555,2.3564,2.3564,2.3564,2.3564,2.3643,2.3935,2.4004,2.4121,2.4541,2.4863,2.5117,2.5264,2.5537,2.5742,2.5742,2.5742,2.5742,2.5742,2.5742,2.5742,2.5742,2.5742,2.5742,2.5742,2.5742,2.5742,2.5742,2.5742,2.5742,2.5742,2.5742,2.5742,2.5742,2.5742,2.5742,2.5742,2.5742,2.5742,2.5742,2.5742,2.5742,2.5742,2.5742,2.5742,2.059,2.0204,1.989,2.0462,2.0204,1.9879,2.0462,2.0333,2.0139,2.0139,1.9879,1.9748,2.0074,1.9879,1.9921,2.0555,2.0808,2.1475,0.0,2.3886,2.4876,2.6058,2.6395,2.6533,2.6533,2.6533,2.6533,2.6533,2.6533,2.6533,2.6533,2.6533,2.6533,2.6533,2.6533,2.6533,2.6533,2.6533,2.664,2.6992,2.7193,2.7657,2.8348,2.875,2.9139,2.9503,2.9704,2.9792,2.9792,2.9792,2.9792,2.9792,2.9792,2.9792,2.9792,2.9792,2.9792,2.9714,2.9365,2.7985,2.6406,2.6031,2.4609,2.3135,2.3135,2.3135,2.3135,2.3135,2.3135,2.3135,2.3135,2.3135,2.3213,2.3496,2.3555,2.3672,2.4102,2.4531,2.4883,2.5039,2.543,2.5742,2.5742,2.5742,2.5742,2.5742,2.5742,2.5742,2.5742,2.5742,2.5742,2.5742,2.5742,2.5742,2.5742,2.5742,2.5742,2.5742,2.5742,2.5742,2.5742,2.5742,2.5742,2.5742,2.5742,2.5742,2.5742,2.5742,2.5742,2.5742,2.5742,2.5742]},{"header":{"parameterUnit":"m.s-1","parameterCategory":1,"la1":30.6,"la2":29.2853,"lo1":-89.7004,"lo2":-87.6739,"dy":0.0162,"dx":0.0183,"nx":112,"ny":82,"refTime":"2023-07-29T06:00:00:Z","depth":0,"parameterNumber":3,"parameterNumberName":"V-component_of_WINDS"},"data":[0.0,0.0,0.0,0.0,0.0,0.0,0.0,0.0,0.0,0.0,0.0,0.0,0.0,0.0,0.0,0.0,0.0,0.0,0.0,0.0,0.0,0.0,0.0,0.0,0.0,0.0,0.0,0.0,0.0,0.0,0.0,0.0,0.0,0.0,0.0,0.0,0.0,0.0,0.0,0.0,0.0,0.0,0.0,0.0,0.0,0.0,0.0,0.0,0.0,0.0,0.0,0.0,0.0,0.0,0.0,0.0,0.0,0.0,0.0,0.0,0.0,0.0,0.0,0.0,0.0,0.0,0.0,0.0,0.0,0.0,0.0,0.0,0.0,0.0,0.0,0.0,0.0,0.0,0.0,0.0,0.0,0.0,0.0,0.0,0.0,0.0,0.0,0.0,0.0,0.0,-1.8815,-1.9114,-1.9682,-2.0062,-2.0062,-2.0062,-2.0024,-1.9936,0.0,0.0,0.0,0.0,0.0,0.0,0.0,0.0,0.0,0.0,0.0,0.0,0.0,0.0,0.0,0.0,0.0,0.0,0.0,0.0,0.0,0.0,0.0,0.0,0.0,0.0,0.0,0.0,0.0,0.0,0.0,0.0,0.0,0.0,0.0,0.0,0.0,0.0,0.0,0.0,0.0,0.0,0.0,0.0,0.0,0.0,0.0,0.0,0.0,0.0,0.0,0.0,0.0,0.0,0.0,0.0,0.0,0.0,0.0,0.0,0.0,0.0,0.0,0.0,0.0,0.0,0.0,0.0,0.0,0.0,0.0,0.0,0.0,0.0,0.0,0.0,0.0,0.0,0.0,0.0,0.0,0.0,0.0,0.0,0.0,0.0,0.0,0.0,0.0,0.0,0.0,0.0,0.0,0.0,0.0,0.0,0.0,0.0,0.0,0.0,0.0,0.0,0.0,0.0,-1.9179,-2.089,-2.1174,-2.123,-2.123,-2.123,-2.1029,-2.0618,0.0,0.0,0.0,0.0,0.0,0.0,0.0,0.0,0.0,0.0,0.0,0.0,0.0,0.0,0.0,0.0,0.0,0.0,0.0,0.0,0.0,0.0,0.0,0.0,0.0,0.0,0.0,0.0,0.0,0.0,0.0,0.0,0.0,0.0,0.0,0.0,0.0,0.0,0.0,0.0,0.0,0.0,0.0,0.0,0.0,0.0,0.0,0.0,0.0,0.0,0.0,0.0,0.0,0.0,0.0,0.0,0.0,0.0,0.0,0.0,0.0,0.0,0.0,0.0,0.0,0.0,0.0,0.0,0.0,0.0,0.0,0.0,0.0,0.0,0.0,0.0,0.0,0.0,0.0,0.0,0.0,0.0,0.0,0.0,0.0,0.0,0.0,0.0,0.0,0.0,0.0,0.0,0.0,0.0,0.0,0.0,0.0,0.0,0.0,0.0,0.0,0.0,0.0,-1.9562,-2.0511,-2.14,-2.1493,-2.1493,-2.1493,-2.1493,-2.138,-2.1129,-2.0865,0.0,0.0,0.0,0.0,0.0,0.0,0.0,0.0,0.0,0.0,0.0,0.0,0.0,0.0,0.0,0.0,0.0,0.0,0.0,0.0,0.0,0.0,0.0,0.0,0.0,0.0,0.0,0.0,0.0,0.0,0.0,0.0,0.0,0.0,0.0,0.0,0.0,0.0,0.0,0.0,0.0,0.0,0.0,0.0,0.0,0.0,0.0,0.0,0.0,0.0,0.0,0.0,0.0,0.0,0.0,0.0,0.0,0.0,0.0,0.0,0.0,0.0,0.0,0.0,0.0,0.0,0.0,0.0,0.0,0.0,0.0,0.0,0.0,0.0,0.0,0.0,0.0,0.0,0.0,0.0,0.0,0.0,0.0,0.0,0.0,0.0,0.0,0.0,0.0,0.0,0.0,0.0,0.0,0.0,0.0,0.0,0.0,0.0,0.0,0.0,0.0,0.0,-2.1306,-2.1732,-2.1857,-2.1882,-2.1882,-2.1882,-2.1882,-2.182,-2.1694,-2.1681,0.0,0.0,0.0,0.0,0.0,0.0,0.0,0.0,0.0,0.0,0.0,0.0,0.0,0.0,0.0,0.0,0.0,0.0,0.0,0.0,0.0,0.0,0.0,0.0,0.0,0.0,0.0,0.0,0.0,0.0,0.0,0.0,0.0,0.0,0.0,0.0,0.0,0.0,0.0,0.0,0.0,0.0,0.0,0.0,0.0,0.0,0.0,0.0,0.0,0.0,0.0,0.0,0.0,0.0,0.0,0.0,0.0,0.0,0.0,0.0,0.0,0.0,0.0,0.0,0.0,0.0,0.0,0.0,0.0,0.0,0.0,0.0,0.0,0.0,0.0,0.0,0.0,0.0,0.0,0.0,0.0,0.0,0.0,0.0,0.0,0.0,0.0,0.0,0.0,0.0,0.0,0.0,0.0,0.0,0.0,0.0,0.0,0.0,0.0,0.0,0.0,0.0,-2.1802,-2.2447,-2.2902,-2.2965,-2.2965,-2.2965,-2.2965,-2.2799,-2.2284,-2.2246,0.0,0.0,0.0,0.0,0.0,0.0,0.0,0.0,0.0,0.0,0.0,0.0,0.0,0.0,0.0,0.0,0.0,0.0,0.0,0.0,0.0,0.0,0.0,0.0,0.0,0.0,0.0,0.0,0.0,0.0,0.0,0.0,0.0,0.0,0.0,0.0,0.0,0.0,0.0,0.0,0.0,0.0,0.0,0.0,0.0,0.0,0.0,0.0,0.0,0.0,0.0,0.0,0.0,0.0,0.0,0.0,0.0,0.0,0.0,0.0,0.0,0.0,0.0,0.0,0.0,0.0,0.0,0.0,0.0,0.0,0.0,0.0,0.0,0.0,0.0,0.0,0.0,0.0,0.0,0.0,0.0,0.0,0.0,0.0,0.0,0.0,0.0,0.0,0.0,0.0,0.0,0.0,0.0,0.0,0.0,0.0,0.0,0.0,0.0,0.0,0.0,0.0,-2.2421,-2.2912,-2.3053,-2.3078,-2.3078,-2.3078,-2.3078,-2.2977,-2.2836,0.0,0.0,0.0,0.0,0.0,0.0,0.0,0.0,0.0,0.0,0.0,0.0,0.0,0.0,0.0,0.0,0.0,0.0,0.0,0.0,0.0,0.0,0.0,0.0,0.0,0.0,0.0,0.0,0.0,0.0,0.0,0.0,0.0,0.0,0.0,0.0,0.0,0.0,0.0,0.0,0.0,0.0,0.0,0.0,0.0,0.0,0.0,0.0,0.0,0.0,0.0,0.0,0.0,0.0,0.0,0.0,0.0,0.0,0.0,0.0,0.0,0.0,0.0,0.0,0.0,0.0,0.0,0.0,0.0,0.0,0.0,0.0,0.0,0.0,0.0,0.0,0.0,0.0,0.0,0.0,0.0,0.0,0.0,0.0,0.0,0.0,0.0,0.0,0.0,0.0,0.0,0.0,0.0,0.0,0.0,0.0,0.0,0.0,0.0,0.0,0.0,0.0,-2.2514,-2.284,-2.3078,-2.3078,-2.3078,-2.3198,-2.3484,-2.3484,-2.3484,-2.3484,0.0,0.0,0.0,0.0,0.0,0.0,0.0,0.0,0.0,0.0,0.0,0.0,0.0,0.0,0.0,0.0,0.0,0.0,0.0,0.0,0.0,0.0,0.0,0.0,0.0,0.0,0.0,0.0,0.0,0.0,0.0,0.0,0.0,0.0,0.0,0.0,0.0,0.0,0.0,0.0,0.0,0.0,0.0,0.0,0.0,0.0,0.0,0.0,0.0,0.0,0.0,0.0,0.0,0.0,0.0,0.0,0.0,0.0,0.0,0.0,0.0,0.0,0.0,0.0,0.0,0.0,0.0,0.0,0.0,0.0,0.0,0.0,0.0,0.0,0.0,0.0,0.0,0.0,0.0,0.0,0.0,0.0,0.0,0.0,0.0,0.0,0.0,0.0,0.0,0.0,0.0,0.0,0.0,0.0,0.0,0.0,0.0,0.0,0.0,0.0,0.0,0.0,-2.3078,-2.3078,-2.3078,-2.3078,-2.3078,-2.3424,-2.4234,-2.4292,-2.4292,0.0,0.0,0.0,0.0,0.0,0.0,0.0,0.0,0.0,0.0,0.0,0.0,0.0,0.0,0.0,0.0,0.0,0.0,0.0,0.0,0.0,0.0,0.0,0.0,0.0,0.0,0.0,0.0,0.0,0.0,0.0,0.0,0.0,0.0,0.0,0.0,0.0,0.0,0.0,0.0,0.0,0.0,0.0,0.0,0.0,0.0,0.0,0.0,0.0,0.0,0.0,0.0,0.0,0.0,0.0,0.0,0.0,0.0,0.0,0.0,0.0,0.0,0.0,0.0,0.0,0.0,0.0,0.0,0.0,0.0,0.0,0.0,0.0,0.0,0.0,0.0,0.0,0.0,0.0,0.0,0.0,0.0,0.0,0.0,0.0,0.0,0.0,0.0,0.0,0.0,0.0,0.0,0.0,0.0,0.0,0.0,0.0,0.0,0.0,0.0,0.0,0.0,0.0,-2.3078,-2.3078,-2.3078,-2.3078,-2.3078,-2.3198,-2.3424,-2.3943,-2.406,-2.3484,0.0,0.0,0.0,0.0,0.0,0.0,0.0,0.0,0.0,0.0,0.0,0.0,0.0,0.0,0.0,0.0,0.0,0.0,0.0,0.0,0.0,0.0,0.0,0.0,0.0,0.0,0.0,0.0,0.0,0.0,0.0,0.0,0.0,0.0,0.0,0.0,0.0,0.0,0.0,0.0,0.0,0.0,0.0,0.0,0.0,0.0,0.0,0.0,0.0,0.0,0.0,0.0,0.0,0.0,0.0,0.0,0.0,0.0,0.0,0.0,0.0,0.0,0.0,0.0,0.0,0.0,0.0,0.0,0.0,0.0,0.0,0.0,0.0,0.0,0.0,0.0,0.0,0.0,0.0,0.0,0.0,0.0,0.0,0.0,0.0,0.0,0.0,0.0,0.0,0.0,0.0,0.0,0.0,0.0,0.0,0.0,0.0,0.0,0.0,0.0,0.0,0.0,-2.3078,-2.3078,-2.3078,-2.3078,-2.3365,-2.3708,-2.3989,-2.4724,-2.4951,-2.4483,0.0,0.0,0.0,0.0,0.0,0.0,0.0,0.0,0.0,0.0,0.0,0.0,0.0,0.0,0.0,0.0,0.0,0.0,0.0,0.0,0.0,0.0,0.0,0.0,0.0,0.0,0.0,0.0,0.0,0.0,0.0,0.0,0.0,0.0,0.0,0.0,0.0,0.0,0.0,0.0,0.0,0.0,0.0,0.0,0.0,0.0,0.0,0.0,0.0,0.0,0.0,0.0,0.0,0.0,0.0,0.0,0.0,0.0,0.0,0.0,0.0,0.0,0.0,0.0,0.0,0.0,0.0,0.0,0.0,0.0,0.0,0.0,0.0,0.0,0.0,0.0,0.0,0.0,0.0,0.0,0.0,0.0,0.0,0.0,0.0,0.0,0.0,0.0,0.0,0.0,0.0,0.0,0.0,0.0,0.0,0.0,0.0,0.0,0.0,0.0,0.0,0.0,-2.3185,-2.3245,-2.3305,-2.3305,-2.3943,-2.4681,-2.5342,-2.6068,-2.6457,-2.6404,0.0,0.0,0.0,0.0,0.0,0.0,0.0,0.0,0.0,0.0,0.0,0.0,0.0,0.0,0.0,0.0,0.0,0.0,0.0,0.0,0.0,0.0,0.0,0.0,0.0,0.0,0.0,0.0,0.0,0.0,0.0,0.0,0.0,0.0,0.0,0.0,0.0,0.0,0.0,0.0,0.0,0.0,0.0,0.0,0.0,0.0,0.0,0.0,0.0,0.0,0.0,0.0,0.0,0.0,0.0,0.0,0.0,0.0,0.0,0.0,-1.9983,-1.8948,0.0,0.0,0.0,0.0,0.0,0.0,0.0,0.0,0.0,0.0,0.0,0.0,0.0,0.0,0.0,0.0,0.0,0.0,0.0,0.0,0.0,0.0,0.0,0.0,0.0,0.0,0.0,0.0,0.0,0.0,0.0,0.0,0.0,0.0,0.0,0.0,0.0,0.0,0.0,0.0,-2.406,-2.4553,-2.4894,-2.4894,-2.5063,-2.5231,-2.5398,-2.6068,-2.6229,-2.5673,-2.6176,0.0,0.0,0.0,0.0,0.0,0.0,0.0,0.0,0.0,0.0,0.0,0.0,0.0,0.0,0.0,0.0,0.0,0.0,0.0,0.0,0.0,0.0,0.0,0.0,0.0,0.0,0.0,0.0,0.0,0.0,0.0,0.0,0.0,0.0,0.0,0.0,0.0,0.0,0.0,0.0,0.0,0.0,0.0,0.0,0.0,0.0,0.0,0.0,0.0,0.0,0.0,0.0,0.0,0.0,0.0,0.0,0.0,0.0,0.0,-2.1888,-2.1126,0.0,0.0,0.0,0.0,0.0,0.0,0.0,0.0,0.0,0.0,0.0,0.0,0.0,0.0,0.0,0.0,0.0,0.0,0.0,0.0,0.0,0.0,0.0,0.0,0.0,0.0,0.0,0.0,0.0,0.0,0.0,0.0,0.0,0.0,0.0,0.0,0.0,0.0,0.0,0.0,-2.4292,-2.4951,-2.5398,-2.5398,-2.5728,-2.596,-2.596,-2.6602,-2.6878,-2.6481,-2.6826,0.0,0.0,0.0,0.0,0.0,0.0,0.0,0.0,0.0,0.0,0.0,0.0,0.0,0.0,0.0,0.0,0.0,0.0,0.0,0.0,0.0,0.0,0.0,0.0,0.0,0.0,0.0,0.0,0.0,0.0,0.0,0.0,0.0,0.0,0.0,0.0,0.0,0.0,0.0,0.0,0.0,0.0,0.0,0.0,0.0,0.0,0.0,0.0,0.0,0.0,0.0,0.0,0.0,-2.3195,-2.3386,-2.2187,-2.4239,-2.4951,-2.4452,-2.3852,-2.3642,-2.3685,-2.3098,0.0,0.0,0.0,0.0,0.0,0.0,0.0,0.0,0.0,0.0,0.0,0.0,0.0,0.0,0.0,0.0,0.0,0.0,0.0,0.0,0.0,0.0,-2.6549,-2.5946,-2.6269,-2.6496,-2.5892,0.0,0.0,0.0,0.0,0.0,0.0,0.0,0.0,0.0,0.0,0.0,-2.4681,-2.5342,-2.5783,-2.5783,-2.6336,-2.6669,-2.6669,-2.7255,-2.7625,-2.7625,-2.7625,-2.7625,0.0,0.0,0.0,0.0,0.0,0.0,0.0,0.0,0.0,0.0,0.0,0.0,0.0,0.0,0.0,0.0,0.0,0.0,0.0,0.0,0.0,0.0,0.0,0.0,0.0,0.0,0.0,0.0,0.0,0.0,0.0,0.0,-2.0398,-2.0398,0.0,0.0,0.0,0.0,0.0,0.0,0.0,0.0,0.0,0.0,0.0,0.0,0.0,-2.2825,-2.2919,-2.2932,-2.3233,-2.38,-2.3412,-2.3125,-2.3005,-2.3989,-2.4738,-2.5287,-2.5823,0.0,-2.5149,-2.5038,0.0,0.0,0.0,0.0,0.0,0.0,0.0,0.0,0.0,0.0,0.0,0.0,0.0,0.0,0.0,0.0,0.0,0.0,0.0,0.0,0.0,0.0,-2.7408,-2.7342,-2.7408,-2.7408,-2.7342,-2.6322,-2.5342,-2.5287,-2.5231,-2.5231,0.0,0.0,0.0,0.0,0.0,0.0,-2.6122,-2.6864,-2.7291,-2.7291,-2.7408,-2.7458,-2.7458,-2.756,-2.7625,-2.7625,-2.7625,-2.7625,-2.7625,-2.7625,0.0,0.0,0.0,0.0,0.0,0.0,0.0,0.0,0.0,0.0,0.0,0.0,0.0,0.0,0.0,0.0,0.0,0.0,0.0,0.0,0.0,0.0,0.0,0.0,0.0,0.0,0.0,0.0,0.0,-1.9628,-2.0074,-2.0526,-2.0268,-2.0009,0.0,0.0,0.0,0.0,0.0,0.0,0.0,0.0,0.0,-2.3084,-2.3917,-2.438,-2.4315,-2.4332,-2.4553,-2.4894,-2.4993,-2.4768,-2.4439,-2.5591,-2.6094,-2.6068,-2.6826,-2.6916,-2.6587,-2.6176,-2.5837,-2.5508,0.0,0.0,0.0,0.0,-2.4894,-2.5007,-2.5728,-2.6014,-2.6014,-2.6014,0.0,0.0,0.0,0.0,0.0,0.0,0.0,-2.651,-2.651,-2.7034,-2.7625,-2.7625,-2.7625,-2.7625,-2.7625,-2.7086,-2.6481,-2.6122,-2.6014,-2.5892,-2.5453,-2.5119,0.0,0.0,0.0,-2.6122,-2.6457,-2.7137,-2.7625,-2.7625,-2.7625,-2.7625,-2.7625,-2.7625,-2.7625,-2.7625,-2.7625,-2.7625,-2.7625,-2.7625,-2.7625,0.0,0.0,0.0,0.0,0.0,0.0,0.0,0.0,0.0,0.0,0.0,0.0,0.0,0.0,0.0,0.0,0.0,0.0,0.0,0.0,0.0,0.0,0.0,0.0,0.0,0.0,0.0,0.0,-1.9814,-2.0268,-2.1164,-2.1037,-2.091,0.0,0.0,0.0,0.0,0.0,0.0,-2.1225,-2.1254,-2.1801,-2.3047,-2.4189,-2.5208,-2.595,-2.5702,-2.5633,-2.5673,-2.6068,-2.596,-2.5453,-2.6707,-2.7034,-2.6563,-2.7306,-2.7625,-2.7575,-2.6982,-2.6669,-2.6457,-2.5906,-2.5563,-2.5398,-2.5618,-2.5673,-2.5783,-2.6549,-2.6774,-2.6774,-2.6774,-2.6774,-2.6721,-2.6293,0.0,0.0,0.0,0.0,-2.6774,-2.6774,-2.7203,-2.7625,-2.7625,-2.7625,-2.7625,-2.7625,-2.7625,-2.7458,-2.6878,-2.6774,-2.6616,-2.6054,-2.5783,0.0,-2.5932,-2.6283,-2.6563,-2.6774,-2.7255,-2.7625,-2.7625,-2.7625,-2.7625,-2.7625,-2.7625,-2.7625,-2.7625,-2.7625,-2.7625,-2.7625,-2.7625,-2.7625,-2.7625,0.0,0.0,0.0,0.0,0.0,0.0,0.0,0.0,0.0,0.0,0.0,0.0,0.0,0.0,0.0,0.0,0.0,0.0,0.0,0.0,0.0,0.0,0.0,0.0,0.0,0.0,0.0,0.0,0.0,-2.2884,-2.2322,0.0,0.0,0.0,0.0,-2.1815,-2.2567,-2.2944,-2.298,-2.2951,-2.3007,-2.309,-2.3167,-2.4587,-2.7462,-2.6534,-2.6186,-2.6457,-2.5783,-2.5453,-2.5453,-2.6229,-2.6563,-2.6563,-2.7306,-2.7625,-2.7625,-2.756,-2.7137,-2.651,-2.6457,-2.6014,-2.5453,-2.6176,-2.6457,-2.6563,-2.7306,-2.756,-2.756,-2.756,-2.756,-2.766,-2.8174,-2.7929,0.0,0.0,-2.7944,-2.756,-2.756,-2.7575,-2.7625,-2.7625,-2.7625,-2.7625,-2.7625,-2.7625,-2.7575,-2.756,-2.756,-2.7509,-2.7509,0.0,-2.6669,-2.7408,-2.693,-2.6774,-2.7458,-2.7575,-2.7625,-2.7625,-2.7625,-2.7625,-2.7625,-2.7625,-2.7625,-2.7625,-2.7625,-2.7625,-2.7625,-2.7625,-2.7625,-2.7625,-2.814,0.0,0.0,0.0,0.0,0.0,0.0,0.0,0.0,0.0,0.0,0.0,0.0,0.0,0.0,0.0,0.0,0.0,0.0,0.0,0.0,0.0,0.0,0.0,0.0,0.0,0.0,0.0,0.0,-2.231,-2.2506,0.0,-2.2689,-2.2689,-2.2689,-2.2689,-2.3412,-2.3662,-2.3138,-2.3081,-2.3974,-2.5925,-2.6008,-2.6505,-2.7598,-2.7208,-2.7122,-2.7188,-2.6916,-2.6811,-2.6811,-2.7086,-2.7203,-2.7203,-2.7509,-2.7625,-2.7625,-2.7625,-2.7458,-2.7203,-2.7203,-2.7034,-2.6864,-2.7086,-2.7203,-2.7255,-2.7524,-2.7625,-2.7625,-2.7625,-2.7625,-2.7625,-2.786,-2.776,-2.761,-2.786,-2.776,-2.7625,-2.7625,-2.7625,-2.7625,-2.7625,-2.7625,-2.7625,-2.7625,-2.7625,-2.7625,-2.7625,-2.7625,-2.7625,-2.7625,-2.7357,-2.7306,-2.756,-2.7357,-2.7306,-2.7575,-2.7625,-2.7625,-2.7625,-2.7625,-2.7625,-2.7625,-2.7625,-2.7625,-2.7625,-2.7625,-2.7625,-2.7625,-2.7625,-2.776,-2.8189,-2.8367,-2.8511,0.0,0.0,0.0,0.0,0.0,0.0,0.0,0.0,0.0,0.0,0.0,0.0,0.0,0.0,0.0,0.0,0.0,0.0,0.0,0.0,0.0,0.0,0.0,0.0,0.0,-2.1553,-2.2002,-2.2261,-2.2763,-2.3078,-2.3078,-2.3078,-2.3078,-2.3078,-2.3826,-2.406,-2.3531,-2.3571,-2.4359,-2.6008,-2.7064,-2.7588,-2.7602,-2.7607,-2.7625,-2.7625,-2.7625,-2.7625,-2.7625,-2.7625,-2.7625,-2.7625,-2.7625,-2.7625,-2.7625,-2.7625,-2.7625,-2.7625,-2.7625,-2.7625,-2.7625,-2.7625,-2.7625,-2.7625,-2.7625,-2.7625,-2.7625,-2.786,-2.776,-2.771,-2.8352,-2.8076,-2.766,-2.8076,-2.8091,-2.791,-2.791,-2.8027,-2.8222,-2.8222,-2.8027,-2.791,-2.791,-2.776,-2.7625,-2.7625,-2.7625,-2.7625,-2.7625,-2.7625,-2.7625,-2.7625,-2.7625,-2.7625,-2.7625,-2.7625,-2.7625,-2.7625,-2.7625,-2.7625,-2.7625,-2.7625,-2.7625,-2.7625,-2.7625,-2.766,-2.791,-2.771,-2.7894,-2.8463,-2.8685,-2.8919,-2.9088,0.0,0.0,0.0,0.0,0.0,0.0,0.0,0.0,0.0,0.0,0.0,0.0,0.0,0.0,0.0,0.0,0.0,0.0,0.0,0.0,0.0,0.0,0.0,-2.2063,-2.1939,-2.2249,-2.3065,-2.3138,-2.3138,-2.3078,-2.3138,-2.3138,-2.3138,-2.3884,-2.435,-2.435,-2.4559,-2.4212,-2.3244,-2.6046,-2.759,-2.7625,-2.7625,-2.7625,-2.7625,-2.7625,-2.7625,-2.7625,-2.7625,-2.7625,-2.7625,-2.7625,-2.7625,-2.7625,-2.7625,-2.7625,-2.7625,-2.7625,-2.7625,-2.7625,-2.7625,-2.7625,-2.7625,-2.7625,-2.7625,-2.771,-2.8271,-2.8091,-2.7944,-2.9657,-2.898,-2.7845,-2.8996,-2.8919,-2.8463,-2.8463,-2.8919,-2.9361,-2.9361,-2.8919,-2.8463,-2.8463,-2.7993,-2.7625,-2.7625,-2.7625,-2.7625,-2.7625,-2.7625,-2.7625,-2.7625,-2.7625,0.0,-2.7625,-2.7625,-2.7625,-2.7625,-2.7625,-2.7625,-2.7625,-2.7625,-2.7625,-2.7625,-2.7625,-2.786,-2.8463,-2.791,-2.7894,-2.8511,-2.9134,-2.9717,-3.0351,0.0,0.0,0.0,0.0,0.0,0.0,0.0,0.0,0.0,0.0,0.0,0.0,0.0,0.0,0.0,0.0,0.0,0.0,0.0,0.0,0.0,-2.3078,-2.3245,-2.3577,-2.3623,-2.3695,-2.3943,-2.3943,-2.3767,-2.3138,-2.3662,-2.3943,-2.3943,-2.5175,-2.5673,-2.5119,-2.6153,-2.6304,-2.5286,-2.6779,-2.7602,-2.7575,-2.7625,-2.7625,-2.7625,-2.7625,-2.7625,-2.7625,-2.7625,-2.7625,-2.7625,-2.7625,-2.7625,-2.7625,-2.7625,-2.7625,-2.7625,-2.7625,-2.7625,-2.7625,-2.7625,-2.7625,-2.7625,-2.7625,-2.7625,-2.7625,-2.781,-2.771,-2.771,-2.8207,-2.7978,-2.766,-2.7978,-2.7993,-2.786,-2.786,-2.7993,-2.8076,-2.8076,-2.7944,-2.786,-2.786,-2.771,-2.7625,-2.7625,-2.7625,-2.7625,-2.7625,-2.7625,-2.7625,-2.7625,-2.7625,-2.7625,-2.7625,-2.7625,-2.7625,-2.7625,-2.7625,-2.7625,-2.7625,-2.7625,-2.7625,-2.7625,-2.7625,-2.766,-2.786,-2.766,-2.8076,-2.9134,-2.9761,-3.0351,0.0,0.0,0.0,0.0,0.0,0.0,0.0,0.0,0.0,0.0,0.0,0.0,0.0,0.0,0.0,0.0,0.0,0.0,0.0,0.0,0.0,0.0,-2.4034,-2.4323,-2.5119,-2.4681,-2.4292,-2.4292,-2.4567,-2.4567,-2.4105,-2.4221,-2.4452,-2.4738,-2.5563,-2.6014,-2.5837,-2.7254,-2.78,-2.7296,-2.7477,-2.7904,-2.8412,-2.8464,-2.8353,-2.8144,-2.8353,-2.8464,-2.8464,-2.8464,-2.8464,-2.8464,-2.8464,-2.8464,-2.8464,-2.8464,-2.8464,-2.8404,0.0,0.0,0.0,0.0,-2.7625,-2.7625,-2.7894,-2.8008,-2.8042,-2.8575,-2.8575,-2.8448,-2.8934,-2.8764,-2.84,-2.867,-2.8717,-2.8826,-2.9108,-2.9406,-2.9656,-2.9958,-2.9848,-2.956,-2.9283,-2.9051,-2.8779,-2.8501,-2.8464,0.0,-2.8464,-2.7949,-2.7625,-2.7625,-2.7625,-2.7625,-2.7625,-2.7625,-2.7625,-2.7625,-2.7625,-2.7625,-2.7625,-2.7625,0.0,0.0,0.0,-2.7625,-2.7625,-2.786,0.0,0.0,0.0,-3.0335,-3.119,-3.0838,0.0,0.0,-3.1015,-3.119,0.0,0.0,0.0,0.0,0.0,0.0,0.0,0.0,0.0,0.0,0.0,0.0,0.0,0.0,0.0,0.0,-2.5398,-2.5618,-2.6283,-2.5342,-2.4567,-2.4567,-2.5119,-2.5536,-2.5494,-2.5003,-2.4973,-2.5703,-2.5827,-2.6157,-2.6833,-2.8054,0.0,0.0,0.0,-2.841,-2.9535,-2.9564,-2.9421,-2.905,-2.9451,-2.9663,-2.9579,-2.9579,-2.9579,-2.9579,-2.9579,-2.9579,-2.9579,-2.9579,-2.9579,-2.946,-2.8263,-2.785,-2.785,-2.785,-2.785,-2.7885,-2.8468,0.0,0.0,-2.9871,-2.9871,-2.9646,-3.0767,-3.0396,-2.963,-3.0266,-3.0455,-3.0603,-3.1254,-3.1798,-3.2395,-3.3051,-3.2779,-3.2253,-3.163,-3.1097,-3.0525,-2.9818,-2.9726,-2.9672,-2.9633,-2.8592,-2.785,-2.785,-2.779,-2.7679,-2.7679,-2.767,-2.7625,-2.7625,-2.7625,0.0,-2.7625,-2.7625,-2.7625,-2.7625,-2.7625,-2.7625,-2.771,-2.8271,-2.8904,-2.9608,-2.9697,-3.0271,-3.1444,-3.1444,-3.1444,-3.1427,-3.1275,-3.119,0.0,0.0,0.0,0.0,0.0,0.0,0.0,0.0,0.0,0.0,0.0,0.0,0.0,0.0,0.0,-2.5398,-2.5398,-2.5453,-2.5563,-2.5892,-2.6068,-2.6068,-2.6176,-2.6266,-2.6188,-2.6638,-2.7115,-2.7768,-2.8411,-2.8853,-2.8961,-2.9271,-2.94,-2.9484,-2.9619,-2.9451,-2.9035,-2.9421,-2.9708,-2.9952,-3.0051,0.0,-2.9579,-2.9579,-2.9579,-2.9579,-2.9579,-2.9579,-2.9579,-2.9579,-2.9579,-2.9549,-2.9295,-2.919,-2.919,-2.919,-2.919,-2.9244,-2.935,-2.9403,-2.9441,-2.9687,-2.9687,-2.9724,-3.0456,-3.0555,0.0,-3.1181,-3.1322,-3.1354,-3.153,-3.1672,-3.1751,-3.1897,-3.1882,-3.1741,-3.1582,-3.1486,-3.1195,-3.0525,-3.0438,-3.0232,-2.9672,-2.937,-2.919,-2.919,-2.8742,-2.8412,-2.8412,-2.7919,-2.7625,-2.7625,-2.7625,-2.7625,-2.7625,-2.7625,-2.7625,-2.7625,-2.7625,-2.781,-2.8334,-2.8919,-2.9797,-3.1002,-3.1508,-3.2135,-3.2983,-3.2983,-3.2983,-3.2949,-3.1749,-3.119,0.0,0.0,0.0,0.0,0.0,0.0,0.0,0.0,0.0,0.0,0.0,-2.5605,-2.63,0.0,-2.669,-2.7403,-2.7501,-2.7501,-2.7501,-2.7802,-2.7793,-2.7068,-2.7321,-2.7691,-2.7975,-2.7963,-2.826,-2.8943,-2.9013,-2.9208,-2.9579,-2.9879,-3.0043,-3.0043,-3.0548,-3.0668,-3.019,-3.0436,-3.0668,-3.0844,-3.0844,-3.0728,-3.0552,-3.0552,-3.0552,-3.0552,-3.0552,-3.0552,-3.0552,-3.0552,-3.0552,-3.0552,-3.0552,-3.0353,-3.0105,-3.0105,-3.0299,-3.0592,-3.0576,-3.0779,-3.1112,-3.1406,-3.1502,-3.1534,-3.1913,-3.2006,-3.2052,-3.2406,-3.2496,-3.2578,-3.2941,-3.3069,-3.3168,-3.3532,-3.3334,-3.3031,-3.269,-3.2358,-3.1914,-3.119,-3.1043,-3.0949,-3.0608,-3.0552,-3.0328,-2.9684,-2.9295,-2.9086,-2.9086,-2.8786,-2.8457,-2.8128,-2.8083,-2.8083,-2.8083,-2.8397,-2.8577,-2.8577,-2.8577,-2.8733,-2.9027,-2.935,-3.0099,-3.1407,-3.1757,-3.2397,-3.3406,-3.3406,-3.3406,-3.3389,-3.2645,-3.2307,0.0,0.0,0.0,0.0,0.0,0.0,0.0,-2.4993,-2.529,-2.6092,-2.6202,-2.6578,-2.7712,-2.7923,-2.8261,-2.9436,-2.9579,-2.9579,-2.9579,-2.9579,-2.9253,-2.8196,-2.8512,-2.9041,-2.9699,-2.9189,-2.9122,-2.9884,-2.9381,-2.9268,-2.9953,-3.0432,-3.0702,-3.0702,-3.124,-3.1482,-3.1482,-3.1482,-3.1482,-3.1482,-3.1482,-3.1482,-3.1482,-3.1482,-3.1482,-3.1482,-3.1482,-3.1482,-3.1482,-3.1482,-3.1482,-3.1524,-3.164,-3.1469,-3.1135,-3.0871,-3.1119,-3.1557,-3.1507,-3.1837,-3.2382,-3.2863,-3.3015,-3.3061,-3.3362,-3.345,-3.345,-3.3597,-3.364,-3.3732,-3.4197,-3.432,-3.4454,-3.5073,-3.48,-3.4284,-3.3735,-3.3198,-3.2641,-3.1992,-3.1781,-3.1682,-3.1682,-3.1582,-3.118,-3.0118,-2.9849,-2.9759,-2.9759,-2.9654,-2.937,-2.8846,-2.8786,-2.8786,-2.8786,-2.928,-2.9687,-2.9765,-2.9765,-2.9925,-3.0158,-3.0158,-3.0791,-3.206,-3.206,-3.2669,-3.3846,-3.3846,-3.3846,-3.3846,-3.3846,-3.3677,-2.3078,-2.3708,-2.4292,-2.4292,-2.5243,-2.6313,0.0,-2.7582,-2.8137,-2.8946,-2.9124,-2.9208,-2.9337,-2.9352,-2.9436,-2.9564,-2.9579,-2.9579,-2.9579,-2.9579,-2.9759,-3.0112,-2.9749,-2.9714,-3.0342,-3.0332,-3.0529,-3.1213,-3.1185,-3.1185,-3.1258,-3.1317,-3.1362,-3.1362,-3.1437,-3.1482,-3.1482,-3.1482,-3.1482,-3.1482,-3.1482,-3.1482,-3.1482,-3.1482,-3.1482,-3.1482,-3.1482,-3.1482,-3.1482,-3.1482,-3.1482,-3.1582,-3.2216,-3.2739,-3.3033,-3.1823,-3.1471,-3.1513,-3.1513,-3.157,-3.1611,-3.1667,-3.1708,-3.1931,-3.3204,-3.3561,-3.3695,-3.4297,-3.444,-3.4362,-3.3841,-3.3724,-3.374,-3.382,-3.3786,-3.3684,-3.3649,-3.3531,-3.3479,-3.3375,-3.2879,-3.2492,-3.2492,-3.1951,-3.1422,-3.1345,-3.0791,-3.0402,-3.0402,-2.9924,-2.9549,-2.949,-2.9475,-2.9475,-2.9475,-2.9549,-2.9872,-3.0474,-3.0474,-3.1013,-3.2115,-3.2161,-3.2793,-3.4162,-3.4162,-3.456,-3.5368,-3.5368,-3.5368,-3.5368,-3.5368,-3.4658,-2.4523,-2.4966,-2.5208,-2.5208,-2.604,-2.6937,-2.7241,-2.7869,-2.8635,-2.9441,-2.9579,-2.9699,-3.0058,-3.0118,-3.0253,-3.0657,-3.0717,-3.0717,-3.0717,-3.0717,-3.0806,-3.1076,-3.0881,-3.0821,-3.1076,-3.1106,-3.1225,-3.1452,-3.1482,-3.1482,-3.1482,-3.1482,-3.1482,-3.1482,-3.1898,-3.2138,-3.2272,-3.2244,-3.199,-3.153,-3.2273,-3.2677,-3.2662,-3.2393,-3.2407,-3.2677,-3.2677,-3.2677,-3.2677,-3.2677,-3.2677,-3.2677,-3.3002,-3.3271,-3.3423,-3.2856,-3.3183,-3.382,-3.3407,-3.3537,-3.3973,-3.4383,-3.4235,-3.414,-3.5626,-3.5777,-3.5542,-3.6304,-3.6513,-3.6465,-3.6157,-3.6108,-3.6108,-3.6108,-3.5761,-3.5321,-3.492,-3.4508,-3.4085,-3.3635,-3.3322,-3.3105,-3.3105,-3.2899,-3.2677,-3.2677,-3.1779,-3.1106,-3.1106,-3.0881,-3.0567,-3.0163,-3.0118,-3.0118,-3.0118,-3.0492,-3.0814,-3.1116,-3.1101,-3.1359,-3.1914,-3.2313,-3.3012,-3.394,-3.4336,-3.4889,-3.5622,-3.5622,-3.5622,-3.5622,-3.5622,-3.5284,-2.5628,-2.6091,-2.6337,-2.6553,-2.7349,-2.8092,-2.8092,-2.8699,-2.9415,-2.9993,-3.0118,-3.0253,-3.0717,-3.0791,-3.0941,-3.1392,-3.1482,-3.1482,-3.1482,-3.1482,-3.1482,-3.1482,-3.1482,-3.1482,-3.1482,-3.1482,-3.1482,-3.1482,-3.1482,-3.1482,-3.1482,-3.1704,-3.1809,-3.1809,-3.2437,-3.2826,-3.2976,-3.3124,-3.2776,-3.2056,-3.3047,-3.3666,-3.406,-3.3333,-3.3183,-3.3499,-3.3499,-3.3499,-3.3499,-3.3499,-3.3499,-3.3499,-3.3713,-3.394,-3.4091,-3.4348,-3.4648,-3.4945,-3.4411,-3.4585,-3.5115,-3.5623,-3.56,-3.5561,-3.6629,-3.6732,-3.6492,-3.6834,-3.712,-3.7253,-3.7086,-3.7186,-3.7336,-3.7336,-3.6936,-3.6372,-3.5857,-3.5324,-3.4888,-3.4484,-3.425,-3.4163,-3.4103,-3.3939,-3.3789,-3.3561,-3.2677,-3.2003,-3.1824,-3.1586,-3.1345,-3.0836,-3.0791,-3.0791,-3.0791,-3.124,-3.1582,-3.1796,-3.1796,-3.1894,-3.2104,-3.2571,-3.3182,-3.3836,-3.4186,-3.4752,-3.5622,-3.5407,-3.5407,-3.5622,-3.5622,-3.5622,-2.5821,-2.6607,-2.7371,-2.8111,-2.9398,-3.0421,-3.0421,-3.0929,-3.1407,-3.1422,-3.1422,-3.1422,-3.1437,-3.1437,-3.1452,-3.1482,-3.1482,-3.1482,-3.1482,-3.1482,-3.1482,-3.1482,-3.1482,-3.1482,-3.1482,-3.1482,-3.1482,-3.1482,-3.1482,-3.1482,-3.1482,-3.2138,-3.2482,-3.2482,-3.3125,-3.3469,-3.3469,-3.3923,-3.3923,-3.3455,-3.3484,-3.4197,-3.537,-3.409,-3.3484,-3.3499,-3.3499,-3.3499,-3.3499,-3.3499,-3.3499,-3.3561,-3.4355,-3.5019,-3.5605,-3.6444,-3.5361,-3.3546,-3.3546,-3.3561,-3.3561,-3.3607,-3.4118,-3.469,-3.4627,-3.5124,-3.5584,-3.4841,-3.5196,-3.56,-3.4961,-3.5324,-3.5841,-3.5841,-3.5841,-3.5824,-3.5786,-3.5786,-3.5932,-3.658,-3.6145,-3.5732,-3.5639,-3.5115,-3.4414,-3.3607,-3.3469,-3.32,-3.2557,-3.1928,-3.1467,-3.1437,-3.1437,-3.1437,-3.1437,-3.1467,-3.1796,-3.2547,-3.2547,-3.2841,-3.3479,-3.3531,-3.3887,-3.4576,-3.3937,-3.4301,-3.5622,-3.4941,-3.4941,-3.5622,-3.5622,-3.5622,-2.6856,-2.7336,-2.7591,-2.7881,-2.8719,-2.9365,-2.8747,-2.9288,-3.0011,-3.0584,-3.0269,-3.0011,-3.0584,-3.0703,-3.0703,-3.0703,-3.1161,-3.1482,-3.1482,-3.1482,-3.1482,-3.1482,-3.1482,-3.1482,-3.1482,-3.1482,-3.1482,-3.1482,-3.1943,-3.2183,-3.2183,-3.2811,-3.3155,-3.3155,-3.3799,-3.4143,-3.4143,-3.476,-3.4985,-3.4831,-3.4831,-3.503,-3.5477,-3.5015,-3.4831,-3.4831,-3.4831,-3.4831,-3.4831,-3.4831,-3.4831,-3.4831,-3.5133,-3.5379,-3.5561,-3.5844,-3.5472,-3.4943,-3.6024,-3.6366,-3.6409,-3.6899,-3.6915,-3.6931,-3.7916,-3.8023,-3.7861,-3.813,-3.8411,-3.8548,-3.8322,-3.8479,-3.8635,-3.8635,-3.8635,-3.8531,-3.7969,-3.7462,-3.7029,-3.6711,-3.6113,-3.5569,-3.5569,-3.5353,-3.4967,-3.428,-3.3769,-3.341,-3.3185,-3.2587,-3.2183,-3.2183,-3.1794,-3.1482,-3.1482,-3.1482,-3.1582,-3.1853,-3.1853,-3.1951,-3.2201,-3.268,-3.3039,-3.3287,-3.3495,-3.3836,-3.4301,-3.4479,-3.4736,-3.4941,-3.5407,-3.5622,-2.7433,-2.792,-2.8182,-2.8182,-2.8812,-2.9317,-2.8748,-2.9254,-3.0072,-3.0584,-3.0072,-2.9628,-3.0208,-3.0329,-3.0208,-2.9889,-3.0524,-3.1087,-3.1087,-3.1087,-3.1161,-3.1467,-3.1482,-3.1482,-3.1482,-3.1482,-3.1482,-3.1482,-3.2138,-3.2512,-3.2512,-3.3365,-3.3844,-3.3844,-3.4502,-3.4846,-3.4846,-3.528,-3.5504,-3.5504,-3.5504,-3.5504,-3.5504,-3.5504,-3.5504,-3.5504,-3.5504,-3.5504,-3.5504,-3.5504,-3.5504,-3.5504,-3.5782,-3.5894,-3.5958,-3.6196,-3.6321,-3.6368,-3.6845,-3.6951,-3.7071,-3.7557,-3.7748,-3.7863,-3.8302,-3.8635,-3.8908,-3.8854,-3.9262,-3.961,-3.9332,-3.9437,-3.961,-3.9332,-3.9279,-3.9119,-3.8635,-3.8133,-3.7748,-3.7483,-3.7024,-3.6692,-3.6692,-3.6477,-3.6105,-3.5351,-3.4849,-3.441,-3.4015,-3.3292,-3.2976,-3.3258,-3.2645,-3.2228,-3.2228,-3.2018,-3.1884,-3.1884,-3.1601,-3.164,-3.191,-3.2327,-3.2841,-3.3287,-3.3495,-3.3853,-3.4301,-3.4496,-3.4576,-3.464,-3.5316,-3.547,-2.767,-2.8298,-2.8939,-2.8939,-2.9566,-3.0147,-3.0133,-3.0718,-3.1278,-3.1278,-3.0703,-3.0147,-3.0147,-3.0208,-2.995,-2.9129,-2.9766,-3.0329,-3.0329,-3.0329,-3.0644,-3.1409,-3.1482,-3.1482,-3.1526,-3.1526,-3.1541,-3.1571,-3.2213,-3.2587,-3.2617,-3.3829,-3.4532,-3.4532,-3.516,-3.5504,-3.5504,-3.5504,-3.5504,-3.5504,-3.5504,-3.5504,-3.5504,-3.5504,-3.5504,-3.5504,-3.5504,-3.5504,-3.5504,-3.5504,-3.5504,-3.5619,-3.6275,-3.6554,-3.6661,-3.7397,-3.7706,-3.7472,-3.6022,-3.5554,-3.5619,-3.5683,-3.6662,-3.7573,-3.6148,-3.7203,-3.8564,-3.7068,-3.7758,-3.8745,-3.8035,-3.843,-3.8799,-3.8092,-3.7937,-3.7937,-3.7937,-3.7879,-3.8092,-3.8745,-3.8854,-3.8799,-3.8799,-3.8189,-3.7515,-3.6783,-3.6661,-3.6211,-3.4969,-3.4075,-3.3955,-3.4736,-3.4074,-3.3607,-3.3607,-3.2976,-3.2616,-3.2616,-3.1973,-3.1902,-3.264,-3.2609,-3.3193,-3.448,-3.3853,-3.4202,-3.5424,-3.4894,-3.4576,-3.464,-3.5316,-3.5253,-2.7537,-2.7855,-2.8051,-2.8051,-2.8182,-2.8247,-2.7604,-2.8117,-2.8684,-2.8684,-2.8492,-2.8363,-2.8363,-2.8876,-2.9254,-2.9066,-3.0208,-3.1219,-3.1219,-3.1219,-3.1278,-3.1467,-3.1482,-3.1676,-3.2213,-3.2273,-3.2467,-3.2961,-3.3155,-3.3455,-3.3948,-3.4786,-3.525,-3.525,-3.5415,-3.5504,-3.5504,-3.5504,-3.5504,-3.5504,-3.5504,-3.5504,-3.5504,-3.5504,-3.5504,-3.5504,-3.5504,-3.5504,-3.5504,-3.5504,-3.5831,-3.6275,-3.5958,-3.6117,-3.6554,-3.618,-3.6085,-3.6085,-3.629,-3.6692,-3.7294,-3.7831,-3.8286,-3.8525,-3.8173,-3.8453,-3.8674,-3.7732,-3.8173,-3.8854,-3.869,-3.9209,-3.9731,-3.9558,-3.9506,-3.9506,-3.9506,-3.9032,-3.869,-3.8854,-3.7987,-3.7188,-3.7188,-3.7024,-3.7024,-3.7456,-3.7515,-3.7152,-3.6211,-3.549,-3.5388,-3.6197,-3.5609,-3.5236,-3.5236,-3.4561,-3.4152,-3.4152,-3.3426,-3.3051,-3.3276,-3.2792,-3.2695,-3.3049,-3.2944,-3.3039,-3.3355,-3.4186,-3.4576,-3.464,-3.5316,-3.5515,-2.7162,-2.7417,-2.7604,-2.7297,-2.7417,-2.7604,-2.7095,-2.767,-2.8233,-2.8233,-2.7986,-2.7736,-2.7986,-2.8603,-2.8958,-2.8817,-2.9984,-3.097,-3.097,-3.119,-3.1501,-3.19,-3.2213,-3.2542,-3.2901,-3.2946,-3.3215,-3.3873,-3.3918,-3.4083,-3.4457,-3.513,-3.5504,-3.5504,-3.5504,-3.5504,-3.5504,-3.5504,-3.5504,-3.5504,-3.5504,-3.5504,-3.5504,-3.5504,-3.5714,-3.6113,-3.5699,-3.5668,-3.5943,-3.5604,-3.5943,-3.6554,-3.5782,-3.6196,-3.7024,-3.629,-3.6196,-3.6538,-3.698,-3.7456,-3.7806,-3.7889,-3.8342,-3.8728,-3.7716,-3.8117,-3.869,-3.7557,-3.7847,-3.8414,-3.8414,-3.8761,-3.9102,-3.9102,-3.9102,-3.8995,-3.8635,-3.8469,-3.8525,-3.8854,-3.8509,-3.8117,-3.8117,-3.8117,-3.8173,-3.8246,-3.8302,-3.8019,-3.7219,-3.6814,-3.6854,-3.763,-3.7125,-3.655,-3.6194,-3.5827,-3.5441,-3.5124,-3.4713,-3.4627,-3.4955,-3.4579,-3.4557,-3.4848,-3.4558,-3.442,-3.442,-3.5181,-3.5382,-3.5114,-3.5813,-3.5958,-2.6714,-2.704,-2.7351,-2.6658,-2.704,-2.7537,-2.7537,-2.8247,-2.8839,-2.878,-2.8289,-2.7946,-2.8376,-2.8798,-2.8988,-2.8678,-2.9636,-3.043,-3.0464,-3.0971,-3.1623,-3.2378,-3.3095,-3.3529,-3.3619,-3.3619,-3.3903,-3.4562,-3.4607,-3.4607,-3.4607,-3.5175,-3.5504,-3.5504,-3.5504,-3.5504,-3.5504,-3.5504,-3.5504,-3.5504,-3.5504,-3.5504,-3.5504,-3.5504,-3.597,-3.6786,-3.5997,-3.597,-3.6384,-3.5894,-3.607,-3.6676,-3.6085,-3.6662,-3.7863,-3.7024,-3.7203,-3.7806,-3.7921,-3.7921,-3.7806,-3.7128,-3.7815,-3.8509,-3.6523,-3.7322,-3.8619,-3.7128,-3.7322,-3.7921,-3.7921,-3.8035,-3.8108,-3.8108,-3.8108,-3.7905,-3.7203,-3.7616,-3.8262,-3.8799,-3.9489,-3.9952,-3.9952,-3.9952,-3.9731,-3.9139,-3.8962,-3.869,-3.8035,-3.7863,-3.8035,-3.869,-3.8189,-3.7515,-3.6783,-3.6753,-3.6463,-3.5792,-3.5739,-3.6005,-3.6596,-3.6656,-3.6949,-3.7601,-3.7036,-3.6699,-3.6699,-3.6818,-3.6561,-3.6018,-3.6636,-3.6592,-2.6521,-2.6589,-2.6658,-2.6521,-2.6589,-2.6714,-2.6714,-2.7351,0.0,-2.7631,-2.804,-2.8333,-2.8181,-2.882,-2.936,-2.9561,-3.0319,-3.1058,-3.1235,-3.1842,-3.2318,-3.2452,-3.3095,-3.3709,-3.4247,-3.4307,-3.4592,-3.528,-3.5325,-3.5325,-3.5325,-3.5444,-3.5504,-3.5504,-3.5504,-3.5504,-3.5504,-3.5504,-3.5504,-3.5504,-3.5504,-3.5504,-3.5504,-3.5504,-3.5569,-3.5808,-3.6485,-3.6345,-3.5733,-3.6228,-3.6859,-3.7573,-3.7472,-3.7905,-3.8635,-3.7847,-3.769,-3.7879,-3.8525,-3.869,-3.869,-3.8564,-3.8674,-3.8854,-3.8453,-3.8564,-3.8745,-3.7847,-3.8133,-3.869,-3.869,-3.9209,-3.9679,-3.9679,-3.9679,-3.9679,-3.9489,-3.961,-3.9558,-3.9016,-3.9016,-3.9086,-3.9086,-3.9086,-3.9315,-3.9782,-3.9315,-3.8854,-3.8745,-3.8206,-3.7863,-3.7978,-3.7863,-3.7748,-3.7573,-3.6974,-3.6611,-3.6429,-3.589,-3.5609,-3.5719,-3.5792,-3.5859,-3.5991,-3.649,-3.6785,-3.6785,-3.7385,-3.7631,-3.7517,-3.7658,-3.7655,-2.6533,-2.6533,-2.6533,-2.6533,-2.6533,-2.6533,-2.6533,0.0,0.0,-2.7309,-2.7608,-2.7991,-2.8447,-2.8975,0.0,-2.9952,-3.0643,-3.1281,-3.1772,-3.2494,-3.3155,-3.3499,-3.4128,-3.4666,-3.4981,-3.5011,-3.5145,-3.5489,-3.5504,-3.5504,-3.5504,-3.5504,-3.5504,-3.5504,-3.5504,-3.5504,-3.5504,-3.5504,-3.5504,-3.5504,-3.5504,-3.5504,-3.5504,-3.5504,-3.5484,-3.5576,-3.6496,-3.6758,-3.6603,-3.6938,-3.751,-3.8183,-3.7747,-3.8336,-3.9289,-3.8473,-3.8267,-3.835,-3.8755,-3.861,-3.8302,-3.8302,-3.887,-3.9368,-3.858,-3.858,-3.8745,-3.8035,-3.8035,-3.8414,-3.8799,-3.9193,-3.961,-4.002,-3.9782,-3.961,-4.002,-3.9782,-3.9489,-3.9542,-3.9542,-3.9542,-3.9542,-3.9542,-3.9489,-3.9489,-3.9489,-3.9209,-3.8414,-3.8358,-3.8358,-3.8358,-3.8761,-3.8832,-3.8414,-3.8398,-3.806,-3.7263,-3.7263,-3.71,-3.6723,-3.6726,-3.6715,-3.6715,-3.711,-3.7335,-3.7335,-3.8077,-3.842,-3.8403,-3.8486,-3.8464,-2.6533,-2.6533,-2.6533,-2.6533,-2.6533,-2.6533,-2.6533,-2.6622,-2.6791,-2.7344,-2.7557,-2.7934,-2.8925,-2.9318,-2.9666,0.0,-3.0773,-3.1404,-3.2033,-3.3,-3.3903,-3.4412,-3.5085,-3.5504,-3.5504,-3.5504,-3.5504,-3.5504,-3.5504,-3.5504,-3.5504,-3.5504,-3.5504,-3.5504,-3.5504,-3.5504,-3.5504,-3.5504,-3.5504,-3.5504,-3.5504,-3.5469,-3.5529,-3.5529,-3.5503,-3.5536,-3.6501,-3.7203,-3.7681,-3.7673,-3.805,-3.8561,-3.8101,-3.866,-3.9718,-3.9109,-3.8952,-3.9026,-3.9026,-3.8674,-3.8211,-3.8211,-3.8858,-3.9385,-3.8149,-3.8189,-3.8557,-3.8171,-3.803,-3.8178,-3.8893,-3.9089,-3.9284,-3.9935,-3.9489,-3.9139,-3.9901,-3.9489,-3.9086,-3.9731,-3.9833,-3.9782,-3.9627,-3.9731,-3.961,-3.8978,-3.9315,-3.9226,-3.8149,-3.8525,-3.8908,-3.8908,-3.9315,-3.9332,-3.869,-3.9262,-3.9102,-3.7879,-3.8358,-3.8358,-3.7573,-3.769,-3.769,-3.7573,-3.7863,-3.8035,-3.8035,-3.8816,-3.9139,-3.9193,-3.9194,-3.9225,-2.6533,-2.6533,-2.6533,-2.6533,-2.6533,-2.6533,-2.6533,0.0,-2.7369,-2.7921,-2.8423,-2.8963,-2.9591,-2.9743,-2.9834,-3.0124,-3.0986,-3.1704,-3.2084,-3.3461,-3.4412,-3.4472,-3.5085,-3.5504,-3.5504,-3.5504,-3.5504,-3.5504,-3.5504,-3.5504,-3.5504,-3.5504,-3.5504,-3.5504,-3.5504,-3.5504,-3.5504,-3.5504,-3.5504,-3.5504,-3.5504,-3.5508,-3.5466,-3.5466,-3.5472,-3.5544,-3.6828,-3.7637,-3.8049,-3.8357,-3.8561,-3.8691,-3.9298,-3.9656,-3.9779,-3.9734,-3.9686,-3.97,-3.97,-3.9652,-3.9604,-3.9604,-3.8905,-3.7978,-3.7806,-3.7879,-3.8008,-3.859,-3.8706,-3.885,-3.955,-3.9745,-3.9842,-4.0053,-3.9489,-3.9139,-3.9901,-3.9489,-3.8908,-3.9016,-3.9016,-3.8799,-3.8149,-3.8596,-3.8978,-3.8908,-3.8414,-3.8206,-3.8745,-3.8854,-3.8908,-3.8908,-3.8374,-3.7978,-3.7921,-3.7978,-3.7921,-3.7822,-3.7863,-3.7557,-3.6722,-3.7397,-3.7456,-3.6722,-3.8117,-3.8799,-3.8799,-3.961,-4.002,-4.0003,-4.0003,-3.9969,-2.6533,-2.6533,-2.6533,-2.6533,-2.6533,-2.6533,-2.6533,0.0,-2.7444,-2.7996,-2.8549,-2.9101,-2.9691,-2.9792,-2.9858,-2.991,-3.0414,0.0,-3.2221,-3.3111,-3.403,-3.4976,-3.534,-3.5504,-3.5504,-3.5504,-3.5504,-3.5504,-3.5504,-3.5504,-3.5504,-3.5504,-3.5504,-3.5504,-3.5504,-3.5504,-3.5504,-3.5893,-3.6088,-3.6103,-3.6194,-3.5993,-3.5575,-3.7158,-3.7857,-3.7931,-3.9474,-3.9375,-3.816,-3.8834,-3.9076,-3.9146,-3.9458,-3.9594,-3.9594,-3.9594,-3.9318,-3.8964,-3.8964,-3.8688,-3.835,-3.835,-3.7981,-3.7728,-3.8708,-3.9366,-3.9648,-3.9466,-4.0138,-4.0849,-4.0596,-4.0508,-4.0456,-4.0093,-3.9731,-3.9615,-4.0002,-3.985,-3.961,-3.961,-3.961,-3.9558,-3.9226,-3.9454,-3.9437,-3.8962,-3.9032,-3.9102,-3.8908,-3.9315,-3.961,-3.961,-3.9332,-3.9172,-3.9172,-3.9172,-3.8995,-3.8469,-3.8469,-3.8133,-3.7322,-3.7632,-3.7632,-3.7338,-3.8342,-3.8908,-3.8908,-3.9731,-4.007,-4.007,-4.007,-4.007,-2.6533,-2.6533,-2.6533,-2.6533,-2.6533,-2.6533,0.0,0.0,-2.7444,-2.7996,-2.8549,-2.9101,-2.9691,-2.9792,-2.9792,-2.9792,0.0,-3.0996,-3.2396,-3.3027,-3.3914,-3.5314,-3.5504,-3.5504,-3.5504,-3.5504,-3.5504,-3.5504,-3.5504,-3.5504,-3.5504,-3.5504,-3.5504,-3.5504,-3.5504,-3.5609,-3.5789,-3.6252,-3.6582,-3.6761,-3.6894,-3.6719,-3.6365,-3.8196,-3.9139,-3.9467,-4.0723,-4.0182,-3.8557,-3.9182,-3.9424,-3.9424,-3.9424,-3.9424,-3.9424,-3.9424,-3.911,-3.8691,-3.8691,-3.8392,-3.8003,-3.8003,-3.8003,-3.8196,-3.9346,-3.9787,-3.9978,-4.008,-4.1151,-4.2109,-4.1519,-4.118,-4.0925,-4.0657,-4.0271,-4.0029,-4.0356,-4.0053,-3.9731,-3.9731,-3.9731,-3.9679,-3.9454,-3.961,-3.9542,-3.8978,-3.9368,-3.961,-3.9315,-3.9731,-4.007,-4.007,-4.007,-4.007,-4.007,-4.007,-3.985,-3.9315,-3.9262,-3.8924,-3.8149,-3.8149,-3.8035,-3.7806,-3.8525,-3.8908,-3.8908,-3.9731,-4.007,-4.007,-4.007,-4.007,-2.6533,-2.6533,-2.6533,-2.6533,-2.6533,-2.6533,0.0,0.0,-2.7444,-2.7996,-2.8549,-2.9101,-2.9691,-2.9792,-2.9792,-2.9792,-3.0545,0.0,-3.2464,-3.338,-3.4394,-3.5359,-3.5504,-3.5504,-3.5504,-3.5504,-3.5504,-3.5504,-3.5504,-3.5504,-3.5504,-3.5504,-3.5504,-3.5504,-3.5504,-3.5818,-3.6477,-3.6492,-3.6791,-3.7404,-3.7404,-3.762,-3.8057,-3.8072,-3.8596,-3.9428,-3.944,-3.9436,-3.9375,-3.9384,-3.9424,-3.9424,-3.9424,-3.9424,-3.9424,-3.9424,-3.9424,-3.9409,-3.9409,-3.9409,-3.9394,-3.9394,-3.9394,-3.9394,-3.9394,-3.8467,-3.7918,-4.0293,-4.1501,-4.2012,-4.213,-4.1634,-4.1197,-4.2097,-4.1143,-4.032,-4.103,-4.0007,-3.8908,-3.8908,-3.8908,-3.869,-3.7921,-3.8414,-3.8908,-3.8908,-3.8908,-3.9209,-4.002,-4.007,-4.007,-4.007,-4.007,-4.007,-4.007,-4.007,-4.0087,-4.007,-4.007,-3.9731,-3.8908,-3.8908,-3.8525,-3.7806,-3.8525,-3.8908,-3.8908,-3.9731,-4.007,-4.007,-4.007,-4.007,-2.6533,-2.6533,-2.6533,-2.6533,-2.6533,-2.6533,-2.6533,0.0,-2.7444,-2.7996,-2.8549,-2.9101,-2.9691,-2.9792,-2.9792,-2.9792,-3.0558,-3.1536,-3.2464,-3.338,-3.4394,-3.5359,-3.5504,-3.5504,-3.5504,-3.5504,-3.5504,-3.5504,-3.5504,-3.5504,-3.5504,-3.5504,-3.5504,-3.5504,-3.5938,-3.6282,-3.6492,-3.7345,-3.7883,-3.8078,-3.8556,-3.8871,-3.8964,-3.8964,-3.9137,-3.9425,-3.9406,-3.9376,-3.9425,-3.9406,-3.9424,-3.9424,-3.9424,-3.9424,-3.9424,-3.9424,-3.9424,-3.9424,-3.9424,-3.9424,-3.9424,-3.9424,-3.9424,-3.9481,-4.0115,-4.0002,-4.0086,-4.1991,-4.228,-4.2141,-4.2769,-4.2764,-4.2507,-4.2286,-4.1865,-4.1475,-4.1249,-4.0845,-4.0335,-3.9831,-3.9731,-3.9662,-3.9385,-3.9558,-3.9731,-3.9731,-3.9731,-3.9782,-4.007,-4.007,-4.007,-4.007,-4.007,-4.007,-4.007,-4.007,-4.007,-4.007,-4.007,-4.002,-3.9731,-3.9731,-3.961,-3.9401,-3.961,-3.9731,-3.9731,-3.9969,-4.007,-4.007,-4.007,-4.007,0.0,-2.6533,-2.6533,-2.6533,-2.6533,0.0,-2.6533,-2.6798,-2.713,-2.7682,-2.8235,-2.8787,-2.9365,-2.9641,-2.9792,-2.9792,-3.0558,-3.1536,-3.2464,-3.338,-3.4394,-3.5359,-3.5504,-3.5504,-3.5504,-3.5504,-3.5504,-3.5504,-3.5504,-3.5504,-3.5504,-3.5504,-3.5624,-3.5863,-3.6267,-3.6596,-3.6836,-3.7868,-3.8527,-3.8781,-3.9215,-3.9424,-3.9424,-3.9424,-3.9424,-3.9424,-3.9424,-3.9424,0.0,-3.9424,-3.9424,-3.9424,-3.9424,-3.9424,-3.9424,-3.9424,-3.9424,-3.9424,-3.9424,-3.9424,-3.9424,-3.9424,-3.9424,-3.9481,-4.0045,-4.069,-4.1346,-4.2125,-4.2189,-4.2125,-4.2645,-4.3047,-4.3191,-4.273,-4.2651,-4.2562,-4.2129,-4.1593,-4.1068,-4.0595,-4.0273,-4.007,-4.007,-4.007,-4.007,-4.007,-4.007,-4.007,-4.007,-4.007,-4.007,-4.007,-4.007,-4.007,-4.007,-4.007,-4.007,-4.007,-4.007,-4.007,-4.007,-4.007,-4.007,-4.007,-4.007,-4.007,-4.007,-4.007,-4.007,-4.007,-4.007,-4.007,0.0,-2.6533,-2.6533,-2.6533,-2.6533,-2.6533,0.0,0.0,0.0,-2.7168,-2.7695,-2.8222,-2.8887,-2.9441,-2.9896,-2.9998,-3.0771,-3.1669,-3.2593,-3.3518,-3.4461,-3.5359,-3.5504,-3.5504,-3.5504,-3.5504,-3.5504,-3.5504,-3.5504,-3.5504,-3.5504,-3.5504,-3.5789,-3.6402,-3.6507,-3.6851,-3.7479,-3.8138,-3.8781,-3.9424,-3.9424,-3.9424,-3.9424,-3.9424,-3.9424,-3.9424,-3.9424,-3.9424,-3.9424,-3.9424,-3.9424,-3.9424,-3.9424,-3.9424,-3.9424,-3.9424,-3.9424,-3.9424,-3.9424,-3.9424,-3.9424,-3.9424,-3.9424,-3.9424,-3.9424,-4.0516,-4.1674,-4.1013,-4.1412,-4.2062,-4.2125,-4.2785,-4.3366,-4.3366,-4.3454,-4.3487,-4.3436,-4.2286,-4.1271,-4.1221,-4.0595,-4.007,-4.007,-4.007,-4.007,-4.007,-4.007,-4.007,-4.007,-4.007,-4.007,-4.007,-4.007,-4.007,-4.007,-4.007,-4.007,-4.007,-4.007,-4.007,-4.007,-4.007,-4.007,-4.007,-4.007,-4.007,-4.007,-4.007,-4.007,-4.007,-4.007,-4.007,-2.6533,0.0,-2.6533,-2.6533,-2.6533,-2.6533,0.0,0.0,0.0,0.0,0.0,0.0,-2.9744,-3.0189,-3.0632,-3.1761,-3.2749,-3.3449,-3.3671,-3.4543,-3.5213,-3.5439,-3.5504,-3.5504,-3.5504,-3.5504,-3.5504,-3.5504,-3.5504,-3.5504,-3.5504,-3.5504,-3.5579,-3.5729,-3.6686,-3.7509,-3.8153,-3.8841,-3.926,-3.9424,-3.9424,-3.9424,-3.9424,-3.9424,-3.9424,-3.9424,-3.9424,-3.9424,-3.9424,-3.9424,-3.9424,-3.9424,-3.9424,-3.9424,-3.9424,-3.9424,-3.9424,-3.9424,-3.9424,-3.9424,-3.9424,-3.9424,-3.9424,-3.9424,-3.9424,-3.9681,-4.0255,-4.1346,-4.1869,-4.2316,-4.3663,-4.4121,-4.431,-4.431,-4.4322,-4.4147,-4.3538,-4.2692,-4.1863,-4.1322,-4.0595,-4.007,-4.007,-4.007,-4.007,-4.007,-4.007,-4.007,-4.007,-4.007,-4.007,-4.007,-4.007,-4.007,-4.007,-4.007,-4.007,-4.007,-4.007,-4.007,-4.007,-4.007,-4.007,-4.007,-4.007,-4.007,-4.007,-4.007,-4.007,-4.007,-4.007,-4.007,-2.6533,-2.6533,-2.6533,-2.6533,-2.6533,-2.6533,0.0,0.0,0.0,0.0,0.0,0.0,0.0,0.0,0.0,-3.1956,-3.297,-3.3859,-3.4566,-3.5133,-3.5504,-3.5504,-3.5504,-3.5504,-3.5504,-3.5504,-3.5504,-3.5504,-3.5504,-3.5504,-3.5504,-3.5504,-3.5639,-3.5953,-3.6911,-3.7584,-3.7943,-3.8931,-3.9424,-3.9424,-3.9424,-3.9424,-3.9424,-3.9424,-3.9424,-3.9424,-3.9424,-3.9424,-3.9424,-3.9424,-3.9424,-3.9424,-3.9424,-3.9424,-3.9424,-3.9424,-3.9424,-3.9424,-3.9424,-3.9424,-3.9424,-3.9424,-3.9424,-3.9481,-3.9864,-3.999,-4.0185,-4.1147,-4.1674,-4.2189,-4.3152,-4.368,-4.4006,-4.4006,-4.4327,-4.4468,-4.4045,-4.3352,-4.2591,-4.1847,-4.1102,-4.0493,-4.0138,-4.007,-4.007,-4.007,-4.007,-4.007,-4.007,-4.007,-4.007,-4.007,-4.007,-4.007,-4.007,-4.007,-4.007,-4.007,-4.007,-4.007,-4.007,-4.007,-4.007,-4.007,-4.007,-4.007,-4.007,-4.007,-4.007,-4.007,-4.007,-4.007,-2.6533,-2.6589,-2.6658,-2.6521,-2.6533,-2.6533,0.0,0.0,0.0,0.0,0.0,0.0,0.0,-2.9834,0.0,-3.1859,-3.2844,-3.3959,-3.5285,-3.5504,-3.5504,-3.5504,-3.5504,-3.5504,-3.5504,-3.5504,-3.5504,-3.5504,-3.5504,-3.5504,-3.5504,-3.5504,-3.5759,-3.6312,-3.6941,-3.7315,-3.7404,-3.8751,-3.9424,-3.9424,-3.9424,-3.9424,-3.9424,-3.9424,-3.9394,-3.9421,-3.9421,-3.9421,-3.9421,-3.9421,-3.9379,-3.9424,-3.9424,-3.9424,-3.9424,-3.9424,-3.9424,-3.9424,-3.9424,-3.9424,-3.9424,-3.9424,-3.9424,-3.9553,-4.0309,-4.0622,-4.0758,-4.0878,-4.1543,-4.2252,-4.2379,-4.297,-4.3502,-4.3502,-4.4064,-4.4587,-4.4587,-4.3961,-4.32,-4.2439,-4.1694,-4.0967,-4.0206,-4.007,-4.007,-4.007,-4.007,-4.007,-4.007,-4.007,-4.007,-4.007,-4.007,-4.007,-4.007,-4.007,-4.007,-4.007,-4.007,-4.007,-4.007,-4.007,-4.007,-4.007,-4.007,-4.007,-4.007,-4.007,-4.007,-4.007,-4.007,-4.007,-2.6533,-2.6973,-2.7351,-2.6658,-2.6533,-2.6533,0.0,0.0,0.0,0.0,0.0,0.0,0.0,-3.0474,-3.1757,-3.3711,-3.4679,-3.524,-3.5489,-3.5504,-3.5504,-3.5504,-3.5504,-3.5504,-3.5504,-3.5504,-3.5504,-3.5504,-3.5504,-3.5504,-3.5504,-3.5504,-3.5549,-3.5654,-3.6282,-3.6881,-3.7404,-3.8751,-3.9424,-3.9424,-3.9424,-3.9424,-3.9424,-3.9424,-3.9418,-3.9405,-3.9405,-3.9405,-3.9405,-3.9405,-3.9414,-3.9424,-3.9424,-3.9424,-3.9424,-3.9424,-3.9424,-3.9424,-3.9424,-3.9424,-3.9424,-3.9424,-3.9424,-3.9409,-3.9538,-4.0115,-4.0878,-4.1593,-4.2458,-4.3306,-4.4006,-4.431,-4.4384,-4.4384,-4.4514,-4.4587,-4.4587,-4.3961,-4.32,-4.2439,-4.1694,-4.0967,-4.0206,-4.007,-4.007,-4.007,-4.007,-4.007,-4.007,-4.007,-4.007,-4.007,-4.007,-4.007,-4.007,-4.007,-4.007,-4.007,-4.007,-4.007,-4.007,-4.007,-4.007,-4.007,-4.007,-4.007,-4.007,-4.007,-4.007,-4.007,-4.007,-4.007,-2.6533,-2.6782,-2.7095,-2.7095,-2.7484,-2.7855,-2.7855,0.0,0.0,0.0,0.0,0.0,0.0,0.0,-3.1944,-3.3662,-3.4831,-3.5504,-3.5504,-3.5504,-3.5504,-3.5504,-3.5504,-3.5504,-3.5504,-3.5504,-3.5504,-3.5504,-3.5504,-3.5504,-3.5504,-3.5504,-3.5504,-3.5504,-3.6462,-3.712,-3.7404,-3.8751,-3.9424,-3.9424,-3.9424,-3.9424,-3.9409,-3.9035,-3.9043,-3.937,-3.8656,-3.8726,-3.9412,-3.941,-3.9405,-3.9414,-3.9421,-3.9424,-3.9424,-3.9424,-3.9424,-3.9424,-3.9424,-3.9424,-3.9424,-3.9424,-3.9424,-3.9481,-3.999,-4.069,-4.1609,-4.2458,-4.2986,-4.3502,-4.4384,-4.4587,-4.4587,-4.4587,-4.4587,-4.4587,-4.4587,-4.4299,-4.3826,-4.3047,-4.2303,-4.1559,-4.0815,-4.0341,-4.007,-4.007,-4.007,-4.007,-4.007,-4.007,-4.007,-4.007,-4.007,-4.007,-4.007,-4.007,-4.007,-4.007,-4.007,-4.007,-4.007,-4.007,-4.007,-4.007,-4.007,-4.007,-4.007,-4.007,-4.007,-4.007,-4.007,-4.007,-2.6521,-2.6658,-2.6905,-2.7537,0.0,-2.8492,-2.8939,0.0,0.0,0.0,0.0,0.0,0.0,-3.1205,-3.2317,-3.3335,-3.4637,-3.5504,-3.5504,-3.5504,-3.5504,-3.5504,-3.5504,-3.5504,-3.5504,-3.5639,-3.5729,-3.5729,-3.5863,-3.5953,-3.5953,-3.5953,-3.5953,-3.5953,-3.6896,-3.7479,-3.7644,-3.8661,-3.926,-3.9424,-3.9424,-3.9424,-3.9394,-3.8871,-3.8757,-3.8852,-3.8166,-3.8447,-3.9367,-3.9092,-3.9149,-3.9395,-3.9406,-3.9424,-3.9424,-3.9424,-3.9424,-3.9424,-3.9424,-3.9424,-3.9424,-3.9424,-3.9553,-3.9864,-4.05,-4.128,-4.2189,-4.3047,-4.3306,-4.3502,-4.4384,-4.4587,-4.4587,-4.4587,-4.4587,-4.4587,-4.4587,-4.4587,-4.435,-4.3572,-4.2946,-4.2269,-4.1373,-4.073,-4.029,-4.0104,-4.007,-4.007,-4.007,-4.007,-4.007,-4.007,-4.007,-4.007,-4.007,-4.007,-4.007,-4.007,-4.007,-4.007,-4.007,-4.007,-4.007,-4.007,-4.007,-4.007,-4.007,-4.007,-4.007,-4.007,-4.007,-4.007,-2.6714,-2.704,-2.7604,-2.767,0.0,0.0,-2.862,-2.8363,0.0,-2.8812,0.0,0.0,0.0,-3.1941,-3.338,-3.3484,-3.4637,-3.5504,-3.5504,-3.5504,-3.5504,-3.5504,-3.5504,-3.5504,-3.5504,-3.6058,-3.6417,-3.6417,-3.6941,-3.727,-3.727,-3.727,-3.727,-3.727,-3.736,-3.7704,-3.8317,-3.8407,-3.8781,-3.9424,-3.9424,-3.9424,-3.9424,-3.9364,-3.8676,-3.7623,-3.8781,-3.9306,-3.9306,-3.8099,-3.8257,-3.9394,-3.9409,-3.9424,-3.9424,-3.9424,-3.9424,-3.9424,-3.9424,-3.9424,-3.9424,-3.9424,-3.992,-4.0622,-4.069,-4.128,-4.2189,-4.3047,-4.3306,-4.3502,-4.4384,-4.4587,-4.4587,-4.4587,-4.4587,-4.4587,-4.4587,-4.4587,-4.435,-4.3572,-4.3369,-4.2878,-4.1457,-4.117,-4.0882,-4.0189,-4.007,-4.007,-4.007,-4.007,-4.007,-4.007,-4.007,-4.007,-4.007,-4.007,-4.007,-4.007,-4.007,-4.007,-4.007,-4.007,-4.007,-4.007,-4.007,-4.007,-4.007,-4.007,-4.007,-4.007,-4.007,-4.007,-2.7351,-2.7484,-2.7868,-2.8363,0.0,0.0,0.0,0.0,0.0,-3.0389,-3.0837,0.0,0.0,-3.269,-3.3634,-3.4038,-3.4891,-3.5504,-3.5504,-3.5504,-3.5504,-3.5504,-3.5504,-3.5504,-3.5504,-3.6103,-3.6492,-3.6492,-3.706,-3.7404,-3.7404,-3.7404,-3.724,-3.6851,-3.721,-3.7524,-3.7778,-3.8182,-3.8736,-3.9424,-3.9424,-3.9424,-3.9409,-3.8829,-3.8642,-3.8542,-3.744,-3.791,-3.9352,-3.8856,-3.8958,-3.9384,-3.9421,-3.9424,-3.9424,-3.9424,-3.9424,-3.9424,-3.9424,-3.9424,-3.9424,-3.9424,-3.999,-4.069,-4.069,-4.1674,-4.2847,-4.3185,-4.368,-4.4196,-4.4514,-4.4587,-4.4587,-4.4587,-4.4587,-4.4587,-4.4587,-4.4587,-4.4485,-4.4198,-4.3741,-4.3234,-4.2675,-4.2202,-4.1779,-4.1491,-4.1457,-4.1457,-4.1457,-4.1457,-4.1271,-4.0832,-4.0358,-4.007,-4.007,-4.007,-4.007,-4.007,-4.007,-4.007,-4.007,-4.007,-4.007,-4.007,-4.007,-4.007,-4.007,-4.007,-4.007,-4.007,-4.007,-4.007,-2.7802,-2.792,-2.8247,0.0,0.0,0.0,0.0,0.0,0.0,-3.1351,-3.1482,-3.1676,-3.2392,-3.3051,-3.3709,-3.4367,-3.5055,-3.5504,-3.5504,-3.5504,-3.5504,-3.5504,-3.5504,-3.5504,-3.5504,-3.6282,-3.6776,-3.6776,-3.7569,-3.8048,-3.8048,-3.8048,-3.7749,-3.7105,-3.7494,-3.7614,-3.7404,-3.8063,-3.8631,-3.9095,-3.932,-3.9424,-3.9409,-3.877,-3.8807,-3.934,-3.7535,-3.7734,-3.9436,-3.9395,-3.939,-3.9425,-3.9406,-3.9424,-3.9424,-3.9424,-3.9424,-3.9424,-3.9424,-3.9424,-3.9424,-3.9424,-3.999,-4.0758,-4.1013,-4.2125,-4.3366,-4.3621,-4.4138,-4.4587,-4.4587,-4.4587,-4.4587,-4.4587,-4.4587,-4.4587,-4.4587,-4.4587,-4.4587,-4.4587,-4.4147,-4.3707,-4.3453,-4.298,-4.2574,-4.2337,-4.2286,-4.2286,-4.2286,-4.2286,-4.21,-4.1593,-4.1085,-4.0679,-4.046,-4.0443,-4.0341,-4.0087,-4.007,-4.007,-4.007,-4.007,-4.007,-4.007,-4.007,-4.007,-4.007,-4.007,-4.007,-4.007,-4.007,-4.007,-2.7986,-2.8363,0.0,0.0,0.0,0.0,0.0,0.0,-3.0524,-3.1351,-3.1482,-3.1676,-3.2392,-3.3051,-3.3709,-3.4367,-3.5055,-3.5504,-3.5504,-3.5504,-3.5504,-3.5504,-3.5504,-3.5504,-3.5504,-3.6656,-3.7404,-3.7404,-3.8646,-3.9394,-3.9394,-3.9394,-3.908,-3.8392,-3.8362,-3.8063,-3.7404,-3.8048,-3.8377,-3.8407,-3.9095,-3.9424,-3.9424,-3.9424,-3.9403,-3.9415,-3.9415,-3.9415,-3.9415,-3.9415,-3.9369,-3.9424,-3.9424,-3.9424,-3.9424,-3.9424,-3.9424,-3.9424,-3.9424,-3.9424,-3.9424,-3.9424,-3.999,-4.0878,-4.1739,-4.2583,-4.3502,-4.4384,-4.4587,-4.4587,-4.4587,-4.4587,-4.4587,-4.4587,-4.4587,-4.4587,-4.4587,-4.4587,-4.4587,-4.4587,-4.4587,-4.4333,-4.3555,-4.3436,-4.3166,-4.2422,-4.2303,-4.2303,-4.2303,-4.2303,-4.2303,-4.2303,-4.2286,-4.1999,-4.1271,-4.1221,-4.0899,-4.0155,-4.0104,-4.0087,-4.007,-4.0087,-4.0087,-4.0087,-4.0104,-4.0104,-4.0104,-4.0104,-4.0104,-4.0087,-4.0087,-4.0087,-2.9566,0.0,0.0,0.0,0.0,0.0,0.0,0.0,0.0,0.0,-3.1482,-3.1676,-3.2392,-3.3051,-3.3709,-3.4367,-3.5055,-3.5504,-3.5504,-3.5504,-3.5504,-3.5504,-3.5504,-3.5504,-3.5504,-3.6267,-3.6761,-3.6761,-3.7539,-3.8003,-3.8003,-3.8003,-3.7719,-3.7075,-3.7045,-3.6956,-3.6761,-3.7389,-3.7928,-3.8407,-3.9095,-3.9424,-3.9424,-3.9424,-3.9364,-3.9433,-3.9433,-3.9433,-3.9433,-3.9433,-3.9406,-3.9424,-3.9424,-3.9424,-3.9424,-3.9424,-3.9424,-3.9424,-3.9424,-3.9424,-3.9424,-3.9424,-4.0378,-4.1674,-4.1933,-4.3031,-4.4253,-4.4514,-4.4587,-4.4587,-4.4587,-4.4587,-4.4587,-4.4587,-4.4587,-4.4587,-4.4587,-4.4587,-4.4587,-4.4587,-4.4587,-4.4502,-4.4282,-4.4231,-4.4164,-4.3927,-4.3893,-4.3893,-4.3893,-4.342,-4.3081,-4.3081,-4.2608,-4.2202,-4.1982,-4.1965,-4.1863,-4.1644,-4.1627,-4.117,-4.0121,-4.0595,-4.0865,-4.0865,-4.1373,-4.1627,-4.1627,-4.1627,-4.1373,-4.0865,-4.0865,-4.0595,-3.0208,0.0,0.0,0.0,0.0,-3.1351,-3.0896,0.0,0.0,0.0,-3.1482,-3.1676,-3.2392,-3.3051,-3.3709,-3.4367,-3.5055,-3.5504,-3.5504,-3.5504,-3.5504,-3.5504,-3.5504,-3.5504,-3.5504,-3.6103,-3.6492,-3.6492,-3.706,-3.7404,-3.7404,-3.7404,-3.712,-3.6507,-3.6492,-3.6357,-3.6103,-3.6971,-3.7599,-3.8003,-3.896,-3.9424,-3.9424,-3.9424,-3.9424,-3.9424,-3.9424,-3.9424,-3.9424,-3.9424,-3.9424,-3.9424,-3.9424,-3.9424,-3.9424,-3.9424,-3.9424,-3.9424,-3.9424,-3.9424,-3.9424,-3.9424,-4.0324,-4.1543,-4.1869,-4.297,-4.4138,-4.4514,-4.4587,-4.4587,-4.4587,-4.4587,-4.4587,-4.4587,-4.4587,-4.4587,-4.4587,-4.4587,-4.4587,-4.4587,-4.4587,-4.4587,-4.4587,-4.4587,-4.4587,-4.4587,-4.4587,-4.4587,-4.4587,-4.4181,-4.3876,-4.3876,-4.347,-4.3064,-4.276,-4.2743,-4.2608,-4.2303,-4.2286,-4.188,-4.1001,-4.139,-4.1644,-4.1644,-4.2066,-4.2286,-4.2286,-4.2286,-4.2066,-4.1644,-4.1644,-4.139,-3.0147,0.0,0.0,0.0,0.0,0.0,-3.1482,-3.1482,-3.1482,-3.1482,-3.1482,-3.1719,-3.2317,-3.3021,-3.3694,-3.4292,-3.5011,-3.5504,-3.5504,-3.5504,-3.5504,-3.5504,-3.5504,-3.5504,-3.5504,-3.6043,-3.6402,-3.6402,-3.6926,-3.724,-3.724,-3.724,-3.6985,-3.6417,-3.6402,-3.6118,-3.5504,-3.6716,-3.736,-3.7419,-3.8706,-3.9364,-3.9424,-3.9424,-3.9424,-3.9424,-3.9424,-3.9424,-3.9424,-3.9424,-3.9424,-3.9424,-3.9424,-3.9424,-3.9424,-3.9424,-3.9424,-3.9424,-3.9424,-3.9424,-3.9424,-3.9424,-3.999,-4.0878,-4.1739,-4.2583,-4.3486,-4.4327,-4.4587,-4.4587,-4.4587,-4.4587,-4.4587,-4.4587,-4.4587,-4.4587,-4.4587,-4.4587,-4.4587,-4.4587,-4.4587,-4.4587,-4.4587,-4.4587,-4.4587,-4.4587,-4.4587,-4.4587,-4.4587,-4.4587,-4.4587,-4.4587,-4.4587,-4.4282,-4.3589,-4.3521,-4.3234,-4.254,-4.2506,-4.2506,-4.2506,-4.2422,-4.2388,-4.2388,-4.2455,-4.2506,-4.2506,-4.2506,-4.2455,-4.2388,-4.2388,-4.2354,0.0,-3.1351,0.0,0.0,-3.1482,-3.1482,-3.1482,-3.1482,-3.1482,-3.1482,-3.1482,-3.1511,-3.1719,-3.2706,-3.3544,-3.3679,-3.4711,-3.5504,-3.5504,-3.5504,-3.5504,-3.5504,-3.5504,-3.5504,-3.5504,-3.5624,-3.5714,-3.5714,-3.5848,-3.5908,-3.5908,-3.5908,-3.5848,-3.5729,-3.5714,-3.5654,-3.5504,-3.6282,-3.6926,-3.7419,-3.8227,-3.8901,-3.9424,-3.9424,-3.9424,-3.9424,-3.9424,-3.9424,-3.9424,-3.9424,-3.9424,-3.9424,-3.9424,-3.9424,-3.9424,-3.9424,-3.9424,-3.9424,-3.9424,-3.9424,-3.9424,-3.9424,-3.999,-4.0878,-4.1739,-4.2583,-4.3486,-4.4327,-4.4587,-4.4587,-4.4587,-4.4587,-4.4587,-4.4587,-4.4587,-4.4587,-4.4587,-4.4587,-4.4587,-4.4587,-4.4587,-4.4587,-4.4587,-4.4587,-4.4587,-4.4587,-4.4587,-4.4587,-4.4587,-4.4587,-4.4587,-4.4587,-4.4587,-4.4502,-4.435,-4.4333,-4.4265,-4.4096,-4.4096,-4.4096,-4.4096,-4.3504,-4.3166,-4.3166,-4.3775,-4.4096,-4.4096,-4.4096,-4.3775,-4.3166,-4.3166,-4.2861,0.0,0.0,0.0,0.0,0.0,-3.1482,-3.1482,-3.1482,-3.1482,-3.1482,-3.1482,-3.1482,-3.1482,-3.2347,-3.3125,-3.344,-3.4352,-3.513,-3.5459,-3.5504,-3.5504,-3.5504,-3.5504,-3.5504,-3.5504,-3.5504,-3.5504,-3.5504,-3.5504,-3.5504,-3.5504,-3.5504,-3.5504,-3.5504,-3.5504,-3.5504,-3.5504,-3.6148,-3.6656,-3.6971,-3.7614,-3.8272,-3.8931,-3.9275,-3.9424,-3.9424,-3.9424,-3.9424,-3.9424,-3.9424,-3.9424,-3.9424,-3.9424,-3.9424,-3.9424,-3.9424,-3.9424,-3.9424,-3.9424,-3.9424,-3.9424,-3.9424,-3.999,-4.0811,-4.1213,-4.1997,-4.2847,-4.3739,-4.4006,-4.4064,-4.4514,-4.4587,-4.4587,-4.4587,-4.4587,-4.4587,-4.4587,-4.4587,-4.4587,-4.4587,-4.4587,-4.4587,-4.4587,-4.4587,-4.4587,-4.4587,-4.4587,-4.4587,-4.4587,-4.4587,-4.4587,-4.4587,-4.4587,-4.4587,-4.4587,-4.4587,-4.4587,-4.4587,-4.4587,-4.4587,-4.4587,-4.4198,-4.3978,-4.3978,-4.4367,-4.4587,-4.4587,-4.4587,-4.4367,-4.3978,-4.3978,-4.3758,0.0,0.0,0.0,0.0,-3.1482,0.0,-3.1482,-3.1482,-3.1482,-3.1482,-3.1482,-3.1482,-3.1482,-3.2078,-3.2691,-3.3245,-3.3978,-3.4666,-3.525,-3.5429,-3.5504,-3.5504,-3.5504,-3.5504,-3.5504,-3.5504,-3.5504,-3.5504,-3.5504,-3.5504,-3.5504,-3.5504,-3.5504,-3.5504,-3.5504,-3.5504,-3.5504,-3.6043,-3.6372,-3.6492,-3.7105,-3.7689,-3.8242,-3.8931,-3.9305,-3.9424,-3.9424,-3.9424,-3.9424,-3.9424,-3.9424,-3.9424,-3.9424,-3.9424,-3.9424,-3.9424,-3.9424,-3.9424,-3.9424,-3.9424,-3.9424,-3.9424,-3.9864,-4.05,-4.0622,-4.1213,-4.1997,-4.2986,-4.3306,-4.3502,-4.4384,-4.4587,-4.4587,-4.4587,-4.4587,-4.4587,-4.4587,-4.4587,-4.4587,-4.4587,-4.4587,-4.4587,-4.4587,-4.4587,-4.4587,-4.4587,-4.4587,-4.4587,-4.4587,-4.4587,-4.4587,-4.4587,-4.4587,-4.4587,-4.4587,-4.4587,-4.4587,-4.4587,-4.4587,-4.4587,-4.4587,-4.4587,-4.4587,-4.4587,-4.4587,-4.4587,-4.4587,-4.4587,-4.4587,-4.4587,-4.4587,-4.4587,0.0,0.0,0.0,0.0,-3.1482,-3.1482,0.0,0.0,-3.1482,-3.1482,-3.1482,-3.1482,-3.1482,-3.2078,-3.2542,-3.2632,-3.3679,-3.4502,-3.4607,-3.513,-3.5504,-3.5504,-3.5504,-3.5504,-3.5504,-3.5504,-3.5504,-3.5504,-3.5504,-3.5504,-3.5504,-3.5504,-3.5504,-3.5504,-3.5504,-3.5504,-3.5504,-3.5594,-3.5923,-3.6492,-3.7105,-3.7464,-3.7569,-3.8227,-3.8856,-3.9424,-3.9424,-3.9424,-3.9424,-3.9424,-3.9424,-3.9424,-3.9424,-3.9424,-3.9424,-3.9424,-3.9424,-3.9424,-3.9424,-3.9424,-3.9424,-3.9424,-3.9481,-3.9737,-4.05,-4.0758,-4.1213,-4.2847,-4.3306,-4.3502,-4.4384,-4.4587,-4.4587,-4.4587,-4.4587,-4.4587,-4.4587,-4.4587,-4.4587,-4.4587,-4.4587,-4.4587,-4.4587,-4.4587,-4.4587,-4.4587,-4.4587,-4.4587,-4.4587,-4.4587,-4.4587,-4.4587,-4.4587,-4.4587,-4.4587,-4.4587,-4.4587,-4.4587,-4.4587,-4.4587,-4.4587,-4.4587,-4.4587,-4.4587,-4.4587,-4.4587,-4.4587,-4.4587,-4.4587,-4.4587,-4.4587,-4.4587,-3.1304,0.0,0.0,0.0,-3.1482,-3.1482,-3.1482,-3.1482,-3.1482,-3.1482,-3.1482,-3.1482,-3.1482,-3.1764,-3.2078,-3.2452,-3.3006,-3.3499,-3.3873,-3.4502,-3.4936,-3.4936,-3.5265,-3.5504,-3.5504,-3.5504,-3.5504,-3.5504,-3.5504,-3.5504,-3.5504,-3.5504,-3.5504,-3.5504,-3.5504,-3.5504,-3.5504,-3.5504,-3.5654,-3.5953,-3.6582,-3.6896,-3.6911,-3.7554,-3.8402,-3.9399,-3.9421,-3.9373,-3.9425,-3.9418,-3.9429,-3.9525,-4.0469,-4.0646,-4.0307,-4.0146,-4.0115,-4.006,-3.9538,-3.9424,-3.9424,-3.9424,-3.9424,-3.9481,-3.9864,-4.0309,-4.0946,-4.2189,-4.2909,-4.3502,-4.4384,-4.4587,-4.4587,-4.4587,-4.4587,-4.4587,-4.4587,-4.4587,-4.4587,-4.4587,-4.4587,-4.4587,-4.4587,-4.4587,-4.4587,-4.4587,-4.4587,-4.4587,-4.4587,-4.4587,-4.4587,-4.4587,-4.4587,-4.4587,-4.4587,-4.4587,-4.4587,-4.4587,-4.4587,-4.4587,-4.4587,-4.4587,-4.4587,-4.4587,-4.4587,-4.4587,-4.4587,-4.4587,-4.4587,-4.4587,-4.4587,-4.4587,0.0,0.0,0.0,-3.1482,-3.1482,-3.1482,0.0,-3.1482,-3.1482,-3.1482,-3.1482,-3.1482,-3.1482,-3.1482,-3.1631,-3.2183,-3.2407,-3.2677,-3.3185,-3.3814,-3.4233,-3.4233,-3.4831,-3.525,-3.525,-3.54,-3.5504,-3.5504,-3.5504,-3.5504,-3.5504,-3.5504,-3.5504,-3.5504,-3.5504,-3.5504,-3.5504,-3.5504,-3.5504,-3.5504,-3.6013,-3.6237,-3.6252,-3.6881,-3.7736,-3.8656,-3.9178,-3.939,-3.9444,-3.9914,-3.9788,-3.9557,-4.0801,-4.161,-4.1878,-4.1109,-4.0586,-4.0309,-3.961,-3.9424,-3.9424,-3.9424,-3.9424,-3.9424,-3.9424,-3.999,-4.0878,-4.1723,-4.2645,-4.3502,-4.4384,-4.4587,-4.4587,-4.4587,-4.4587,-4.4587,-4.4587,-4.4587,-4.4587,-4.4587,-4.4587,-4.4587,-4.4587,-4.4587,-4.4587,-4.4587,-4.4587,-4.4587,-4.4587,-4.4587,-4.4587,-4.4587,-4.4587,-4.4587,-4.4587,-4.4587,-4.4587,-4.4587,-4.4587,-4.4587,-4.4587,-4.4587,-4.4587,-4.4587,-4.4587,-4.4587,-4.4587,-4.4587,-4.4587,-4.4587,-4.4587,-4.4587,0.0,-3.1482,0.0,-3.1482,-3.1482,0.0,-3.1482,-3.1482,-3.1482,-3.1482,-3.1482,-3.1482,-3.1482,-3.1482,-3.1482,-3.1526,-3.2108,-3.2527,-3.2557,-3.3125,-3.3544,-3.3544,-3.4128,-3.4532,-3.4532,-3.5115,-3.5504,-3.5504,-3.5504,-3.5504,-3.5504,-3.5504,-3.5504,-3.5504,-3.5504,-3.5504,-3.5504,-3.5504,-3.5504,-3.5504,-3.5549,-3.5549,-3.5579,-3.6237,-3.6567,-3.6768,-3.8581,-3.9415,-3.9546,-4.1153,-4.0882,-3.939,-3.9485,-4.1518,-4.4145,-4.1888,-4.0398,-3.9481,-3.9424,-3.9424,-3.9424,-3.9424,-3.9424,-3.9424,-3.9424,-3.999,-4.0878,-4.1723,-4.2645,-4.3502,-4.4384,-4.4587,-4.4587,-4.4587,-4.4587,-4.4587,-4.4587,-4.4587,-4.4587,-4.4587,-4.4587,-4.4587,-4.4587,-4.4587,-4.4587,-4.4587,-4.4587,-4.4587,-4.4587,-4.4587,-4.4587,-4.4587,-4.4587,-4.4587,-4.4587,-4.4587,-4.4587,-4.4587,-4.4587,-4.4587,-4.4587,-4.4587,-4.4587,-4.4587,-4.4587,-4.4587,-4.4587,-4.4587,-4.4587,-4.4587,-4.4587,-4.4587,0.0,0.0,0.0,-3.1482,-3.1482,-3.1482,-3.1482,-3.1482,-3.1482,-3.1482,-3.1482,-3.1482,-3.1482,-3.1482,-3.1482,-3.1482,-3.1676,-3.1884,-3.1884,-3.2452,-3.2871,-3.2871,-3.344,-3.3844,-3.3844,-3.4442,-3.4846,-3.4846,-3.525,-3.5504,-3.5504,-3.5504,-3.5504,-3.5504,-3.5504,-3.5504,-3.5504,-3.5504,-3.5504,-3.5504,-3.5504,-3.5504,-3.5519,-3.5744,-3.5863,-3.5908,-3.7076,-3.8258,-3.9465,-4.0045,-3.9923,-3.9489,-4.0616,-4.1155,-4.1299,-4.155,-4.1171,-4.0392,-3.964,-3.9424,-3.9424,-3.9424,-3.9809,-4.0239,-4.0239,-4.1213,-4.2458,-4.2724,-4.3486,-4.4196,-4.4514,-4.4587,-4.4587,-4.4587,-4.4587,-4.4587,-4.4587,-4.4587,-4.4587,-4.4587,-4.4587,-4.4587,-4.4587,-4.4587,-4.4587,-4.4587,-4.4587,-4.4587,-4.4587,-4.4587,-4.4587,-4.4587,-4.4587,-4.4587,-4.4587,-4.4587,-4.4587,-4.4587,-4.4587,-4.4587,-4.4587,-4.4587,-4.4587,-4.4587,-4.4587,-4.4587,-4.4587,-4.4587,-4.4587,-4.4587,-4.4587,-4.4587,-3.1061,0.0,0.0,0.0,-3.1482,-3.1482,-3.1482,-3.1482,-3.1482,-3.1482,-3.1482,-3.1482,-3.1482,-3.1482,-3.1482,-3.1482,-3.1482,-3.1482,-3.1482,-3.1855,-3.2183,-3.2183,-3.2766,-3.3155,-3.3155,-3.3769,-3.4247,-3.4457,-3.4906,-3.5265,-3.5489,-3.5504,-3.5504,-3.5504,-3.5504,-3.5504,-3.5504,-3.5504,-3.5504,-3.5504,-3.5504,-3.5504,-3.5504,-3.5504,-3.5504,-3.5534,-3.5968,-3.702,-3.8442,-3.8871,-3.9176,-3.9502,-4.0655,-4.0416,-3.9504,-4.0716,-4.0901,-4.0392,-3.964,-3.964,-3.994,-3.9879,-4.0447,-4.1147,-4.1147,-4.2125,-4.3306,-4.3306,-4.3948,-4.4587,-4.4587,-4.4587,-4.4587,-4.4587,-4.4587,-4.4587,-4.4587,-4.4587,-4.4587,-4.4587,-4.4587,-4.4587,-4.4587,-4.4587,-4.4587,-4.4587,-4.4587,-4.4587,-4.4587,-4.4587,-4.4587,-4.4587,-4.4587,-4.4587,-4.4587,-4.4587,-4.4587,-4.4587,-4.4587,-4.4587,-4.4587,-4.4587,-4.4587,-4.4587,-4.4587,-4.4587,-4.4587,-4.4587,-4.4587,-4.4587,-4.4587,-4.4587,0.0,0.0,0.0,0.0,-3.1482,-3.1482,-3.1482,-3.1482,-3.1482,-3.1482,-3.1482,-3.1482,-3.1482,-3.1482,-3.1482,-3.1482,-3.1482,-3.1482,-3.1482,-3.1482,-3.1482,-3.1482,-3.2093,-3.2482,-3.2482,-3.308,-3.3724,-3.4367,-3.4442,-3.4741,-3.5429,-3.5489,-3.5504,-3.5504,-3.5504,-3.5504,-3.5504,-3.5504,-3.5504,-3.5504,-3.5504,-3.5504,-3.5504,-3.5504,-3.5504,-3.5504,-3.5504,-3.5863,-3.6552,-3.7823,-3.8743,-3.939,-3.942,-3.939,-3.9436,-3.9414,-3.9424,-3.9424,-3.9439,-4.0182,-4.1044,-4.0805,-4.128,-4.1997,-4.1997,-4.2645,-4.3366,-4.3366,-4.3948,-4.4587,-4.4587,-4.4587,-4.4587,-4.4587,-4.4587,-4.4587,-4.4587,-4.4587,-4.4587,-4.4587,-4.4587,-4.4587,-4.4587,-4.4587,-4.4587,-4.4587,-4.4587,-4.4587,-4.4587,-4.4587,-4.4587,-4.4587,-4.4587,-4.4587,-4.4587,-4.4587,-4.4587,-4.4587,-4.4587,-4.4587,-4.4587,-4.4587,-4.4587,-4.4587,-4.4587,-4.4587,-4.4587,-4.4587,-4.4587,-4.4587,-4.4587,-4.4587,-3.0253,0.0,0.0,0.0,0.0,0.0,-3.1482,-3.1482,-3.1482,-3.1482,-3.1482,-3.1482,-3.1482,-3.1482,-3.1482,-3.1482,-3.1482,-3.1482,-3.1482,-3.1482,-3.1482,-3.1482,-3.1631,-3.1809,-3.1809,-3.2392,-3.2856,-3.3036,-3.3499,-3.4053,-3.4726,-3.5235,-3.5504,-3.5504,-3.5504,-3.5504,-3.5504,-3.5504,-3.5504,-3.5504,-3.5504,-3.5504,-3.5504,-3.5504,-3.5504,-3.5504,-3.5504,-3.5609,-3.5833,-3.6671,-3.7963,-3.9397,-3.943,-3.941,-3.9399,-3.9421,-3.9424,-3.9598,-4.0839,-4.0677,-3.9996,-4.0516,-4.128,-4.1997,-4.1997,-4.3031,-4.4253,-4.4253,-4.4384,-4.4587,-4.4587,-4.4587,-4.4587,-4.4587,-4.4587,-4.4587,-4.4587,-4.4587,-4.4587,-4.4587,-4.4587,-4.4587,-4.4587,-4.4587,-4.4587,-4.4587,-4.4587,-4.4587,-4.4587,-4.4587,-4.4587,-4.4587,-4.4587,-4.4587,-4.4587,-4.4587,-4.4587,-4.4587,-4.4587,-4.4587,-4.4587,-4.4587,-4.4587,-4.4587,-4.4587,-4.4587,-4.4587,-4.4587,-4.4587,-4.4587,-4.4587,-4.4587,-2.9505,-3.0103,-3.0597,-3.1001,0.0,0.0,-3.1482,-3.1482,-3.1482,-3.1482,-3.1482,-3.1482,-3.1482,-3.1482,-3.1482,-3.1482,-3.1482,-3.1482,-3.1482,-3.1482,-3.1482,-3.1482,-3.1482,-3.1482,-3.1482,-3.1884,-3.2213,-3.2497,-3.2871,-3.338,-3.4038,-3.4711,-3.507,-3.507,-3.5355,-3.5504,-3.5504,-3.5504,-3.5504,-3.5504,-3.5504,-3.5504,-3.5504,-3.5504,-3.5504,-3.5504,-3.5504,-3.5504,-3.5534,-3.5923,-3.6955,-3.828,-3.9058,-3.9365,-3.9403,-3.9379,-3.9424,-3.9526,-4.0552,-4.1225,-4.1501,-4.1049,-4.1853,-4.3092,-4.3092,-4.3798,-4.4587,-4.4587,-4.4587,-4.4587,-4.4587,-4.4587,-4.4587,-4.4587,-4.4587,-4.4587,-4.4587,-4.4587,-4.4587,-4.4587,-4.4587,-4.4587,-4.4587,-4.4587,-4.4587,-4.4587,-4.4587,-4.4587,-4.4587,-4.4587,-4.4587,-4.4587,-4.4587,-4.4587,-4.4587,-4.4587,-4.4587,-4.4587,-4.4587,-4.4587,-4.4587,-4.4587,-4.4587,-4.4587,-4.4587,-4.4587,-4.4587,-4.4587,-4.4587,-4.4587,-4.4587,-4.4587,0.0,0.0,0.0,-3.0387,-3.0911,0.0,-3.1362,-3.1422,-3.1482,-3.1482,-3.1482,-3.1482,-3.1482,-3.1482,-3.1482,-3.1482,-3.1482,-3.1482,-3.1482,-3.1482,-3.1482,-3.1482,-3.1482,-3.1482,-3.1482,-3.1482,-3.1779,-3.2362,-3.2482,-3.2766,-3.3365,-3.4008,-3.4367,-3.4367,-3.504,-3.5385,-3.5385,-3.5474,-3.5504,-3.5504,-3.5504,-3.5504,-3.5504,-3.5504,-3.5504,-3.5504,-3.5504,-3.5504,-3.5504,-3.5504,-3.5893,-3.6708,-3.8476,-3.9294,-3.9375,-3.9376,-3.9424,-3.9424,-3.961,-4.1585,-4.3767,-4.2029,-4.2829,-4.4406,-4.444,-4.4514,-4.4587,-4.4587,-4.4587,-4.4587,-4.4587,-4.4587,-4.4587,-4.4587,-4.4587,-4.4587,-4.4587,-4.4587,-4.4587,-4.4587,-4.4587,-4.4587,-4.4587,-4.4587,-4.4587,-4.4587,-4.4587,-4.4587,-4.4587,-4.4587,-4.4587,-4.4587,-4.4587,-4.4587,-4.4587,-4.4587,-4.4587,-4.4587,-4.4587,-4.4587,-4.4587,-4.4587,-4.4587,-4.4587,-4.4587,-4.4587,-4.4587,-4.4587,-4.4587,-4.4587,-4.4587,-4.4587,-2.8442,-2.8786,-2.9101,-2.9624,-3.0238,0.0,-3.0717,-3.1135,-3.1482,-3.1482,-3.1482,-3.1482,-3.1482,-3.1482,-3.1482,-3.1482,-3.1482,-3.1482,-3.1482,-3.1482,-3.1482,-3.1482,-3.1482,-3.1482,-3.1482,-3.1482,-3.1526,-3.1719,-3.2213,-3.2572,-3.2706,-3.332,-3.3694,-3.3694,-3.4337,-3.4681,-3.4681,-3.5235,-3.5504,-3.5504,-3.5504,-3.5504,-3.5504,-3.5504,-3.5504,-3.5504,-3.5504,-3.5504,-3.5504,-3.5504,-3.5893,-3.6567,-3.7458,-3.8436,-3.9375,-3.9376,-3.9424,-3.961,-4.1028,-4.099,-4.0829,-4.316,-4.3564,-4.3195,-4.3436,-4.4064,-4.4587,-4.4587,-4.4587,-4.4587,-4.4587,-4.4587,-4.4587,-4.4587,-4.4587,-4.4587,-4.4587,-4.4587,-4.4587,-4.4587,-4.4587,-4.4587,-4.4587,-4.4587,-4.4587,-4.4587,-4.4587,-4.4587,-4.4587,-4.4587,-4.4587,-4.4587,-4.4587,-4.4587,-4.4587,-4.4587,-4.4587,-4.4587,-4.4587,-4.4587,-4.4587,-4.4587,-4.4587,-4.4587,-4.4587,-4.4587,-4.4587,-4.4587,-4.4587,-4.4587,-4.4587,-4.4587,-2.7993,-2.8338,-2.8682,-2.9011,-2.9564,0.0,0.0,-3.0552,-3.1016,-3.1016,-3.13,-3.1482,-3.1482,-3.1482,-3.1482,-3.1482,-3.1482,-3.1482,-3.1482,-3.1482,-3.1482,-3.1482,-3.1482,-3.1482,-3.1482,-3.1482,-3.1482,-3.1482,-3.1839,-3.2018,-3.2018,-3.2647,-3.3006,-3.3006,-3.3649,-3.4143,-3.4472,-3.4816,-3.516,-3.5504,-3.5504,-3.5504,-3.5504,-3.5504,-3.5504,-3.5504,-3.5504,-3.5504,-3.5504,-3.5504,-3.5699,-3.6058,-3.6701,-3.7533,-3.8482,-3.9159,-3.9433,-3.9538,-4.0393,-4.0707,-4.111,-4.3714,-4.4208,-4.3723,-4.3898,-4.4253,-4.4587,-4.4587,-4.4587,-4.4587,-4.4587,-4.4587,-4.4587,-4.4587,-4.4587,-4.4587,-4.4587,-4.4587,-4.4587,-4.4587,-4.4587,-4.4587,-4.4587,-4.4587,-4.4587,-4.4587,-4.4587,-4.4587,-4.4587,-4.4587,-4.4587,-4.4587,-4.4587,-4.4587,-4.4587,-4.4587,-4.4587,-4.4587,-4.4587,-4.4587,-4.4587,-4.4587,-4.4587,-4.4587,-4.4587,-4.4587,-4.4587,-4.4587,-4.4587,-4.4587,-4.4587,-4.4587,-2.7625,-2.7979,-2.8412,-2.8412,-2.8906,-2.94,0.0,0.0,0.0,-3.0328,-3.0866,-3.1345,-3.1345,-3.1377,-3.1437,-3.1302,-3.145,-3.1422,-3.136,-3.1392,-3.1482,-3.1482,-3.1482,-3.1482,-3.1482,-3.1482,-3.1482,-3.1482,-3.1482,-3.1482,-3.1482,-3.2033,-3.2332,-3.2332,-3.2961,-3.3559,-3.4098,-3.4352,-3.4756,-3.531,-3.5444,-3.5504,-3.5504,-3.5504,-3.5504,-3.5504,-3.5504,-3.5504,-3.5504,-3.5504,-3.5504,-3.5564,-3.6237,-3.6791,-3.736,-3.8747,-3.9279,-3.9391,-3.9403,-4.0346,-4.1788,-4.3523,-4.4318,-4.4587,-4.4587,-4.4587,-4.4587,-4.4587,-4.4587,-4.4587,-4.4587,-4.4587,-4.4587,-4.4587,-4.4587,-4.4587,-4.4587,-4.4587,-4.4587,-4.4587,-4.4587,-4.4587,-4.4587,-4.4587,-4.4587,-4.4587,-4.4587,-4.4587,-4.4587,-4.4587,-4.4587,-4.4587,-4.4587,-4.4587,-4.4587,-4.4587,-4.4587,-4.4587,-4.4587,-4.4587,-4.4587,-4.4587,-4.4587,-4.4587,-4.4587,-4.4587,-4.4587,-4.4587,-4.4587,-4.4587,-4.4587,-4.4587,-2.7625,-2.7685,-2.7679,-2.7679,-2.8203,-2.8712,-2.8712,0.0,-2.9684,-2.9684,0.0,-3.0612,-3.0612,0.0,0.0,-3.0717,-3.1135,-3.1315,-3.0717,-3.115,-3.1482,-3.1482,-3.1482,-3.1482,-3.1482,-3.1482,-3.1482,-3.1482,-3.1482,-3.1482,-3.1482,-3.1541,-3.1586,-3.1586,-3.2273,-3.2662,-3.2736,-3.3888,-3.4517,-3.4607,-3.522,-3.5504,-3.5504,-3.5504,-3.5504,-3.5504,-3.5504,-3.5504,-3.5504,-3.5504,-3.5504,-3.5564,-3.6237,-3.6537,-3.6746,-3.8072,-3.8903,-3.9415,-3.9405,-3.9557,-3.9962,-4.1703,-4.3348,-4.4587,-4.4587,-4.4587,-4.4587,-4.4587,-4.4587,-4.4587,-4.4587,-4.4587,-4.4587,-4.4587,-4.4587,-4.4587,-4.4587,-4.4587,-4.4587,-4.4587,-4.4587,-4.4587,-4.4587,-4.4587,-4.4587,-4.4587,-4.4587,-4.4587,-4.4587,-4.4587,-4.4587,-4.4587,-4.4587,-4.4587,-4.4587,-4.4587,-4.4587,-4.4587,-4.4587,-4.4587,-4.4587,-4.4587,-4.4587,-4.4587,-4.4587,-4.4587,-4.4587,-4.4587,-4.4587,-4.4587,-4.4587,-4.4587,-2.7625,-2.786,-2.8042,-2.766,-2.8072,-2.8434,-2.8096,-2.8532,-2.9011,-2.9011,0.0,0.0,0.0,0.0,0.0,0.0,-3.0746,-3.0971,-3.1091,-3.1287,-3.1482,-3.1482,-3.1482,-3.1482,-3.1482,-3.1482,-3.1482,-3.1482,-3.1482,-3.1482,-3.1482,-3.1482,-3.1482,-3.1482,-3.1735,-3.2138,-3.2512,-3.3066,-3.3724,-3.4472,-3.4771,-3.5115,-3.5504,-3.5504,-3.5504,-3.5504,-3.5504,-3.5504,-3.5504,-3.5504,-3.5504,-3.5534,-3.5804,-3.6148,-3.6552,-3.709,-3.7683,-3.8286,-3.8576,-3.8635,-3.8908,-4.0377,-4.2539,-4.4511,-4.3905,-4.3715,-4.3664,-4.3373,-4.325,-4.325,-4.325,-4.325,-4.3352,-4.3809,-4.391,-4.4028,-4.4485,-4.4587,-4.4587,-4.4587,-4.4587,-4.4587,-4.4587,-4.4587,-4.4587,-4.4587,-4.4587,-4.4587,-4.4587,-4.4587,-4.4587,-4.4587,-4.4587,-4.4587,-4.4587,-4.4587,-4.4587,-4.4587,-4.4587,-4.4587,-4.4587,-4.4587,-4.4587,-4.4587,-4.4587,-4.4587,-4.4587,-4.4587,-4.4587,-4.4587,-4.4587,-4.4587,-2.7625,-2.7894,-2.814,-2.771,-2.7944,-2.814,-2.771,-2.8101,-2.855,-2.855,-2.9234,0.0,0.0,0.0,-3.0107,-3.0235,0.0,-3.0875,-3.1207,-3.1399,-3.1482,-3.1482,-3.1482,-3.1482,-3.1482,-3.1482,-3.1482,-3.1482,-3.1482,-3.1482,-3.1482,-3.1482,-3.1482,-3.1482,-3.1482,-3.1706,-3.2243,-3.2422,-3.2991,-3.3948,-3.4307,-3.4741,-3.5235,-3.5415,-3.5504,-3.5504,-3.5504,-3.5504,-3.5504,-3.5504,-3.5504,-3.5504,-3.5504,-3.5804,-3.6237,-3.6417,-3.6776,-3.721,-3.7721,-3.804,-3.8419,-4.0096,-4.2172,-4.3814,-4.2938,-4.2698,-4.2647,-4.239,-4.2286,-4.2286,-4.2286,-4.2286,-4.2422,-4.298,-4.3115,-4.3318,-4.4096,-4.4265,-4.4333,-4.4536,-4.4587,-4.4587,-4.4587,-4.4587,-4.4587,-4.4587,-4.4587,-4.4587,-4.4587,-4.4587,-4.4587,-4.4587,-4.4587,-4.4587,-4.4587,-4.4587,-4.4587,-4.4587,-4.4587,-4.4587,-4.4587,-4.4587,-4.4587,-4.4587,-4.4587,-4.4587,-4.4587,-4.4587,-4.4587,-4.4587,-4.4587,-4.4587,-2.7625,-2.761,-2.7625,-2.761,-2.761,-2.7625,-2.761,-2.8057,-2.8494,-2.8494,-2.9501,-3.0212,-2.9599,-3.0523,-3.0956,-2.9738,-3.0562,0.0,0.0,-3.1076,-3.1482,-3.1482,-3.1482,-3.1482,-3.1482,-3.1482,-3.1482,-3.1482,-3.1482,-3.1482,-3.1482,-3.1482,-3.1482,-3.1482,-3.1482,-3.1482,-3.1511,-3.2198,-3.2542,-3.2587,-3.3858,-3.4487,-3.4532,-3.519,-3.5504,-3.5504,-3.5504,-3.5504,-3.5504,-3.5504,-3.5504,-3.5504,-3.5504,-3.5519,-3.5609,-3.6252,-3.6492,-3.6596,-3.721,-3.7774,-3.8737,-4.1395,-4.2306,-4.2269,-4.1808,-4.1637,-4.1758,-4.2202,-4.2286,-4.2286,-4.2286,-4.2286,-4.2303,-4.232,-4.2337,-4.254,-4.3301,-4.3453,-4.3673,-4.4434,-4.4587,-4.4587,-4.4587,-4.4587,-4.4587,-4.4587,-4.4587,-4.4587,-4.4587,-4.4587,-4.4587,-4.4587,-4.4587,-4.4587,-4.4587,-4.4587,-4.4587,-4.4587,-4.4587,-4.4587,-4.4587,-4.4587,-4.4587,-4.4587,-4.4587,-4.4587,-4.4587,-4.4587,-4.4587,-4.4587,-4.4587,-4.4587,-2.8764,-2.9073,-2.93,-2.8904,-2.9073,-2.93,-2.8904,-2.895,-2.9104,-2.9104,-2.9462,-2.9667,-2.9499,-2.9782,-3.0098,-3.0085,-3.0464,-3.1002,0.0,-3.2066,-3.2064,-3.1582,-3.1482,-3.1482,-3.1482,-3.1482,-3.1482,-3.1482,-3.1482,-3.1482,-3.1482,-3.1482,-3.1482,-3.1482,-3.1482,-3.1482,-3.1482,-3.1691,-3.2078,-3.2527,-3.2961,-3.3634,-3.4487,-3.4711,-3.507,-3.5504,-3.5504,-3.5504,-3.5504,-3.5504,-3.5504,-3.5504,-3.5504,-3.5504,-3.5534,-3.5744,-3.5833,-3.5863,-3.6073,-3.7155,-3.8632,-3.9551,-4.032,-4.0798,-4.0645,-4.0594,-4.0628,-4.0798,-4.0815,-4.0815,-4.0815,-4.0815,-4.095,-4.1457,-4.1576,-4.1779,-4.2506,-4.3064,-4.3504,-4.3758,-4.4231,-4.4587,-4.4587,-4.4587,-4.4587,-4.4587,-4.4587,-4.4587,-4.4587,-4.4587,-4.4587,-4.4587,-4.4587,-4.4587,-4.4587,-4.4587,-4.4587,-4.4587,-4.4587,-4.4587,-4.4587,-4.4587,-4.4587,-4.4587,-4.4587,-4.4587,-4.4587,-4.4587,-4.4587,-4.4587,-4.4587,-4.4587,-2.9406,-2.9673,-2.9908,-2.9496,-2.9673,-2.9892,-2.9496,-2.9585,-2.9717,-2.9717,-2.9892,-2.9978,-2.9761,-2.9892,-3.0098,-3.0332,-3.0561,-3.0956,0.0,-3.1842,-3.1697,-3.1192,-3.1317,-3.1482,-3.1482,-3.1482,-3.1482,-3.1482,-3.1482,-3.1482,-3.1482,-3.1482,-3.1482,-3.1482,-3.1482,-3.1482,-3.1482,-3.1482,-3.1749,-3.2168,-3.2407,-3.2961,-3.3784,-3.4262,-3.4726,-3.516,-3.54,-3.5504,-3.5504,-3.5504,-3.5504,-3.5504,-3.5504,-3.5504,-3.5504,-3.5504,-3.5504,-3.5569,-3.5782,-3.6969,-3.8422,-3.8959,-3.9574,-4.007,-4.007,-4.007,-4.007,-4.007,-4.007,-4.007,-4.007,-4.007,-4.0206,-4.0696,-4.0798,-4.1001,-4.1745,-4.2489,-4.3098,-4.3369,-4.4045,-4.4587,-4.4587,-4.4587,-4.4587,-4.4587,-4.4587,-4.4587,-4.4587,-4.4587,-4.4587,-4.4587,-4.4587,-4.4587,-4.4587,-4.4587,-4.4587,-4.4587,-4.4587,-4.4587,-4.4587,-4.4587,-4.4587,-4.4587,-4.4587,-4.4587,-4.4587,-4.4587,-4.4587,-4.4587,-4.4587,-4.4587]}]]